[[{"header":{"parameterUnit":"m.s-1","parameterCategory":1,"la1":30.6,"la2":29.2853,"lo1":-89.7004,"lo2":-87.6739,"dy":0.0162,"dx":0.0183,"nx":112,"ny":82,"refTime":"2023-06-20T12:00:00:Z","depth":0,"parameterNumber":2,"parameterNumberName":"U-component_of_WINDS"},"data":[0.0,0.0,0.0,0.0,0.0,0.0,0.0,0.0,0.0,0.0,0.0,0.0,0.0,0.0,0.0,0.0,0.0,0.0,0.0,0.0,0.0,0.0,0.0,0.0,0.0,0.0,0.0,0.0,0.0,0.0,0.0,0.0,0.0,0.0,0.0,0.0,0.0,0.0,0.0,0.0,0.0,0.0,0.0,0.0,0.0,0.0,0.0,0.0,0.0,0.0,0.0,0.0,0.0,0.0,0.0,0.0,0.0,0.0,0.0,0.0,0.0,0.0,0.0,0.0,0.0,0.0,0.0,0.0,0.0,0.0,0.0,0.0,0.0,0.0,0.0,0.0,0.0,0.0,0.0,0.0,0.0,0.0,0.0,0.0,0.0,0.0,0.0,0.0,0.0,0.0,0.0,-1.8213,-1.8351,-1.8337,-1.8337,-1.8303,-1.7718,-1.6319,0.0,0.0,0.0,0.0,0.0,0.0,0.0,0.0,0.0,0.0,0.0,0.0,0.0,0.0,0.0,0.0,0.0,0.0,0.0,0.0,0.0,0.0,0.0,0.0,0.0,0.0,0.0,0.0,0.0,0.0,0.0,0.0,0.0,0.0,0.0,0.0,0.0,0.0,0.0,0.0,0.0,0.0,0.0,0.0,0.0,0.0,0.0,0.0,0.0,0.0,0.0,0.0,0.0,0.0,0.0,0.0,0.0,0.0,0.0,0.0,0.0,0.0,0.0,0.0,0.0,0.0,0.0,0.0,0.0,0.0,0.0,0.0,0.0,0.0,0.0,0.0,0.0,0.0,0.0,0.0,0.0,0.0,0.0,0.0,0.0,0.0,0.0,0.0,0.0,0.0,0.0,0.0,0.0,0.0,0.0,0.0,0.0,0.0,0.0,0.0,0.0,0.0,0.0,0.0,-1.776,-1.8619,-1.8576,-1.8482,-1.8482,-1.8381,-1.8131,-1.7712,0.0,0.0,0.0,0.0,0.0,0.0,0.0,0.0,0.0,0.0,0.0,0.0,0.0,0.0,0.0,0.0,0.0,0.0,0.0,0.0,0.0,0.0,0.0,0.0,0.0,0.0,0.0,0.0,0.0,0.0,0.0,0.0,0.0,0.0,0.0,0.0,0.0,0.0,0.0,0.0,0.0,0.0,0.0,0.0,0.0,0.0,0.0,0.0,0.0,0.0,0.0,0.0,0.0,0.0,0.0,0.0,0.0,0.0,0.0,0.0,0.0,0.0,0.0,0.0,0.0,0.0,0.0,0.0,0.0,0.0,0.0,0.0,0.0,0.0,0.0,0.0,0.0,0.0,0.0,0.0,0.0,0.0,0.0,0.0,0.0,0.0,0.0,0.0,0.0,0.0,0.0,0.0,0.0,0.0,0.0,0.0,0.0,0.0,0.0,0.0,0.0,0.0,0.0,-1.7978,-1.8771,-1.8834,-1.8762,-1.8744,-1.8863,-1.8626,-1.8051,-1.7098,-1.6304,0.0,0.0,0.0,0.0,0.0,0.0,0.0,0.0,0.0,0.0,0.0,0.0,0.0,0.0,0.0,0.0,0.0,0.0,0.0,0.0,0.0,0.0,0.0,0.0,0.0,0.0,0.0,0.0,0.0,0.0,0.0,0.0,0.0,0.0,0.0,0.0,0.0,0.0,0.0,0.0,0.0,0.0,0.0,0.0,0.0,0.0,0.0,0.0,0.0,0.0,0.0,0.0,0.0,0.0,0.0,0.0,0.0,0.0,0.0,0.0,0.0,0.0,0.0,0.0,0.0,0.0,0.0,0.0,0.0,0.0,0.0,0.0,0.0,0.0,0.0,0.0,0.0,0.0,0.0,0.0,0.0,0.0,0.0,0.0,0.0,0.0,0.0,0.0,0.0,0.0,0.0,0.0,0.0,0.0,0.0,0.0,0.0,0.0,0.0,0.0,0.0,0.0,-1.7925,-1.8945,-1.8856,-1.8839,-1.8933,-1.9183,-1.886,-1.8079,-1.6701,-1.6506,0.0,0.0,0.0,0.0,0.0,0.0,0.0,0.0,0.0,0.0,0.0,0.0,0.0,0.0,0.0,0.0,0.0,0.0,0.0,0.0,0.0,0.0,0.0,0.0,0.0,0.0,0.0,0.0,0.0,0.0,0.0,0.0,0.0,0.0,0.0,0.0,0.0,0.0,0.0,0.0,0.0,0.0,0.0,0.0,0.0,0.0,0.0,0.0,0.0,0.0,0.0,0.0,0.0,0.0,0.0,0.0,0.0,0.0,0.0,0.0,0.0,0.0,0.0,0.0,0.0,0.0,0.0,0.0,0.0,0.0,0.0,0.0,0.0,0.0,0.0,0.0,0.0,0.0,0.0,0.0,0.0,0.0,0.0,0.0,0.0,0.0,0.0,0.0,0.0,0.0,0.0,0.0,0.0,0.0,0.0,0.0,0.0,0.0,0.0,0.0,0.0,0.0,-1.6901,-1.7549,-1.8506,-1.8627,-1.8792,-1.9156,-1.901,-1.8546,-1.7822,-1.7252,0.0,0.0,0.0,0.0,0.0,0.0,0.0,0.0,0.0,0.0,0.0,0.0,0.0,0.0,0.0,0.0,0.0,0.0,0.0,0.0,0.0,0.0,0.0,0.0,0.0,0.0,0.0,0.0,0.0,0.0,0.0,0.0,0.0,0.0,0.0,0.0,0.0,0.0,0.0,0.0,0.0,0.0,0.0,0.0,0.0,0.0,0.0,0.0,0.0,0.0,0.0,0.0,0.0,0.0,0.0,0.0,0.0,0.0,0.0,0.0,0.0,0.0,0.0,0.0,0.0,0.0,0.0,0.0,0.0,0.0,0.0,0.0,0.0,0.0,0.0,0.0,0.0,0.0,0.0,0.0,0.0,0.0,0.0,0.0,0.0,0.0,0.0,0.0,0.0,0.0,0.0,0.0,0.0,0.0,0.0,0.0,0.0,0.0,0.0,0.0,0.0,0.0,-1.7794,-1.8618,0.0,-1.8638,-1.8876,-1.9399,-1.8892,-1.8107,-1.7104,0.0,0.0,0.0,0.0,0.0,0.0,0.0,0.0,0.0,0.0,0.0,0.0,0.0,0.0,0.0,0.0,0.0,0.0,0.0,0.0,0.0,0.0,0.0,0.0,0.0,0.0,0.0,0.0,0.0,0.0,0.0,0.0,0.0,0.0,0.0,0.0,0.0,0.0,0.0,0.0,0.0,0.0,0.0,0.0,0.0,0.0,0.0,0.0,0.0,0.0,0.0,0.0,0.0,0.0,0.0,0.0,0.0,0.0,0.0,0.0,0.0,0.0,0.0,0.0,0.0,0.0,0.0,0.0,0.0,0.0,0.0,0.0,0.0,0.0,0.0,0.0,0.0,0.0,0.0,0.0,0.0,0.0,0.0,0.0,0.0,0.0,0.0,0.0,0.0,0.0,0.0,0.0,0.0,0.0,0.0,0.0,0.0,0.0,0.0,0.0,0.0,0.0,-1.6493,-1.8032,-1.9024,0.0,-1.8531,-1.8815,-1.9274,-1.883,-1.7899,-1.6467,0.0,0.0,0.0,0.0,0.0,0.0,0.0,0.0,0.0,0.0,0.0,0.0,0.0,0.0,0.0,0.0,0.0,0.0,0.0,0.0,0.0,0.0,0.0,0.0,0.0,0.0,0.0,0.0,0.0,0.0,0.0,0.0,0.0,0.0,0.0,0.0,0.0,0.0,0.0,0.0,0.0,0.0,0.0,0.0,0.0,0.0,0.0,0.0,0.0,0.0,0.0,0.0,0.0,0.0,0.0,0.0,0.0,0.0,0.0,0.0,0.0,0.0,0.0,0.0,0.0,0.0,0.0,0.0,0.0,0.0,0.0,0.0,0.0,0.0,0.0,0.0,0.0,0.0,0.0,0.0,0.0,0.0,0.0,0.0,0.0,0.0,0.0,0.0,0.0,0.0,0.0,0.0,0.0,0.0,0.0,0.0,0.0,0.0,0.0,0.0,0.0,0.0,-1.5828,-1.7289,-1.8322,-1.804,-1.8241,-1.8482,-1.87,-1.8891,-1.8162,0.0,0.0,0.0,0.0,0.0,0.0,0.0,0.0,0.0,0.0,0.0,0.0,0.0,0.0,0.0,0.0,0.0,0.0,0.0,0.0,0.0,0.0,0.0,0.0,0.0,0.0,0.0,0.0,0.0,0.0,0.0,0.0,0.0,0.0,0.0,0.0,0.0,0.0,0.0,0.0,0.0,0.0,0.0,0.0,0.0,0.0,0.0,0.0,0.0,0.0,0.0,0.0,0.0,0.0,0.0,0.0,0.0,0.0,0.0,0.0,0.0,0.0,0.0,0.0,0.0,0.0,0.0,0.0,0.0,0.0,0.0,0.0,0.0,0.0,0.0,0.0,0.0,0.0,0.0,0.0,0.0,0.0,0.0,0.0,0.0,0.0,0.0,0.0,0.0,0.0,0.0,0.0,0.0,0.0,0.0,0.0,0.0,0.0,0.0,0.0,0.0,0.0,0.0,-1.6087,-1.7552,-1.8571,-1.8491,-1.8442,-1.8563,-1.8882,-1.8523,-1.7596,-1.591,0.0,0.0,0.0,0.0,0.0,0.0,0.0,0.0,0.0,0.0,0.0,0.0,0.0,0.0,0.0,0.0,0.0,0.0,0.0,0.0,0.0,0.0,0.0,0.0,0.0,0.0,0.0,0.0,0.0,0.0,0.0,0.0,0.0,0.0,0.0,0.0,0.0,0.0,0.0,0.0,0.0,0.0,0.0,0.0,0.0,0.0,0.0,0.0,0.0,0.0,0.0,0.0,0.0,0.0,0.0,0.0,0.0,0.0,0.0,0.0,0.0,0.0,0.0,0.0,0.0,0.0,0.0,0.0,0.0,0.0,0.0,0.0,0.0,0.0,0.0,0.0,0.0,0.0,0.0,0.0,0.0,0.0,0.0,0.0,0.0,0.0,0.0,0.0,0.0,0.0,0.0,0.0,0.0,0.0,0.0,0.0,0.0,0.0,0.0,0.0,0.0,0.0,-1.5852,-1.7565,-1.8772,-1.87,-1.8652,-1.8723,-1.8851,-1.8563,-1.7838,-1.6474,0.0,0.0,0.0,0.0,0.0,0.0,0.0,0.0,0.0,0.0,0.0,0.0,0.0,0.0,0.0,0.0,0.0,0.0,0.0,0.0,0.0,0.0,0.0,0.0,0.0,0.0,0.0,0.0,0.0,0.0,0.0,0.0,0.0,0.0,0.0,0.0,0.0,0.0,0.0,0.0,0.0,0.0,0.0,0.0,0.0,0.0,0.0,0.0,0.0,0.0,0.0,0.0,0.0,0.0,0.0,0.0,0.0,0.0,0.0,0.0,0.0,0.0,0.0,0.0,0.0,0.0,0.0,0.0,0.0,0.0,0.0,0.0,0.0,0.0,0.0,0.0,0.0,0.0,0.0,0.0,0.0,0.0,0.0,0.0,0.0,0.0,0.0,0.0,0.0,0.0,0.0,0.0,0.0,0.0,0.0,0.0,0.0,0.0,0.0,0.0,0.0,0.0,-1.5417,-1.7539,-1.907,-1.8887,-1.8963,-1.8976,-1.8785,-1.8909,-1.8497,-1.7451,0.0,0.0,0.0,0.0,0.0,0.0,0.0,0.0,0.0,0.0,0.0,0.0,0.0,0.0,0.0,0.0,0.0,0.0,0.0,0.0,0.0,0.0,0.0,0.0,0.0,0.0,0.0,0.0,0.0,0.0,0.0,0.0,0.0,0.0,0.0,0.0,0.0,0.0,0.0,0.0,0.0,0.0,0.0,0.0,0.0,0.0,0.0,0.0,0.0,0.0,0.0,0.0,0.0,0.0,0.0,0.0,0.0,0.0,0.0,0.0,-1.5429,0.0,0.0,0.0,0.0,0.0,0.0,0.0,0.0,0.0,0.0,0.0,0.0,0.0,0.0,0.0,0.0,0.0,0.0,0.0,0.0,0.0,0.0,0.0,0.0,0.0,0.0,0.0,0.0,0.0,0.0,0.0,0.0,0.0,0.0,0.0,0.0,0.0,0.0,0.0,0.0,0.0,-1.6093,-1.8454,-2.0181,-2.0139,-1.9734,-1.9453,-1.9421,-1.903,-1.8273,-1.7152,-1.6964,0.0,0.0,0.0,0.0,0.0,0.0,0.0,0.0,0.0,0.0,0.0,0.0,0.0,0.0,0.0,0.0,0.0,0.0,0.0,0.0,0.0,0.0,0.0,0.0,0.0,0.0,0.0,0.0,0.0,0.0,0.0,0.0,0.0,0.0,0.0,0.0,0.0,0.0,0.0,0.0,0.0,0.0,0.0,0.0,0.0,0.0,0.0,0.0,0.0,0.0,0.0,0.0,0.0,0.0,0.0,0.0,0.0,0.0,0.0,0.0,-1.5386,0.0,0.0,0.0,0.0,0.0,0.0,0.0,0.0,0.0,0.0,0.0,0.0,0.0,0.0,0.0,0.0,0.0,0.0,0.0,0.0,0.0,0.0,0.0,0.0,0.0,0.0,0.0,0.0,0.0,0.0,0.0,0.0,0.0,0.0,0.0,0.0,0.0,0.0,0.0,0.0,-1.626,-1.844,-2.0008,-2.0177,-1.9921,-1.9752,-1.9752,-1.9448,-1.9067,-1.8572,-1.7962,0.0,0.0,0.0,0.0,0.0,0.0,0.0,0.0,0.0,0.0,0.0,0.0,0.0,0.0,0.0,0.0,0.0,0.0,0.0,0.0,0.0,0.0,0.0,0.0,0.0,0.0,0.0,0.0,0.0,0.0,0.0,0.0,0.0,0.0,0.0,0.0,0.0,0.0,0.0,0.0,0.0,0.0,0.0,0.0,0.0,0.0,0.0,0.0,0.0,0.0,0.0,0.0,0.0,-1.6749,-1.6561,-1.6786,-1.6211,-1.5852,-1.5755,-1.6998,-1.7073,-1.6285,0.0,0.0,0.0,0.0,0.0,0.0,0.0,0.0,0.0,0.0,0.0,0.0,0.0,0.0,0.0,0.0,0.0,0.0,0.0,0.0,0.0,0.0,0.0,0.0,0.0,-1.8107,-1.7715,0.0,0.0,0.0,0.0,0.0,0.0,0.0,0.0,0.0,0.0,0.0,0.0,-1.6242,-1.8247,-1.9751,-2.0058,-2.026,-2.0333,-2.0333,-2.0391,-2.0479,-2.0673,-1.9483,-1.8965,0.0,0.0,0.0,0.0,0.0,0.0,0.0,0.0,0.0,0.0,0.0,0.0,0.0,0.0,0.0,0.0,0.0,0.0,0.0,0.0,0.0,0.0,0.0,0.0,0.0,0.0,0.0,0.0,0.0,0.0,0.0,0.0,-1.5703,-1.6787,0.0,0.0,0.0,0.0,0.0,0.0,0.0,0.0,0.0,0.0,0.0,0.0,0.0,-1.6578,-1.7242,-1.8029,-1.8592,-1.8837,-1.9549,-1.9768,-1.9565,-1.9494,-1.9505,-1.9548,-1.9134,0.0,-1.6291,-1.6334,0.0,0.0,0.0,0.0,0.0,0.0,0.0,0.0,0.0,0.0,0.0,0.0,0.0,0.0,0.0,0.0,0.0,0.0,0.0,0.0,0.0,0.0,-2.0257,-2.0143,-1.9429,-1.9056,0.0,-1.7666,-1.5476,-1.6261,-1.5353,0.0,0.0,0.0,0.0,0.0,0.0,0.0,-1.6279,-1.8981,-2.0888,-2.0943,-2.167,-2.2178,-2.2178,-2.2357,-2.2514,-2.2534,-2.167,-2.0745,-1.9843,-2.1172,0.0,0.0,0.0,0.0,0.0,0.0,0.0,0.0,0.0,0.0,0.0,0.0,0.0,0.0,0.0,0.0,0.0,0.0,0.0,0.0,0.0,0.0,0.0,0.0,0.0,0.0,0.0,0.0,0.0,-1.5663,-1.6429,-1.7074,-1.6805,-1.609,0.0,0.0,0.0,0.0,0.0,0.0,0.0,0.0,0.0,-1.7882,-1.8457,-1.911,-1.9798,-2.0462,-2.0987,-2.1468,-2.1209,-2.1221,-2.1505,-2.1019,-2.0791,-2.0821,-2.0543,-1.9642,-1.8389,-1.7669,-1.7226,-1.6863,0.0,0.0,0.0,0.0,-1.4427,-1.4858,-1.4842,-1.5709,0.0,-1.6825,0.0,0.0,0.0,0.0,0.0,0.0,0.0,0.0,0.0,0.0,-2.021,-2.0818,-2.0725,-2.0589,-2.0923,-1.913,-1.7597,0.0,-1.6627,-1.5226,-1.4323,0.0,0.0,0.0,0.0,-1.7597,-1.7926,-2.0054,-2.1617,-2.1845,-2.2715,-2.3294,-2.3294,-2.3246,-2.3309,-2.3435,-2.2946,-2.2623,-2.2501,-2.2901,-2.2266,0.0,0.0,0.0,0.0,0.0,0.0,0.0,0.0,0.0,0.0,0.0,0.0,0.0,0.0,0.0,0.0,0.0,0.0,0.0,0.0,0.0,0.0,0.0,0.0,0.0,0.0,0.0,0.0,-1.6523,-1.7098,-1.7533,-1.7461,-1.7047,0.0,0.0,0.0,0.0,0.0,0.0,-1.8026,-1.7972,-1.8522,-1.9889,-2.0625,-2.1452,-2.2235,-2.2548,-2.2991,-2.3606,-2.2529,-2.2288,-2.2796,-2.2088,-2.169,-2.1635,-2.1625,-2.1258,-2.0558,-1.9173,-1.8312,-1.7748,-1.7432,-1.6664,-1.5783,-1.6191,-1.6474,-1.6643,-1.6706,-1.7569,-1.8626,-1.86,0.0,-1.8289,-1.8186,0.0,0.0,0.0,0.0,-1.8106,-1.9017,-1.9628,-2.0328,-2.1356,-2.1771,-2.1798,-2.1335,-2.0464,-1.9692,0.0,-1.8138,-1.6731,-1.5708,0.0,0.0,0.0,0.0,-1.8661,-1.9079,-2.0852,-2.2077,-2.2134,-2.3479,-2.4252,-2.396,-2.4232,-2.4385,-2.4473,-2.4202,-2.4218,-2.4661,-2.4181,-2.3426,-2.2377,0.0,0.0,0.0,0.0,0.0,0.0,0.0,0.0,0.0,0.0,0.0,0.0,0.0,0.0,0.0,0.0,0.0,0.0,0.0,0.0,0.0,0.0,0.0,0.0,0.0,0.0,0.0,0.0,0.0,-1.8751,-1.9562,0.0,0.0,0.0,0.0,-1.7913,-1.8174,-1.8905,-2.0102,-2.0269,-2.0897,-2.2089,-2.2172,-2.2714,-2.3791,-2.357,-2.3782,-2.4414,-2.3745,-2.3383,-2.3326,-2.313,-2.2863,-2.2541,-2.2623,-2.2487,-2.2087,-2.0602,-1.9661,-1.9075,-1.867,-1.8368,-1.818,-1.7915,-1.8383,-1.9195,-1.9222,-1.9965,-2.098,-2.1371,-2.0775,-1.9686,-1.8632,-1.8246,0.0,0.0,-1.9245,-2.0339,-2.0392,-2.1247,-2.2064,-2.2144,-2.2351,-2.2384,-2.1719,-2.1301,-2.0906,0.0,-1.9427,-1.8528,-1.8312,0.0,-1.7995,-1.6808,-1.7687,-1.8561,-1.8704,-2.0919,-2.2144,-2.1272,-2.3903,-2.5284,-2.418,-2.5694,-2.6547,-2.6121,-2.5639,-2.5334,-2.5182,-2.4694,-2.4192,-2.3635,-2.2258,0.0,0.0,0.0,0.0,0.0,0.0,0.0,0.0,0.0,0.0,0.0,0.0,0.0,0.0,0.0,0.0,0.0,0.0,0.0,0.0,0.0,0.0,0.0,0.0,0.0,0.0,0.0,0.0,-1.9724,-1.9903,0.0,0.0,-1.9748,-1.9629,-1.9617,-2.0429,-2.1238,-2.194,-2.2436,-2.3055,-2.3877,-2.3775,-2.4082,-2.4863,-2.4646,-2.4811,-2.534,-2.5089,-2.4973,-2.4977,-2.4747,-2.4566,-2.4464,-2.4056,-2.3545,-2.2924,-2.1987,-2.138,-2.1088,-2.0762,-2.0747,-2.0836,-2.0819,-2.0802,-2.0811,-2.0686,-2.0703,-2.0896,-2.1309,-2.141,-2.1354,-2.0935,-2.0802,-2.0757,-2.0508,-2.0802,-2.113,-2.09,-2.1248,-2.167,-2.167,-2.1843,-2.1944,-2.1708,-2.1588,-2.1421,-2.1284,-2.0613,-2.0214,-2.0733,-2.1528,-2.1749,-2.0762,-2.1746,-2.2476,-2.2043,-2.3303,-2.4133,-2.3783,-2.5283,-2.6155,-2.5726,-2.6177,-2.6396,-2.6199,-2.5898,-2.5727,-2.5644,-2.5185,-2.4847,-2.4661,-2.3864,-2.2219,0.0,0.0,0.0,0.0,0.0,0.0,0.0,0.0,0.0,0.0,0.0,0.0,0.0,0.0,0.0,0.0,0.0,0.0,0.0,0.0,0.0,0.0,0.0,0.0,0.0,0.0,-1.904,-2.0585,-2.078,-2.1021,-2.1722,-2.1539,-2.1549,-2.1954,-2.2704,-2.3272,-2.3595,-2.4147,-2.4573,-2.5006,-2.4904,-2.5078,-2.5607,-2.5491,-2.5648,-2.6048,-2.59,-2.586,-2.578,-2.5556,-2.5145,-2.4622,-2.4561,-2.3962,-2.3097,-2.3014,-2.2906,-2.2774,-2.2241,-2.2092,-2.2329,-2.2726,-2.2637,-2.2354,-2.2458,-2.2334,-2.2164,-2.2574,-2.2779,-2.2917,-2.2917,-2.2876,-2.2658,-2.2408,-2.2431,-2.2416,-2.2146,-2.2223,-2.2334,-2.2334,-2.2317,-2.2263,-2.2035,-2.1724,-2.1523,-2.1662,-2.1346,-2.1234,-2.1597,-2.239,-2.2721,-2.1937,-2.2605,-2.3022,-2.2574,-2.3825,-2.4616,-2.4127,-2.5732,-2.6616,-2.6063,-2.5621,-2.5584,-2.6071,-2.5406,-2.53,-2.5874,-2.4956,-2.4482,-2.4482,-2.3504,-2.2073,-2.0151,0.0,0.0,0.0,0.0,0.0,0.0,0.0,0.0,0.0,0.0,0.0,0.0,0.0,0.0,0.0,0.0,0.0,0.0,0.0,0.0,0.0,0.0,0.0,-1.7307,-1.8944,-2.044,-2.1457,-2.2409,-2.3304,-2.423,-2.3844,-2.3953,-2.4824,-2.4876,-2.4914,-2.5108,-2.5334,-2.5459,-2.5531,-2.5478,-2.5712,-2.61,-2.6109,-2.6282,-2.6582,-2.6241,-2.5879,-2.5638,-2.5487,-2.4627,-2.316,-2.4094,-2.3842,-2.2756,-2.3731,-2.4088,-2.3974,-2.2868,-2.2432,-2.2565,-2.348,-2.3805,-2.3881,-2.4455,-2.4711,-2.4803,-2.5188,-2.4905,-2.4401,-2.435,-2.4121,-2.3795,-2.3786,-2.3935,-2.4134,-2.4115,-2.4115,-2.4115,-2.4115,-2.3813,-2.3322,-2.2797,-2.1871,-2.1269,-2.1668,-2.1762,-2.1602,-2.1065,-2.1026,-2.0839,-2.0299,-2.0169,0.0,-2.0149,-2.2464,-2.3581,-2.2219,-2.5159,-2.6631,-2.5083,-2.4187,-2.4336,-2.5817,-2.4332,-2.4134,-2.5819,-2.4093,-2.3088,-2.3088,-2.1165,-2.0641,-2.1614,0.0,0.0,0.0,0.0,0.0,0.0,0.0,0.0,0.0,0.0,0.0,0.0,0.0,0.0,0.0,0.0,0.0,0.0,0.0,0.0,0.0,0.0,-1.9704,-1.9629,-2.055,-2.1779,-2.3257,-2.3935,-2.4376,-2.4637,-2.4804,-2.4845,-2.4821,-2.5347,-2.569,-2.5733,-2.5791,-2.5848,-2.5852,-2.5578,-2.5624,-2.6016,-2.6016,-2.6225,-2.6591,-2.6765,-2.6692,-2.6308,-2.66,-2.629,-2.5593,-2.5405,-2.5075,-2.4773,-2.4553,-2.4307,-2.4053,-2.3739,-2.3554,-2.3479,-2.3533,-2.3368,-2.2979,-2.2259,-2.2763,-2.3619,-2.3529,-2.3732,-2.3926,-2.3716,-2.3586,-2.3434,-2.3099,-2.3068,-2.3055,-2.2777,-2.2706,-2.2706,-2.2706,-2.2568,-2.2772,-2.369,-2.342,-2.3404,-2.4756,-2.4455,-2.4162,-2.4625,-2.5702,-2.6547,-2.6641,-2.6626,0.0,-2.5889,-2.6497,-2.6742,-2.6183,-2.5722,-2.5661,-2.6087,-2.465,-2.4331,-2.5808,-2.5434,-2.5379,-2.5884,-2.5393,-2.5098,-2.5098,-2.2881,-2.1819,0.0,0.0,0.0,0.0,0.0,0.0,0.0,0.0,0.0,0.0,0.0,0.0,0.0,0.0,0.0,0.0,0.0,0.0,0.0,0.0,0.0,0.0,-1.9738,-2.1554,-2.2208,-2.2712,-2.3402,-2.443,-2.5172,-2.5589,-2.5737,-2.5991,-2.6032,-2.5803,-2.6059,-2.6278,-2.6278,-2.6278,-2.6088,-2.5808,-2.5744,-2.5735,-2.5799,-2.5972,-2.6226,-2.6591,-2.682,-2.6894,-2.6848,-2.7068,-2.6811,0.0,-2.6091,-2.5739,-2.5191,-2.5076,-2.4951,0.0,0.0,0.0,0.0,0.0,-2.3496,-2.3169,-2.2622,-2.2933,-2.3552,-2.3562,-2.3601,-2.3705,-2.3553,-2.3084,-2.2566,-2.2288,-2.2013,-2.1831,-2.196,-2.2485,-2.3099,-2.3468,-2.3918,-2.4506,-2.5411,-2.4861,-2.4605,-2.6044,-2.6001,0.0,-2.7134,-2.6909,-2.6611,-2.6733,-2.6753,-2.6689,-2.6477,-2.7034,-2.7303,-2.6932,-2.6442,-2.6339,-2.6856,-2.5153,0.0,0.0,0.0,-2.4902,-2.4694,-2.488,0.0,0.0,0.0,-2.2204,-2.2597,0.0,0.0,0.0,-1.9965,-1.8571,0.0,0.0,0.0,0.0,0.0,0.0,0.0,0.0,0.0,0.0,0.0,0.0,0.0,0.0,0.0,0.0,-2.1248,-2.273,-2.4592,-2.4931,-2.5052,-2.5182,-2.6044,-2.6673,-2.687,-2.7031,-2.7086,-2.704,-2.6765,-2.6591,-2.6591,0.0,0.0,0.0,0.0,-2.5892,-2.5549,-2.5937,-2.63,-2.6591,-2.6637,-2.6811,-2.7114,-2.7205,-2.671,-2.581,-2.6452,-2.6063,-2.4933,-2.553,-2.5743,-2.5608,-2.4543,-2.3964,-2.3772,-2.3772,-2.3821,-2.3934,-2.4125,0.0,0.0,-2.4356,-2.4007,-2.3538,-2.353,-2.2769,-2.1895,-2.1948,-2.1608,-2.1441,-2.2281,-2.3476,-2.4744,-2.5578,-2.6536,-2.7348,-2.7487,-2.6417,-2.5675,-2.6675,-2.7132,-2.7733,-2.8836,-2.639,-2.4255,-2.4192,-2.4072,-2.4187,-2.4728,-2.5972,-2.6673,-2.624,0.0,0.0,-2.7413,-2.5655,-2.5175,-2.6573,-2.5003,-2.3831,-2.3351,-2.3744,-2.2931,-2.0805,-2.1581,-2.2411,-2.3241,-2.2783,-2.3299,-2.4608,-2.0795,-1.9188,0.0,0.0,0.0,0.0,0.0,0.0,0.0,0.0,0.0,0.0,0.0,0.0,0.0,0.0,0.0,-2.1427,-2.3196,-2.4599,-2.5207,-2.5821,-2.6168,-2.5872,-2.6287,-2.6508,-2.6212,-2.6508,-2.6564,-2.6269,-2.6435,-2.6591,-2.6591,-2.6261,0.0,-2.5914,-2.5987,-2.5987,-2.5905,-2.6317,-2.6537,-2.6591,0.0,0.0,-2.6719,-2.7417,-2.7389,-2.6893,-2.7049,-2.6929,-2.6701,-2.6482,-2.6136,-2.5634,-2.4904,-2.4367,-2.3948,-2.3321,-2.3512,-2.3948,-2.327,-2.3409,-2.3845,-2.3454,-2.3221,-2.312,-2.3177,-2.3651,0.0,-2.4546,-2.5217,-2.5878,-2.6071,-2.6297,-2.6573,-2.6768,-2.6978,-2.7481,-2.8746,-2.8619,-2.8697,-3.0067,-2.991,-2.9655,-2.9897,-2.9216,-2.8686,-2.8843,-2.8207,-2.7874,-2.8402,-2.8532,-2.8665,-2.8791,-2.7477,-2.6952,-2.7807,-2.6147,-2.5655,-2.7086,-2.6442,-2.581,-2.536,-2.5437,-2.5262,-2.4803,-2.4585,-2.4614,-2.4749,-2.4414,-2.4382,-2.4653,-2.3091,-2.2421,0.0,0.0,0.0,0.0,0.0,0.0,0.0,0.0,0.0,0.0,0.0,-1.891,0.0,0.0,-2.1542,-2.3162,-2.4149,-2.5075,-2.616,-2.6454,-2.6435,-2.6067,-2.6509,-2.6802,-2.6646,-2.6756,-2.6793,-2.6636,-2.6582,-2.6591,-2.6591,-2.6389,-2.6232,-2.6021,-2.6214,-2.6223,-2.6012,-2.638,-2.6591,-2.6591,-2.6784,-2.6885,-2.6903,-2.7499,-2.7711,-2.7537,-2.7691,-2.7554,-2.7141,-2.6747,-2.6418,-2.6118,-2.542,-2.5,-2.4584,-2.3974,-2.4009,-2.4324,-2.3649,-2.3458,-2.3444,-2.315,-2.296,-2.2839,-2.2826,-2.2915,-2.2965,-2.3171,-2.3904,-2.4675,-2.5112,-2.6378,-2.7666,-2.8137,-2.8819,-2.9566,-3.0319,-3.0395,-3.0561,-3.1326,-3.1274,-3.1138,-3.1334,-3.0765,-3.0334,-3.041,-2.9726,-2.9384,-2.9781,-2.9534,-2.9252,-2.9116,-2.8155,-2.7788,-2.8331,-2.7293,-2.6911,-2.7632,-2.6977,-2.6475,-2.6278,-2.6026,-2.5895,-2.5895,-2.5666,-2.5535,-2.5535,-2.5154,-2.4992,-2.509,-2.436,-2.3542,0.0,0.0,0.0,0.0,0.0,0.0,0.0,0.0,-1.814,-1.8457,-1.9525,-2.0712,-2.1708,-2.2213,-2.3084,-2.4953,-2.5006,-2.5372,-2.6985,-2.6903,-2.6545,-2.6186,-2.6719,-2.7068,-2.7068,-2.7068,-2.7068,-2.7068,-2.6765,-2.6591,-2.6591,-2.6591,-2.6435,-2.614,-2.6408,-2.6426,-2.614,-2.6417,-2.6591,-2.6591,-2.6591,-2.6756,-2.7077,-2.761,-2.7822,-2.784,-2.8214,-2.793,-2.715,-2.6839,-2.6655,-2.6473,-2.5962,-2.567,-2.5406,-2.4835,-2.4676,-2.4687,-2.4287,-2.3843,-2.3462,-2.316,-2.3211,-2.3316,-2.3164,-2.2939,-2.2713,-2.2799,-2.3312,-2.4058,-2.4825,-2.6841,-2.8919,-2.9785,-3.0817,-3.1662,-3.1761,-3.1721,-3.1669,-3.1618,-3.1823,-3.2077,-3.2291,-3.1584,-3.0968,-3.0791,-3.0145,-2.9851,-3.0217,-2.9771,-2.9328,-2.9026,-2.8894,-2.8803,-2.8803,-2.8396,-2.81,-2.8002,-2.7282,-2.6813,-2.6726,-2.6299,-2.6037,-2.6037,-2.595,-2.5895,-2.5895,-2.5502,-2.5439,-2.5591,-2.5043,-2.4054,-1.7955,-1.5632,-1.444,-1.4769,-1.6569,-1.8298,0.0,0.0,-2.2772,-2.2295,-2.36,-2.4909,-2.5347,-2.5238,-2.5485,-2.671,-2.6609,-2.6564,-2.7105,-2.7141,-2.6967,-2.6564,-2.66,-2.6655,-2.6655,-2.6655,-2.6655,-2.6655,-2.6619,-2.6591,-2.6591,-2.6591,-2.6564,-2.6518,-2.6564,-2.6564,-2.6518,-2.6564,-2.6591,-2.6591,-2.6591,-2.6609,-2.6683,-2.7426,-2.7822,-2.784,-2.8214,-2.793,-2.7169,-2.7132,-2.6728,-2.6127,-2.6072,-2.6227,-2.6327,-2.5203,-2.4753,-2.4756,-2.4307,-2.4505,-2.4677,-2.3488,-2.4376,-2.5806,-2.524,-2.6657,-2.8521,-2.8842,-2.9695,-3.0574,-3.0748,-3.1031,-3.1392,-3.192,-3.1874,-3.1806,-3.223,-3.2117,-3.1874,-3.1629,-3.1823,-3.1924,-3.1732,-3.1582,-3.1461,-3.1261,-3.0184,-2.97,-3.0453,-2.9719,-2.9422,-3.0057,-2.9314,-2.8803,-2.8803,-2.8749,-2.8495,-2.8023,-2.7893,-2.7642,-2.7261,-2.6748,-2.6508,-2.6508,-2.6125,-2.5895,-2.5895,-2.5852,-2.5819,-2.585,-2.5357,-2.4894,-1.8592,-1.8177,0.0,0.0,-1.9418,-2.0795,-2.1427,-2.2807,-2.3987,-2.4127,-2.5049,-2.5937,-2.6271,-2.5727,-2.5638,0.0,-2.6528,-2.6364,-2.7398,-2.7381,-2.7114,-2.6949,-2.6518,-2.6186,-2.5903,-2.6307,-2.6389,-2.5913,-2.6316,-2.6591,-2.6591,-2.6591,-2.6591,-2.6591,-2.6591,-2.6591,-2.6591,-2.6591,-2.6591,-2.6591,-2.6591,-2.6591,-2.6619,-2.7407,-2.8079,-2.8471,-2.8416,-2.8067,-2.7499,-2.727,-2.6884,-2.6354,-2.6181,-2.6072,-2.6008,-2.5688,-2.5798,-2.6145,-2.6415,-2.6558,-2.6569,-2.6666,-2.6939,-2.7172,-2.6923,-2.7419,-2.8105,-2.823,-2.925,-3.032,-3.0362,-3.0993,-3.1677,-3.1918,-3.1767,-3.1783,-3.2275,-3.2319,-3.2218,-3.2066,-3.228,-3.2331,-3.1924,-3.1823,-3.1781,-3.1734,-3.1038,-3.057,-3.0768,-3.0292,-2.9883,-2.9622,-2.9203,-2.8879,-2.8604,-2.8593,-2.8523,-2.8451,-2.8154,-2.7903,-2.7696,-2.7282,-2.6857,-2.6595,-2.6431,-2.6179,-2.5895,-2.5895,-2.5895,-2.5895,-2.5688,-2.5522,-1.9677,0.0,0.0,-2.0871,-2.1579,-2.2574,-2.3468,-2.4164,-2.4649,-2.5047,-2.5656,-2.6181,-2.6418,-2.5882,0.0,-2.7013,-2.6564,-2.6436,-2.7481,-2.7361,-2.7095,-2.6811,-2.6316,-2.572,-2.5045,-2.5876,-2.6215,-2.5791,-2.6252,-2.6591,-2.6591,-2.6591,-2.6591,-2.6591,-2.6591,-2.6591,-2.6591,-2.6591,-2.6591,-2.6591,-2.6591,-2.6591,-2.6619,-2.7407,-2.8272,-2.8966,-2.8682,-2.8251,-2.7803,-2.7566,-2.7151,-2.6736,-2.6871,-2.6862,-2.6799,-2.7321,-2.7321,-2.7222,-2.8087,-2.8453,-2.8538,-2.9116,-2.9216,-2.9087,-2.8803,-2.8683,-2.8588,-2.8591,-2.9288,-3.0041,-3.0009,-3.0825,-3.1667,-3.1827,-3.1727,-3.1794,-3.2463,-3.2519,-3.2453,-3.26,-3.2784,-3.2796,-3.2381,-3.2229,-3.2117,-3.2117,-3.1688,-3.1346,-3.1227,-3.0974,-3.0429,-2.9484,-2.9275,-2.9046,-2.8629,-2.8463,-2.8429,-2.8582,-2.8217,-2.804,-2.8092,-2.7666,-2.7272,-2.6977,-2.6846,-2.6583,-2.6103,-2.6103,-2.6037,-2.5895,-2.5895,-2.5895,0.0,0.0,-2.0106,-2.1136,-2.2313,-2.3358,-2.3633,-2.4689,-2.5533,-2.5258,-2.567,-2.6127,-2.6127,-2.6336,-2.6683,-2.7105,-2.715,-2.715,-2.7187,-2.7187,-2.682,-2.5765,-2.587,-2.5438,0.0,-2.5167,-2.6195,-2.6527,-2.6573,-2.6591,-2.6591,-2.6591,-2.6591,-2.6591,-2.6591,-2.6591,-2.6591,-2.6591,-2.6591,-2.6591,-2.6591,-2.6591,-2.6619,-2.7407,-2.8272,-2.8984,-2.8975,-2.8507,-2.7822,-2.804,-2.7725,-2.7098,-2.8455,-2.9177,-2.9525,-3.0545,-2.9379,-2.7425,-2.8589,-2.9693,-3.045,-2.9577,-3.0662,-3.209,-3.1191,-3.1603,-3.2354,-3.2335,-3.1993,-3.1643,-3.1615,-3.1656,-3.1841,-3.2335,-3.2082,-3.1972,-3.298,-3.2804,-3.265,-3.3105,-3.3197,-3.3197,-3.3147,-3.2723,-3.2409,-3.2409,-3.1953,-3.1699,-3.1931,-3.1584,-3.1009,-3.0269,-2.9751,-2.9365,-2.9104,-2.8651,-2.8288,-2.8042,-2.7997,-2.811,-2.8375,-2.7966,-2.7767,-2.7947,-2.7534,-2.7064,-2.6562,-2.6562,-2.6322,-2.5895,-2.5895,-2.5895,0.0,0.0,-2.3207,-2.2236,-2.2935,-2.3962,-2.4324,-2.4763,-2.5105,-2.5461,-2.5112,-2.477,-2.4936,-2.4512,-2.4518,-2.5556,-2.5309,-2.548,-2.6985,-2.6076,-2.5472,-2.6171,-2.5612,0.0,0.0,0.0,0.0,-2.5417,-2.6133,-2.6591,-2.6591,-2.6591,-2.6591,-2.6591,-2.6591,-2.6591,-2.6591,-2.6591,-2.6591,-2.6591,-2.6591,-2.6866,-2.7436,-2.7702,-2.8288,-2.9156,-2.9156,-2.8803,-2.8274,-2.8385,-2.7943,-2.7314,-2.7789,-2.8339,-2.9051,-3.0141,-3.0586,-3.0719,-3.152,-3.205,-3.2443,-3.2822,-3.3177,-3.3379,-3.3095,-3.3017,-3.3019,-3.304,-3.2641,-3.2218,-3.2239,-3.1961,-3.1761,-3.1914,-3.1808,-3.1901,-3.2582,-3.2605,-3.2556,-3.2683,-3.2718,-3.2622,-3.2296,-3.2042,-3.1961,-3.1955,-3.1726,-3.1618,-3.1721,-3.1589,-3.1234,-3.046,-3.0277,-2.9848,-2.9148,-2.8776,-2.8522,-2.8288,-2.8099,-2.8042,-2.8121,-2.7965,-2.7798,-2.7533,-2.7367,-2.7088,-2.6599,-2.6599,-2.6521,-2.6354,-2.6354,-2.6354,0.0,-2.3216,-2.4819,-2.3531,-2.3781,-2.445,-2.4735,-2.474,-2.4804,-2.5204,-2.4651,-2.4047,-2.4018,-2.361,-2.3516,-2.4472,-2.4245,-2.4618,-2.6381,-2.5618,-2.5197,-2.5991,-2.5569,0.0,0.0,0.0,0.0,-2.5295,-2.5869,-2.6308,-2.6362,-2.6308,-2.6372,-2.6582,-2.6591,-2.6591,-2.6591,-2.6591,-2.6591,-2.6591,-2.6591,-2.7004,-2.7822,-2.7822,-2.8131,-2.8735,-2.9058,-2.8738,-2.8012,-2.8439,-2.8247,-2.7691,-2.8572,-2.923,-2.9828,-3.1338,-3.2465,-3.3216,-3.3411,-3.361,-3.3869,-3.458,-3.4546,-3.4282,-3.4282,-3.397,-3.3561,-3.3561,-3.3171,-3.2782,-3.2782,-3.2371,-3.1996,-3.1996,-3.1844,-3.1856,-3.2369,-3.2509,-3.2557,-3.2746,-3.2782,-3.2688,-3.2312,-3.2123,-3.1941,-3.1731,-3.1661,-3.1636,-3.1597,-3.1618,-3.1429,-3.0954,-3.0723,-3.0354,-2.9678,-2.9131,-2.8689,-2.84,-2.8063,-2.788,-2.788,-2.788,-2.7758,-2.7538,-2.757,-2.7323,-2.6861,-2.6861,-2.6771,-2.6603,-2.6603,-2.6603,-2.5046,-2.5112,-2.4952,-2.4921,-2.4804,-2.4748,-2.4875,-2.4795,-2.4689,-2.4539,-2.4236,-2.3842,0.0,0.0,-2.3656,-2.3854,-2.4053,-2.4553,-2.5512,-2.5864,-2.5775,0.0,0.0,0.0,0.0,0.0,0.0,-2.6012,0.0,-2.5772,-2.6048,-2.5772,-2.5954,-2.6573,-2.6591,-2.6591,-2.6591,-2.6591,-2.6591,-2.6591,-2.6609,-2.7022,-2.7822,-2.784,-2.784,-2.7954,-2.8802,-2.8446,-2.7288,-2.8494,-2.8643,-2.8325,-3.0701,-3.1626,-3.1931,-3.3967,-3.4726,-3.4726,-3.4237,-3.4384,-3.4775,-3.4775,-3.4775,-3.4775,-3.4775,-3.4426,-3.403,-3.403,-3.3717,-3.3332,-3.3332,-3.2935,-3.2527,-3.2515,-3.2094,-3.1886,-3.2346,-3.2454,-3.2611,-3.3104,-3.32,-3.32,-3.32,-3.2804,-3.2277,-3.178,-3.1697,-3.17,-3.1622,-3.1607,-3.1618,-3.1618,-3.1203,-3.0844,-3.053,-2.9711,-2.8911,-2.8371,-2.7926,-2.7632,-2.7609,-2.7586,-2.7705,-2.7962,-2.7973,-2.7738,-2.731,-2.731,-2.7063,-2.6644,-2.6644,-2.6644,-2.5016,-2.5922,-2.7253,-2.7012,-2.5856,-2.5,-2.5819,-2.5341,-2.4568,-2.3832,-2.3041,-2.2033,0.0,0.0,0.0,-2.1906,-2.2375,0.0,-2.4947,-2.4884,0.0,0.0,0.0,-2.572,-2.6171,-2.6371,0.0,0.0,-2.6198,-2.6372,-2.6426,-2.6372,-2.6418,-2.6582,-2.6591,-2.6591,-2.6591,-2.6591,-2.6591,-2.6591,-2.6885,-2.7288,-2.7831,-2.8095,-2.8566,-2.9103,-2.9331,-2.959,-2.9848,-3.0182,-3.0464,-3.0701,-3.137,-3.2083,-3.2839,-3.3411,-3.4115,-3.4775,-3.4628,-3.4689,-3.4775,-3.4775,-3.4775,-3.4775,-3.4775,-3.4679,-3.4583,-3.4583,-3.4198,-3.3802,-3.3802,-3.3477,-3.2996,-3.2599,-3.2394,-3.2214,-3.1982,-3.1922,-3.1958,-3.209,-3.2126,-3.2126,-3.2126,-3.198,-3.1886,-3.1715,-3.17,-3.1675,-3.1689,-3.1614,-3.1618,-3.1618,-3.1509,-3.1236,-3.0816,-3.0383,-2.9803,-2.8955,-2.8397,-2.7971,-2.762,-2.7413,-2.7318,-2.7402,-2.7402,-2.7345,-2.722,-2.722,-2.7151,-2.7067,-2.7067,-2.7067,-2.7226,-2.7412,-2.7877,-2.7924,-2.6721,-2.5594,-2.5844,-2.5325,-2.4407,-2.2905,-2.1931,0.0,0.0,0.0,0.0,0.0,0.0,0.0,-2.4399,-2.4607,-2.4711,0.0,-2.5312,0.0,-2.6527,-2.6591,-2.649,0.0,-2.6225,-2.6208,-2.6316,-2.6208,-2.629,-2.6582,-2.6591,-2.6591,-2.6591,-2.6591,-2.6591,-2.6591,-2.6985,-2.7456,-2.7902,-2.8321,-2.9049,-3.0063,0.0,-3.0857,-3.1227,-3.165,-3.1771,-3.1626,-3.2134,-3.2689,-3.325,-3.3709,-3.4274,-3.4775,-3.4775,-3.4775,-3.4775,-3.4775,-3.4775,-3.4775,-3.4775,-3.4775,-3.4775,-3.4775,-3.457,-3.4342,-3.4342,-3.4006,-3.3537,-3.3248,-3.2827,-3.2418,-3.2094,-3.1886,-3.1705,-3.1705,-3.1705,-3.1705,-3.1705,-3.1705,-3.1713,-3.1698,-3.1681,-3.1691,-3.1686,-3.1645,-3.1618,-3.1618,-3.1618,-3.1509,-3.1236,-3.0877,-3.0383,-2.9777,-2.9034,-2.8442,-2.7949,-2.7577,-2.7337,-2.719,-2.719,-2.719,-2.719,-2.719,-2.719,-2.719,-2.719,-2.719,-3.0117,-2.9012,-2.7963,-2.8496,-2.7697,-2.6561,-2.6002,-2.5256,-2.4125,-2.2078,0.0,-2.0072,-1.9292,0.0,-2.0316,-2.1124,0.0,-2.3166,-2.3728,-2.4545,-2.4996,-2.4952,-2.5281,-2.5801,-2.6545,-2.6536,-2.6527,-2.6582,-2.6081,-2.5827,-2.6041,-2.5881,-2.5991,-2.6573,-2.6801,-2.6801,-2.6591,-2.6801,-2.6928,-2.6983,-2.7437,-2.7975,-2.8742,-2.9157,-3.0033,-3.1285,0.0,0.0,-3.2161,-3.3067,-3.2875,-3.2134,-3.3051,-3.34,-3.3511,-3.447,-3.4775,-3.4775,-3.4775,-3.4775,-3.4775,-3.4775,-3.4775,-3.4775,-3.4775,-3.4775,-3.4775,-3.4775,-3.4775,-3.4775,-3.4775,-3.4438,-3.4078,-3.4006,-3.331,-3.2671,-3.2527,-3.2058,-3.1705,-3.1705,-3.1705,-3.1705,-3.1705,-3.1705,-3.1705,-3.1705,-3.1692,-3.1683,-3.1683,-3.1617,-3.1618,-3.1618,-3.1618,-3.1618,-3.1618,-3.1236,-3.0849,-3.0574,-2.9777,-2.9044,-2.8519,-2.7985,-2.758,-2.7355,-2.7259,-2.719,-2.719,-2.719,-2.719,-2.719,-2.719,-2.719,-3.0046,-2.9566,-2.9714,-3.0753,-2.945,-2.811,-2.8849,-2.6452,0.0,0.0,0.0,-1.8824,-1.8923,-1.9127,0.0,-2.1809,0.0,0.0,0.0,0.0,-2.4541,0.0,0.0,0.0,0.0,0.0,0.0,0.0,0.0,0.0,-2.6481,-2.6481,-2.6454,-2.6591,-2.7863,-2.7936,-2.6591,-2.7927,-2.867,-2.8903,-2.9535,-3.074,-3.2386,-3.3053,-3.3561,-3.3916,-3.4113,0.0,-3.4264,-3.4458,-3.4413,-3.4274,-3.447,-3.4519,-3.4531,-3.4726,-3.4775,-3.4775,-3.4775,-3.4775,-3.4775,-3.4775,-3.4775,-3.4775,-3.4775,-3.4775,-3.4775,-3.4775,-3.4775,-3.4775,-3.4775,-3.4715,-3.4534,-3.4102,-3.385,-3.349,-3.2683,-3.2058,-3.1705,-3.1705,-3.1705,-3.1705,-3.1705,-3.1705,-3.1705,-3.1705,-3.1692,-3.1683,-3.1683,-3.1617,-3.1618,-3.1618,-3.1618,-3.1618,-3.1618,-3.1542,-3.1291,-3.086,-3.0486,-3.0057,-2.9551,-2.8678,-2.8153,-2.8105,-2.752,-2.719,-2.719,-2.719,-2.719,-2.719,-2.719,-2.719,-3.0524,-3.0197,-3.0535,-3.1414,-3.0349,-2.8788,-2.7732,0.0,0.0,0.0,0.0,-1.7384,-1.7294,0.0,0.0,0.0,0.0,0.0,0.0,0.0,0.0,0.0,0.0,0.0,0.0,0.0,0.0,0.0,0.0,0.0,-2.7644,-2.7654,-2.8022,-2.8881,-2.8971,-2.9115,-2.9332,-3.013,-3.0655,-3.0905,-3.1613,-3.2477,-3.3484,-3.4162,-3.5021,-3.6022,-3.6022,0.0,-3.5318,-3.5873,-3.5269,-3.4078,-3.4619,-3.4775,-3.4775,-3.4775,-3.4775,-3.4775,-3.4775,-3.4775,-3.4775,-3.4775,-3.4775,-3.4775,-3.4775,-3.4775,-3.4775,-3.4775,-3.4775,-3.4775,-3.4775,-3.4775,-3.4715,-3.4462,-3.4186,-3.3706,-3.2719,-3.2286,-3.201,-3.1765,-3.1705,-3.1705,-3.1705,-3.1705,-3.1705,-3.1705,-3.1692,-3.1683,-3.1683,-3.1617,-3.1618,-3.1618,-3.1618,-3.1618,-3.1618,-3.1618,-3.152,-3.1291,-3.091,-3.0525,-3.0197,-2.9455,-2.8847,-2.829,-2.7944,-2.7569,-2.719,-2.719,-2.719,-2.719,-2.719,-2.719,-3.1054,-3.0844,-3.1,-3.1454,-3.0854,-2.9397,-2.666,-2.4967,0.0,0.0,-1.6966,-1.611,-1.6289,0.0,0.0,0.0,0.0,0.0,0.0,0.0,0.0,0.0,0.0,0.0,0.0,0.0,0.0,0.0,0.0,0.0,-2.8988,-2.9008,-2.9639,-3.097,-3.0387,-3.0629,-3.1898,-3.2275,-3.2642,-3.29,-3.3583,-3.4166,-3.4751,-3.5405,-3.645,-3.7712,-3.7603,0.0,0.0,-3.6653,-3.5563,-3.3392,-3.4426,-3.4775,-3.4775,-3.4775,-3.4775,-3.4775,-3.4775,-3.4775,-3.4775,-3.4775,-3.4775,-3.4775,-3.4775,-3.4775,-3.4775,-3.4775,-3.4775,-3.4775,-3.4775,-3.4775,-3.4775,-3.4775,-3.4378,-3.3742,-3.2863,-3.2575,-3.2334,-3.1813,-3.1705,-3.1705,-3.1705,-3.1705,-3.1705,-3.1705,-3.1679,-3.17,-3.172,-3.1627,-3.1629,-3.1629,-3.1629,-3.1611,-3.1618,-3.1633,-3.1622,-3.1618,-3.1269,-3.0975,-3.074,-3.0226,-2.9564,-2.8813,-2.845,-2.8023,-2.7417,-2.7293,-2.719,-2.719,-2.719,-2.719,-3.1379,-3.1545,-3.1516,-3.1578,-3.1189,-3.0297,-2.8448,0.0,0.0,0.0,-1.6921,-1.5285,-1.7556,-1.7267,0.0,0.0,0.0,0.0,0.0,0.0,0.0,0.0,0.0,0.0,0.0,0.0,0.0,0.0,0.0,0.0,-3.0389,-3.0314,-3.0555,-3.098,-3.2508,-3.2889,-3.1909,-3.3571,-3.4558,-3.4868,-3.5435,-3.6655,-3.8368,-3.8938,-3.9183,-3.9107,-3.861,0.0,0.0,-3.5904,-3.4993,-3.3392,-3.4426,-3.4775,-3.4775,-3.4775,-3.4775,-3.4775,-3.4775,-3.4775,-3.4775,-3.4775,-3.4775,-3.4775,-3.4775,-3.4775,-3.4775,-3.4775,-3.4775,-3.4775,-3.4775,-3.4775,-3.4775,-3.4775,-3.4378,-3.3838,-3.3344,-3.2839,-3.2334,-3.1813,-3.1705,-3.1705,-3.1705,-3.1705,-3.1705,-3.1705,-3.1703,-3.1681,-3.1721,-3.1679,-3.1683,-3.1683,-3.1683,-3.1662,-3.1586,-3.1689,-3.1662,-3.1597,-3.1586,-3.1531,-3.1487,-3.08,-3.0396,-3.0285,-2.8981,-2.8277,-2.8187,-2.7542,-2.719,-2.719,-2.719,-2.719,-2.9049,-3.0081,-3.1152,-3.0827,-3.0635,-2.9569,-2.6019,0.0,0.0,-1.7913,-1.5709,-1.4739,-1.5816,-1.5914,-1.7016,0.0,0.0,0.0,0.0,0.0,0.0,0.0,0.0,0.0,0.0,0.0,0.0,0.0,0.0,0.0,-3.3429,-3.2676,-3.2754,-3.3879,-3.4206,-3.4681,-3.5301,-3.6056,-3.6642,-3.7097,-3.7467,-3.8178,-3.9102,-3.9374,-3.9239,-3.8812,-3.8409,0.0,0.0,-3.5466,-3.4569,-3.2524,-3.4174,-3.4775,-3.4775,-3.4775,-3.4775,-3.4775,-3.4775,-3.4775,-3.4775,-3.4775,-3.4775,-3.4775,-3.4775,-3.4775,-3.4775,-3.4775,-3.4775,-3.4775,-3.4775,-3.4775,-3.4775,-3.4775,-3.4619,-3.4246,-3.3464,-3.3128,-3.2719,-3.1874,-3.1705,-3.1705,-3.1705,-3.1705,-3.1705,-3.1705,-3.1701,-3.1691,-3.1716,-3.172,-3.1703,-3.1703,-3.1683,-3.1694,-3.1684,-3.1678,-3.1667,-3.1597,-3.1618,-3.1618,-3.1618,-3.1298,-3.0965,-3.0491,-2.9919,-2.9171,-2.8311,-2.8012,-2.7649,-2.719,-2.719,-2.719,-2.7646,-2.924,-3.083,-3.0356,-2.9674,-2.816,0.0,0.0,0.0,-1.6356,-1.4949,-1.4466,-1.4651,-1.4928,-1.6139,0.0,0.0,0.0,0.0,0.0,0.0,0.0,0.0,0.0,0.0,0.0,0.0,0.0,0.0,0.0,0.0,-3.491,-3.4986,-3.6013,-3.566,-3.6091,-3.7596,-3.7702,-3.7957,-3.8409,-3.8684,-3.8699,-3.8499,-3.8873,-3.8499,-3.7542,0.0,0.0,0.0,-3.5017,-3.4316,-3.2367,-3.4126,-3.4775,-3.4775,-3.4775,-3.4775,-3.4775,-3.4775,-3.4775,-3.4775,-3.4775,-3.4775,-3.4775,-3.4775,-3.4775,-3.4775,-3.4775,-3.4775,-3.4775,-3.4775,-3.4775,-3.4775,-3.4775,-3.4775,-3.4547,-3.3513,-3.3284,-3.2959,-3.1922,-3.1705,-3.1705,-3.1705,-3.1705,-3.1705,-3.1705,-3.1705,-3.1685,-3.1701,-3.1705,-3.1702,-3.1702,-3.1679,-3.1683,-3.1692,-3.1728,-3.166,-3.1586,-3.1618,-3.1618,-3.1618,-3.1618,-3.1352,-3.0861,-3.0634,-2.993,-2.8757,-2.845,-2.7978,-2.7325,-2.7259,-2.719,-2.7981,-2.9738,-3.0793,-3.0307,-2.8499,-2.6214,0.0,0.0,0.0,-1.6144,-1.5007,-1.4512,-1.4835,-1.4857,-1.5738,-1.8643,0.0,0.0,0.0,0.0,0.0,0.0,0.0,0.0,0.0,0.0,0.0,0.0,0.0,0.0,0.0,-3.6808,-3.697,-3.67,-3.697,-3.7239,-3.7596,-3.7838,-3.8145,-3.8409,-3.8684,-3.7993,-3.6579,-3.7916,-3.7331,0.0,0.0,0.0,0.0,-3.4607,-3.4222,-3.3368,-3.4414,-3.4775,-3.4775,-3.4775,-3.4775,-3.4775,-3.4775,-3.4775,-3.4775,-3.4775,-3.4775,-3.4775,-3.4775,-3.4775,-3.4775,-3.4775,-3.4775,-3.4775,-3.4775,-3.4775,-3.4775,-3.4775,-3.4775,-3.4547,-3.3513,-3.3284,-3.2959,-3.1922,-3.1705,-3.1705,-3.1705,-3.1705,-3.1705,-3.1705,-3.1717,-3.1675,-3.17,-3.1725,-3.1679,-3.1679,-3.1679,-3.168,-3.1674,-3.1692,-3.1683,-3.1615,-3.1618,-3.1618,-3.1618,-3.1618,-3.1618,-3.1607,-3.0855,-3.0274,-2.9788,-2.878,-2.8073,-2.7586,-2.7337,-2.719,-2.3578,-2.4623,-2.5371,-2.5584,-2.5024,-2.3756,-2.093,0.0,0.0,0.0,-1.4808,-1.4616,-1.4869,-1.4892,-1.5864,-1.893,0.0,0.0,0.0,0.0,0.0,0.0,0.0,0.0,0.0,0.0,0.0,0.0,0.0,0.0,0.0,-3.6867,-3.7139,-3.6958,-3.7453,-3.7773,-3.7892,-3.7986,-3.7964,-3.7861,-3.7926,-3.7288,-3.6,-3.6935,0.0,0.0,0.0,0.0,0.0,-3.4463,-3.4222,-3.3392,-3.4426,-3.4775,-3.4775,-3.4775,-3.4775,-3.4775,-3.4775,-3.4775,-3.4775,-3.4775,-3.4775,-3.4775,-3.4775,-3.4775,-3.4775,-3.4775,-3.4775,-3.4775,-3.4775,-3.4775,-3.4775,-3.4775,-3.4775,-3.4547,-3.3513,-3.3284,-3.2959,-3.1922,-3.1705,-3.1705,-3.1705,-3.1705,-3.1705,-3.1705,-3.1705,-3.1677,-3.1711,-3.169,-3.169,-3.169,-3.169,-3.1698,-3.1689,-3.1679,-3.1683,-3.1615,-3.1618,-3.1618,-3.1618,-3.1618,-3.1618,-3.1618,-3.1374,-3.0905,-3.0285,-2.9448,-2.8484,-2.7337,-2.7218,-2.719,0.0,-2.2025,-2.2783,-2.2564,-2.2065,0.0,0.0,0.0,0.0,0.0,0.0,0.0,0.0,0.0,0.0,0.0,0.0,0.0,0.0,0.0,0.0,0.0,0.0,0.0,0.0,0.0,0.0,0.0,0.0,0.0,0.0,-3.6685,-3.6892,-3.686,-3.7175,-3.7385,-3.7385,-3.7385,-3.7372,-3.7314,-3.7314,-3.6575,-3.529,-3.6124,0.0,0.0,0.0,0.0,0.0,-3.451,-3.4451,-3.3933,-3.4583,-3.4775,-3.4775,-3.4775,-3.4775,-3.4775,-3.4775,-3.4775,-3.4775,-3.4775,-3.4775,-3.4775,-3.4775,-3.4775,-3.4775,-3.4775,-3.4775,-3.4775,-3.4775,-3.4775,-3.4775,-3.4775,-3.4727,-3.4402,-3.3523,-3.322,-3.281,-3.1874,-3.1705,-3.1705,-3.1705,-3.1705,-3.1705,-3.1705,-3.1705,-3.1705,-3.1705,-3.1705,-3.1705,-3.1705,-3.1705,-3.1677,-3.1698,-3.1683,-3.1683,-3.1615,-3.1607,-3.1647,-3.1618,-3.1607,-3.1647,-3.1618,-3.1618,-3.1287,-3.0635,-2.9644,-2.8531,-2.7341,-2.7241,-2.719,0.0,0.0,0.0,0.0,0.0,0.0,0.0,0.0,0.0,0.0,0.0,0.0,0.0,0.0,0.0,0.0,0.0,0.0,0.0,0.0,0.0,0.0,0.0,0.0,0.0,0.0,0.0,0.0,0.0,0.0,0.0,-3.635,-3.6338,-3.629,-3.629,-3.6326,-3.6411,-3.6411,-3.6476,-3.6656,-3.6692,-3.5904,-3.4395,-3.5454,0.0,0.0,0.0,0.0,0.0,-3.4775,-3.4775,-3.4775,-3.4775,-3.4775,-3.4775,-3.4775,-3.4775,-3.4775,-3.4775,-3.4775,-3.4775,-3.4775,-3.4775,-3.4775,-3.4775,-3.4775,-3.4775,-3.4775,-3.4775,-3.4775,-3.4775,-3.4775,-3.4775,-3.4727,-3.4594,-3.4181,-3.3437,-3.301,-3.258,-3.1858,-3.1705,-3.1705,-3.1705,-3.1705,-3.1705,-3.1705,-3.1705,-3.1705,-3.1705,-3.1705,-3.1705,-3.1705,-3.1705,-3.1677,-3.1698,-3.1683,-3.166,-3.1622,-3.1645,-3.1651,-3.1604,-3.1684,-3.1673,-3.1618,-3.1618,-3.1367,-3.0893,-2.9453,-2.8353,-2.7643,-2.736,-2.719,-1.5237,0.0,-1.6567,-1.6496,-1.6261,-1.598,0.0,0.0,0.0,0.0,0.0,0.0,0.0,0.0,0.0,0.0,0.0,0.0,0.0,0.0,0.0,0.0,0.0,0.0,0.0,0.0,0.0,0.0,0.0,0.0,0.0,-3.5809,-3.5617,-3.5208,-3.5196,-3.5581,-3.6398,-3.6411,-3.6002,-3.5257,-3.5716,-3.486,-3.3003,-3.445,0.0,0.0,0.0,0.0,-3.4775,-3.4775,-3.4775,-3.4775,-3.4775,-3.4775,-3.4775,-3.4775,-3.4775,-3.4775,-3.4775,-3.4775,-3.4775,-3.4775,-3.4775,-3.4775,-3.4775,-3.4775,-3.4775,-3.4775,-3.4775,-3.4775,-3.4775,-3.4775,-3.4679,-3.4282,-3.4281,-3.4118,-3.3138,-3.288,-3.2625,-3.2047,-3.1805,-3.1705,-3.1705,-3.1705,-3.1705,-3.1705,-3.1705,-3.1705,-3.1705,-3.1705,-3.1705,-3.1705,-3.1705,-3.1677,-3.1698,-3.1683,-3.1718,-3.1689,-3.1616,-3.1649,-3.1695,-3.1627,-3.1611,-3.1618,-3.1618,-3.1254,-3.0574,-2.9678,-2.8858,-2.813,-2.7508,-2.719,-1.3328,-1.4021,-1.4988,-1.5417,-1.5104,-1.4935,0.0,0.0,0.0,0.0,0.0,0.0,0.0,0.0,0.0,0.0,0.0,0.0,0.0,0.0,0.0,0.0,0.0,0.0,0.0,0.0,0.0,0.0,0.0,0.0,0.0,-3.5256,-3.5124,-3.4787,-3.4775,-3.51,-3.5677,-3.5677,-3.5268,-3.4426,-3.5004,-3.4535,-3.3236,-3.433,-3.4523,0.0,0.0,0.0,-3.4739,-3.4318,-3.4402,-3.4775,-3.4775,-3.4775,-3.4775,-3.4775,-3.4775,-3.4775,-3.4775,-3.4775,-3.4775,-3.4775,-3.4775,-3.4775,-3.4775,-3.4775,-3.4775,-3.4775,-3.4775,-3.4727,-3.4486,-3.4414,-3.4294,-3.3813,-3.3687,-3.3487,-3.2916,-3.269,-3.2467,-3.2086,-3.1893,-3.1805,-3.1705,-3.1705,-3.1705,-3.1705,-3.1705,-3.1705,-3.1705,-3.1705,-3.1705,-3.1705,-3.1705,-3.1717,-3.1693,-3.1716,-3.1697,-3.1719,-3.1688,-3.1737,-3.1988,-3.1786,-3.1623,-3.1618,-3.1823,-3.155,-3.069,-3.0079,-2.9319,-2.8452,-2.7584,-2.719,-1.268,-1.3809,-1.5239,-1.5753,-1.4898,-1.4509,-1.6681,0.0,0.0,0.0,0.0,0.0,0.0,0.0,0.0,0.0,0.0,0.0,0.0,0.0,0.0,0.0,0.0,0.0,0.0,0.0,0.0,0.0,0.0,0.0,0.0,-3.4775,-3.4775,-3.4775,-3.4775,-3.4775,-3.4775,-3.4775,-3.451,-3.4006,-3.4522,-3.4498,-3.4006,-3.4534,-3.4775,-3.4727,0.0,0.0,-3.4715,-3.3885,-3.4042,-3.4775,-3.4775,-3.4775,-3.4775,-3.4775,-3.4775,-3.4775,-3.4775,-3.4775,-3.4775,-3.4775,-3.4775,-3.4763,-3.4679,-3.4667,-3.4643,-3.4607,-3.4595,-3.4534,-3.4018,-3.3874,-3.3754,-3.3296,-3.2998,-3.2759,-3.2686,-3.2531,-3.23,-3.2038,-3.1994,-3.1937,-3.1705,-3.1705,-3.1705,-3.1705,-3.1705,-3.1705,-3.1705,-3.1705,-3.1705,-3.1705,-3.1705,-3.1678,-3.1691,-3.1714,-3.1704,-3.1683,-3.1684,-3.1901,-3.2297,-3.1988,-3.1777,-3.1699,-3.2066,-3.1906,-3.1146,-3.0424,-2.9636,-2.8791,-2.7713,-2.719,-1.3103,-1.3922,-1.4797,-1.5284,-1.4538,-1.4177,0.0,0.0,0.0,0.0,0.0,0.0,0.0,0.0,0.0,0.0,0.0,0.0,0.0,0.0,0.0,0.0,0.0,0.0,0.0,0.0,0.0,0.0,0.0,0.0,0.0,-3.4775,-3.4775,-3.4775,-3.4775,-3.4775,-3.4775,-3.4775,-3.451,-3.4006,-3.4522,-3.4498,-3.4006,-3.4534,-3.4775,-3.4775,0.0,-3.4679,-3.4763,-3.4607,-3.4679,-3.4775,-3.4775,-3.4775,-3.4775,-3.4775,-3.4775,-3.4775,-3.4775,-3.4775,-3.4775,-3.4775,-3.4775,-3.4691,-3.4246,-3.4114,-3.403,-3.3645,-3.3837,-3.3994,-3.3537,-3.3404,-3.3272,-3.2743,-3.272,-3.2661,-3.2212,-3.2274,-3.23,-3.2038,-3.1994,-3.1937,-3.1705,-3.1705,-3.1705,-3.1705,-3.1705,-3.1705,-3.1705,-3.1705,-3.1705,-3.1705,-3.1705,-3.1698,-3.1678,-3.1693,-3.1693,-3.1716,-3.1682,-3.172,-3.178,-3.2117,-3.2314,-3.2269,-3.1924,-3.188,-3.2146,-3.0415,-2.9452,-2.9248,-2.783,-2.719,-1.2993,-1.3788,-1.4975,-1.6572,-1.6158,-1.6199,0.0,0.0,0.0,0.0,0.0,0.0,0.0,0.0,0.0,0.0,0.0,0.0,0.0,0.0,0.0,0.0,0.0,0.0,0.0,0.0,0.0,0.0,0.0,0.0,0.0,0.0,-3.4775,-3.4775,-3.4775,-3.4775,-3.4775,-3.4775,-3.451,-3.4006,-3.4522,-3.4498,-3.4006,-3.4534,-3.4775,-3.4751,0.0,-3.4318,-3.4787,-3.4222,-3.433,-3.4775,-3.4775,-3.4775,-3.4775,-3.4775,-3.4775,-3.4775,-3.4775,-3.4595,-3.4354,-3.4354,-3.4222,-3.3945,-3.3705,-3.3633,-3.3525,-3.3008,-3.3236,-3.3525,-3.2996,-3.2863,-3.2719,-3.2178,-3.2224,-3.2342,-3.223,-3.23,-3.2344,-3.2257,-3.2081,-3.1937,-3.1705,-3.1705,-3.1705,-3.1705,-3.1705,-3.1705,-3.1705,-3.1705,-3.1705,-3.1705,-3.1705,-3.1675,-3.171,-3.1715,-3.1707,-3.1716,-3.2254,-3.2275,-3.1738,-3.2426,-3.2684,-3.242,-3.2432,-3.2432,-3.2409,-3.0957,-2.9954,-2.936,-2.7875,-2.7353,-1.289,-1.3643,-1.502,-1.7467,0.0,-1.7725,-2.2447,0.0,0.0,0.0,0.0,0.0,0.0,0.0,0.0,0.0,0.0,0.0,0.0,0.0,0.0,0.0,0.0,0.0,0.0,0.0,0.0,0.0,0.0,0.0,0.0,0.0,-3.4775,-3.4775,-3.4775,-3.4775,-3.4775,-3.4775,-3.457,-3.4186,-3.4583,-3.457,-3.4186,-3.4595,-3.4775,-3.4787,-3.3994,-3.4102,-3.4715,-3.397,-3.4114,-3.4775,-3.4775,-3.4775,-3.4775,-3.4775,-3.4703,-3.4595,-3.4595,-3.4258,-3.3826,-3.3826,-3.3609,-3.3272,-3.314,-3.3104,-3.2996,-3.2454,-3.2599,-3.2815,-3.2406,-3.2298,-3.2235,-3.1858,-3.1893,-3.2038,-3.2257,-3.2344,-3.2344,-3.2257,-3.2125,-3.1937,-3.1705,-3.1705,-3.1705,-3.1705,-3.1705,-3.1705,-3.1705,-3.1705,-3.1705,-3.1705,-3.1705,-3.1705,-3.1705,-3.1692,-3.1693,-3.1707,-3.2577,-3.2747,-3.1921,-3.2707,-3.3097,-3.2773,-3.3035,-3.2996,-3.2572,-3.1379,-3.0306,-2.936,-2.7875,-2.7394,-1.3058,-1.3512,-1.4472,-1.6575,0.0,0.0,-2.2383,0.0,0.0,0.0,0.0,0.0,0.0,0.0,0.0,0.0,0.0,0.0,0.0,0.0,0.0,0.0,0.0,0.0,0.0,0.0,0.0,0.0,0.0,0.0,0.0,0.0,0.0,-3.4775,-3.4775,-3.4775,-3.4775,-3.4775,-3.4763,-3.4727,-3.4763,-3.4763,-3.4727,-3.4763,-3.4775,-3.4823,-3.4703,-3.4715,-3.4775,-3.4703,-3.4715,-3.4775,-3.4775,-3.4775,-3.4775,-3.4775,-3.4474,-3.4054,-3.4054,-3.3765,-3.3344,-3.3344,-3.332,-3.32,-3.2707,-3.2563,-3.2442,-3.1934,-3.1801,-3.1813,-3.1777,-3.1765,-3.1797,-3.195,-3.1994,-3.1994,-3.2038,-3.2213,-3.2257,-3.1837,-3.1893,-3.1937,-3.1705,-3.1705,-3.1705,-3.1705,-3.1705,-3.1705,-3.1705,-3.1705,-3.1705,-3.1705,-3.1705,-3.1705,-3.1705,-3.1701,-3.1693,-3.1701,-3.2213,-3.2536,-3.2441,-3.2952,-3.3396,-3.3892,-3.3446,-3.3197,-3.3147,-3.1203,-2.9943,-2.936,-2.7875,-2.7231,-1.3094,-1.3736,-1.5168,-1.8327,0.0,0.0,0.0,0.0,0.0,0.0,0.0,0.0,0.0,0.0,0.0,0.0,0.0,0.0,0.0,0.0,0.0,0.0,0.0,0.0,0.0,0.0,0.0,0.0,0.0,0.0,0.0,0.0,0.0,-3.4775,-3.4775,-3.4775,-3.4775,-3.4775,-3.4775,-3.4775,-3.4775,-3.4775,-3.4775,-3.4775,-3.4775,-3.4775,-3.4775,-3.4775,-3.4775,-3.4775,-3.4775,-3.4751,-3.4414,-3.4294,-3.4258,-3.3982,-3.3753,-3.3573,-3.3573,-3.3236,-3.2803,-3.2803,-3.2563,-3.2355,-3.2454,-3.2503,-3.2527,-3.2647,-3.2671,-3.2599,-3.2262,-3.197,-3.1789,-3.2195,-3.2148,-3.1994,-3.1994,-3.2081,-3.2081,-3.1937,-3.1849,-3.1805,-3.1705,-3.1705,-3.1705,-3.1705,-3.1705,-3.1705,-3.1705,-3.1705,-3.1705,-3.1705,-3.1705,-3.1705,-3.1705,-3.1708,-3.1842,-3.2178,-3.2679,-3.2841,-3.2536,-3.3293,-3.3793,-3.3991,-3.3793,-3.3545,-3.3197,-3.153,-3.0261,-2.936,-2.8203,-2.7638,-1.3592,-1.4366,-1.6025,0.0,0.0,0.0,0.0,0.0,0.0,0.0,0.0,0.0,0.0,0.0,0.0,0.0,0.0,0.0,0.0,0.0,0.0,0.0,0.0,0.0,0.0,0.0,0.0,0.0,0.0,0.0,0.0,0.0,0.0,0.0,-3.4775,-3.4775,-3.4775,-3.4775,-3.4775,-3.4775,-3.4775,-3.4775,-3.4775,-3.4775,-3.4775,-3.4775,-3.4775,-3.4775,-3.4775,-3.4775,-3.4679,-3.4486,-3.3958,-3.3801,-3.3765,-3.3416,-3.3188,-3.3044,-3.3044,-3.2683,-3.2262,-3.2442,-3.2238,-3.2034,-3.2587,-3.2755,-3.2827,-3.3188,-3.3284,-3.3236,-3.3044,-3.2454,-3.2066,-3.2485,-3.2305,-3.1994,-3.1994,-3.1994,-3.1981,-3.1937,-3.1805,-3.1705,-3.1705,-3.1705,-3.1705,-3.1705,-3.1705,-3.1705,-3.1705,-3.1705,-3.1705,-3.1705,-3.1705,-3.1705,-3.1705,-3.1705,-3.1946,-3.2466,-3.2996,-3.3204,-3.296,-3.3618,-3.4089,-3.4237,-3.4237,-3.3892,-3.3197,-3.1786,-3.0547,-2.936,-2.8407,-2.7871,-1.4582,-1.5397,0.0,0.0,0.0,0.0,0.0,0.0,0.0,0.0,0.0,0.0,0.0,0.0,0.0,0.0,0.0,0.0,0.0,0.0,0.0,0.0,0.0,0.0,0.0,0.0,0.0,0.0,0.0,0.0,0.0,0.0,0.0,0.0,-3.4775,-3.4775,-3.4775,-3.4775,-3.4775,-3.4775,-3.4775,-3.4775,-3.4775,-3.4775,-3.4775,-3.4775,-3.4775,-3.4775,-3.4775,-3.4763,-3.445,-3.3934,-3.3477,-3.3284,-3.3284,-3.3272,-3.2947,-3.2503,-3.2503,-3.2142,-3.1813,-3.2322,-3.2515,-3.2611,-3.314,-3.3296,-3.3296,-3.3308,-3.3308,-3.3416,-3.3874,-3.3284,-3.2548,-3.275,-3.2394,-3.1994,-3.1994,-3.1994,-3.1937,-3.1749,-3.1705,-3.1705,-3.1705,-3.1705,-3.1705,-3.1705,-3.1705,-3.1705,-3.1705,-3.1705,-3.1705,-3.1705,-3.1705,-3.1705,-3.1705,-3.1705,-3.1946,-3.2466,-3.2996,-3.3513,-3.397,-3.4014,-3.4237,-3.4775,-3.4775,-3.4286,-3.3197,-3.1993,-3.0709,-2.9371,-2.858,-2.7856,-1.5516,0.0,0.0,0.0,0.0,0.0,0.0,0.0,0.0,0.0,0.0,0.0,0.0,0.0,0.0,0.0,0.0,0.0,0.0,0.0,0.0,0.0,0.0,0.0,0.0,0.0,0.0,0.0,0.0,0.0,0.0,0.0,0.0,0.0,-3.4628,-3.4531,-3.4531,-3.4396,-3.431,-3.431,-3.431,-3.4494,-3.4775,-3.4775,-3.4775,-3.4775,-3.4775,-3.457,-3.4198,-3.3897,-3.3657,-3.3464,-3.2935,-3.2743,-3.2683,-3.2286,-3.2298,-3.2503,-3.2503,-3.2635,-3.2827,-3.2996,-3.3056,-3.3152,-3.3657,-3.3766,-3.3897,-3.427,-3.4378,-3.4402,-3.451,-3.3825,-3.3102,-3.3136,-3.2726,-3.2244,-3.189,-3.1805,-3.1749,-3.1705,-3.1705,-3.1705,-3.1705,-3.1705,-3.1705,-3.1705,-3.1705,-3.1705,-3.1705,-3.1705,-3.1705,-3.1705,-3.1705,-3.1705,-3.1705,-3.1705,-3.2114,-3.2996,-3.32,-3.3513,-3.397,-3.4353,-3.4628,-3.4775,-3.4775,-3.4286,-3.3197,-3.2336,-3.1214,-2.9875,-2.9423,-2.8789,-1.711,0.0,0.0,0.0,0.0,0.0,0.0,0.0,0.0,0.0,0.0,0.0,0.0,0.0,0.0,0.0,0.0,0.0,0.0,0.0,0.0,0.0,0.0,0.0,0.0,0.0,0.0,0.0,0.0,0.0,0.0,0.0,0.0,0.0,-3.4396,-3.4298,-3.4298,-3.4162,-3.4125,-3.4125,-3.4125,-3.4203,-3.439,-3.4545,-3.4521,-3.4366,-3.4258,-3.4042,-3.3705,-3.3188,-3.2971,-3.2947,-3.2623,-3.2503,-3.2491,-3.2358,-3.2527,-3.2815,-3.2815,-3.302,-3.332,-3.3525,-3.3585,-3.3681,-3.415,-3.4306,-3.4366,-3.4691,-3.4631,-3.451,-3.4727,-3.4066,-3.3284,-3.3284,-3.2719,-3.207,-3.1789,-3.1705,-3.1705,-3.1705,-3.1705,-3.1705,-3.1705,-3.1705,-3.1705,-3.1705,-3.1705,-3.1705,-3.1705,-3.1705,-3.1705,-3.1705,-3.1705,-3.1705,-3.1705,-3.191,-3.2358,-3.3236,-3.3477,-3.3813,-3.4282,-3.4619,-3.4775,-3.4775,-3.4775,-3.4289,-3.3195,-3.2583,-3.1445,-2.9984,-2.9826,-2.9277,0.0,0.0,0.0,0.0,0.0,0.0,0.0,0.0,0.0,0.0,0.0,0.0,0.0,0.0,0.0,0.0,0.0,0.0,0.0,0.0,0.0,0.0,0.0,0.0,0.0,0.0,0.0,0.0,0.0,0.0,0.0,0.0,0.0,-3.4384,-3.4162,-3.4075,-3.4075,-3.4026,-3.4026,-3.4026,-3.4028,-3.3856,-3.366,-3.4111,-3.4088,-3.3637,-3.3347,-3.3224,-3.3176,-3.2647,-3.243,-3.243,-3.243,-3.243,-3.2491,-3.302,-3.3248,-3.3296,-3.3344,-3.3392,-3.3501,-3.391,-3.4066,-3.415,-3.4631,-3.4775,-3.4775,-3.4775,-3.4438,-3.4174,-3.4655,-3.4102,-3.3344,-3.3296,-3.2503,-3.1765,-3.1717,-3.1705,-3.1705,-3.1705,-3.1705,-3.1705,-3.1705,-3.1705,-3.1705,-3.1705,-3.1705,-3.1705,-3.1705,-3.1705,-3.1705,-3.1705,-3.1705,-3.1705,-3.1705,-3.2175,-3.2716,-3.3294,-3.3717,-3.4234,-3.4763,-3.4775,-3.4775,-3.4775,-3.4775,-3.428,-3.3216,-3.2795,-3.1643,-2.9843,-2.9962,-2.9414,0.0,0.0,0.0,0.0,0.0,0.0,0.0,0.0,0.0,0.0,0.0,0.0,0.0,0.0,0.0,0.0,0.0,0.0,0.0,0.0,0.0,0.0,0.0,0.0,0.0,0.0,0.0,0.0,0.0,0.0,0.0,0.0,0.0,-3.4162,-3.3927,-3.3779,-3.3779,-3.358,-3.3481,0.0,-3.3273,-3.3126,-3.307,-3.361,-3.366,-3.3382,-3.2899,-3.2671,-3.2623,-3.207,-3.1886,-3.1886,-3.1886,-3.1886,-3.1958,-3.2466,-3.2935,-3.3344,-3.3741,-3.415,-3.4511,-3.4583,-3.4607,-3.4631,-3.4751,-3.4775,-3.4775,-3.4775,-3.4703,-3.4631,-3.4751,-3.4306,-3.3777,-3.3392,-3.2791,-3.2202,-3.1801,-3.1705,-3.1705,-3.1705,-3.1705,-3.1705,-3.1705,-3.1705,-3.1705,-3.1705,-3.1705,-3.1705,-3.1705,-3.1705,-3.1705,-3.1705,-3.1849,-3.1937,-3.1937,-3.2235,-3.2755,-3.3489,-3.3647,-3.4038,-3.4787,-3.4775,-3.4775,-3.4775,-3.4775,-3.428,-3.3216,-3.3149,-3.2124,-3.026,-3.0296,-2.9808,0.0,0.0,0.0,0.0,0.0,0.0,0.0,0.0,0.0,0.0,0.0,0.0,0.0,0.0,0.0,0.0,0.0,0.0,0.0,0.0,0.0,0.0,0.0,0.0,0.0,0.0,0.0,0.0,0.0,0.0,0.0,-3.415,-3.4014,-3.3927,-3.3534,-3.3319,-3.3319,-3.3075,-3.2911,-3.2899,-3.2777,-3.2652,-3.2547,-3.2829,-3.292,-3.2887,-3.2334,-3.2094,-3.2082,-3.1837,-3.1705,-3.1741,-3.1961,-3.207,-3.213,-3.2683,-3.3056,-3.332,-3.3585,-3.3861,-3.409,-3.409,-3.409,-3.409,-3.409,-3.4258,-3.4402,-3.4402,-3.4402,-3.4462,-3.4715,-3.4018,-3.3296,-3.3296,-3.2887,-3.2346,-3.1837,-3.1705,-3.1705,-3.1705,-3.1705,-3.1705,-3.1705,-3.1705,-3.1705,-3.1705,-3.1705,-3.1705,-3.1705,-3.1705,-3.1705,-3.1705,-3.1893,-3.1994,-3.1994,-3.2489,-3.297,-3.3399,-3.3634,-3.4042,-3.457,-3.4595,-3.4667,-3.4823,-3.4775,-3.4306,-3.3244,-3.3276,-3.2244,-3.0281,-3.0356,-2.989,0.0,0.0,0.0,0.0,0.0,0.0,0.0,0.0,0.0,0.0,0.0,0.0,0.0,0.0,0.0,0.0,0.0,0.0,0.0,0.0,0.0,0.0,0.0,0.0,0.0,0.0,0.0,0.0,0.0,0.0,-3.3903,-3.3658,-3.3511,-3.3511,-3.3054,-3.2833,-3.2833,-3.2605,-3.2488,-3.2488,-3.2442,-3.2298,-3.2039,-3.2039,-3.2153,-3.2334,-3.191,-3.1705,-3.1705,-3.1705,-3.1705,-3.1753,-3.2178,-3.2358,-3.2418,-3.2959,-3.3152,-3.3164,-3.326,-3.3284,-3.3284,-3.3284,-3.3284,-3.3284,-3.3284,-3.3585,-3.3886,-3.397,-3.3934,-3.3982,-3.451,-3.3669,-3.2719,-3.3068,-3.2815,-3.2346,-3.1837,-3.1705,-3.1705,-3.1705,-3.1705,-3.1705,-3.1705,-3.1705,-3.1705,-3.1705,-3.1705,-3.1705,-3.1705,-3.1705,-3.1705,-3.1705,-3.1937,-3.2081,-3.2081,-3.2749,-3.319,-3.3231,-3.3662,-3.4063,-3.431,-3.4384,-3.4485,-3.4739,-3.4787,-3.4318,-3.3284,-3.3284,-3.2238,-3.0218,-3.0302,-2.9816,0.0,0.0,0.0,0.0,0.0,0.0,0.0,0.0,0.0,0.0,0.0,0.0,0.0,0.0,0.0,0.0,0.0,0.0,0.0,0.0,0.0,0.0,0.0,0.0,0.0,0.0,0.0,0.0,0.0,0.0,-3.3078,-3.3019,-3.2889,-3.2688,-3.2582,-3.2535,-3.2535,-3.2524,-3.2488,-3.2477,-3.2239,-3.2015,-3.1769,-3.1769,-3.1769,-3.1813,-3.1741,-3.1705,-3.1705,-3.1705,-3.1705,-3.1717,-3.1789,-3.1825,-3.1886,-3.2394,-3.2611,-3.2671,-3.3128,-3.3284,-3.3284,-3.3284,-3.3284,-3.3284,-3.3284,-3.3332,-3.3477,-3.3874,-3.3729,-3.3501,-3.397,-3.3669,-3.308,-3.2695,-3.2551,-3.2346,-3.1837,-3.1705,-3.1705,-3.1705,-3.1705,-3.1705,-3.1705,-3.1705,-3.1705,-3.1705,-3.1705,-3.1705,-3.1705,-3.1705,-3.1705,-3.1705,-3.2069,-3.2356,-3.2356,-3.2798,-3.3208,-3.3461,-3.3516,-3.3711,-3.405,-3.4283,-3.441,-3.4435,-3.4691,-3.4318,-3.3284,-3.3284,-3.243,-3.0802,-3.0344,-2.9802,0.0,0.0,0.0,0.0,0.0,0.0,0.0,0.0,0.0,0.0,0.0,0.0,0.0,0.0,0.0,0.0,0.0,0.0,0.0,0.0,0.0,0.0,0.0,0.0,0.0,0.0,0.0,0.0,0.0,-3.2958,-3.2677,-3.2677,-3.263,-3.2488,-3.2323,-3.2263,-3.2263,-3.2116,-3.2053,-3.2053,-3.195,-3.18,-3.1705,-3.1705,-3.1705,-3.1705,-3.1705,-3.1705,-3.1705,-3.1705,-3.1705,-3.1705,-3.1705,-3.1705,-3.1741,-3.1982,-3.2034,-3.207,-3.2343,-3.2415,-3.2415,-3.2415,-3.2415,-3.2415,-3.2415,-3.2599,-3.2959,-3.3477,-3.3669,-3.3765,-3.3934,-3.3669,-3.3152,-3.2623,-3.2262,-3.2006,-3.1765,-3.1705,-3.1705,-3.1705,-3.1705,-3.1705,-3.1705,-3.1705,-3.1705,-3.1705,-3.1705,-3.1705,-3.1705,-3.1705,-3.1705,-3.1705,-3.2125,-3.24,-3.24,-3.2822,-3.3138,-3.3289,-3.3302,-3.342,-3.3699,-3.381,-3.4032,-3.4408,-3.4655,-3.4318,-3.3284,-3.3284,-3.2454,-3.091,-3.0338,-2.9797,0.0,0.0,0.0,0.0,0.0,0.0,0.0,0.0,0.0,0.0,0.0,0.0,0.0,0.0,0.0,0.0,0.0,0.0,0.0,0.0,0.0,0.0,0.0,0.0,0.0,0.0,0.0,0.0,0.0,-3.2911,-3.2724,-3.2547,-3.2476,-3.2476,-3.2174,-3.1979,-3.1979,-3.1809,-3.1705,-3.1705,-3.1705,-3.1705,-3.1705,-3.1705,-3.1705,-3.1705,-3.1705,-3.1705,-3.1705,-3.1705,-3.1705,-3.1705,-3.1705,-3.1705,-3.1705,-3.1705,-3.1705,-3.1705,-3.1705,-3.1705,-3.1705,-3.1705,-3.1705,-3.1705,-3.1705,-3.1994,-3.2394,-3.2935,-3.3356,-3.3634,-3.3766,-3.3573,-3.3152,-3.2623,-3.2178,-3.1886,-3.1741,-3.1705,-3.1753,-3.1962,-3.1986,-3.2035,-3.218,-3.2083,-3.1954,-3.1922,-3.1801,-3.1705,-3.1705,-3.1705,-3.1705,-3.1705,-3.2125,-3.24,-3.24,-3.2822,-3.3124,-3.3124,-3.3124,-3.317,-3.3395,-3.3456,-3.3691,-3.4181,-3.44,-3.4101,-3.3284,-3.3152,-3.2394,-3.1103,-3.053,-3.0001,0.0,0.0,0.0,0.0,0.0,0.0,0.0,0.0,0.0,0.0,0.0,0.0,0.0,0.0,0.0,0.0,0.0,0.0,0.0,0.0,0.0,0.0,0.0,0.0,0.0,0.0,0.0,0.0,0.0,-3.3284,-3.3238,-3.2769,-3.2493,-3.2493,-3.1997,-3.1709,-3.1709,-3.1717,-3.1705,-3.1705,-3.1705,-3.1705,-3.1705,-3.1705,-3.1705,-3.1705,-3.1705,-3.1705,-3.1705,-3.1705,-3.1705,-3.1705,-3.1705,-3.1705,-3.1705,-3.1705,-3.1705,-3.1705,-3.1705,-3.1705,-3.1705,-3.1705,-3.1705,-3.1705,-3.1705,-3.1729,-3.1862,-3.2382,-3.2563,-3.2695,-3.32,-3.3308,-3.3152,-3.2623,-3.2478,-3.231,-3.1825,-3.1705,-3.1894,-3.2601,-3.2743,-3.2913,-3.3402,-3.3095,-3.2665,-3.25,-3.2054,-3.1705,-3.1705,-3.1705,-3.1705,-3.1705,-3.2125,-3.24,-3.24,-3.2822,-3.3124,-3.3124,-3.3124,-3.3093,-3.3119,-3.3345,-3.3511,-3.3573,-3.3619,-3.3552,-3.3284,-3.2791,-3.2226,-3.1657,-3.1127,-3.0555,0.0,0.0,0.0,0.0,0.0,0.0,0.0,0.0,0.0,0.0,0.0,0.0,0.0,0.0,0.0,0.0,0.0,0.0,0.0,0.0,0.0,0.0,0.0,0.0,0.0,0.0,0.0,0.0,0.0,0.0,-3.4862,-3.2902,-3.2262,-3.3451,-3.2488,-3.1875,-3.1717,-3.1705,-3.1705,-3.1705,-3.1705,-3.1705,-3.1705,-3.1705,-3.1705,-3.1705,-3.1705,-3.1705,-3.1705,-3.1705,-3.1705,-3.1705,-3.1705,-3.1705,-3.1705,-3.1705,-3.1705,-3.1705,-3.1705,-3.1705,-3.1705,-3.1705,-3.1705,-3.1705,-3.1705,-3.1705,-3.1825,-3.2346,-3.2743,-3.3056,-3.3236,-3.3525,-3.3645,-3.33,-3.3339,-3.3414,-3.3207,-3.3158,-3.3264,-3.3539,-3.3575,-3.3637,-3.3799,-3.328,-3.2791,-3.2713,-3.2131,-3.1705,-3.1705,-3.1705,-3.1705,-3.1705,-3.2125,-3.24,-3.24,-3.2822,-3.3124,-3.3124,-3.3124,-3.3124,-3.3124,-3.317,-3.3271,-3.3321,-3.2995,-3.2869,-3.2995,-3.2678,-3.2214,-3.1693,-3.1163,-3.0814,-1.5918,0.0,0.0,0.0,0.0,0.0,0.0,0.0,0.0,0.0,0.0,0.0,0.0,0.0,0.0,0.0,0.0,0.0,0.0,0.0,0.0,0.0,0.0,0.0,0.0,0.0,0.0,0.0,0.0,0.0,-3.616,-3.3855,-3.2774,-3.3455,-3.2669,-3.2103,-3.1848,-3.1836,-3.1797,-3.1705,-3.1705,-3.1705,-3.1705,-3.1705,-3.1705,-3.1705,-3.1705,-3.1705,-3.1705,-3.1705,-3.1705,-3.1705,-3.1705,-3.1705,-3.1705,-3.1705,-3.1705,-3.1705,-3.1705,-3.1705,-3.1705,-3.1705,-3.1705,-3.1705,-3.1705,-3.1837,-3.2022,-3.2394,-3.2996,-3.3537,-3.3537,-3.3789,-3.3958,-3.3784,-3.4025,-3.429,-3.429,-3.4142,-3.4056,-3.4333,-3.4416,-3.4431,-3.4524,-3.3808,-3.3149,-3.298,-3.224,-3.1705,-3.1705,-3.1705,-3.1705,-3.1705,-3.2125,-3.24,-3.24,-3.2822,-3.3124,-3.3124,-3.3124,-3.3124,-3.3124,-3.3124,-3.3083,-3.3049,-3.2616,-3.244,-3.2516,-3.2349,-3.2034,-3.1705,-3.1344,-3.1091,0.0,0.0,0.0,0.0,0.0,0.0,0.0,0.0,0.0,0.0,0.0,0.0,0.0,0.0,0.0,0.0,0.0,0.0,0.0,0.0,0.0,0.0,0.0,0.0,0.0,0.0,0.0,0.0,0.0,-3.7343,-3.715,-3.5665,-3.4131,-3.2571,-3.2559,-3.2429,-3.216,-3.2148,-3.2022,-3.1773,-3.1773,-3.1729,-3.1705,-3.1705,-3.1705,-3.1705,-3.1705,-3.1705,-3.1705,-3.1705,-3.1705,-3.1705,-3.1705,-3.1705,-3.1705,-3.1705,-3.1705,-3.1705,-3.1705,-3.1717,-3.1729,-3.1729,-3.1741,-3.1753,-3.1753,-3.2094,-3.2527,-3.2527,-3.326,-3.3994,-3.4006,-3.4018,-3.4018,-3.4018,-3.4445,-3.4834,-3.4834,-3.4438,-3.4308,-3.5071,-3.5217,-3.531,-3.557,-3.4699,-3.3836,-3.3377,-3.2403,-3.1705,-3.1705,-3.1705,-3.1705,-3.1705,-3.2125,-3.24,-3.24,-3.2822,-3.3124,-3.3124,-3.3124,-3.3124,-3.3124,-3.3081,-3.2939,-3.2711,-3.2475,-3.2257,-3.1994,-3.1805,-3.1705,-3.1705,-3.1705,-3.1428,-1.4699,0.0,0.0,0.0,0.0,0.0,0.0,0.0,0.0,0.0,0.0,0.0,0.0,0.0,0.0,0.0,0.0,0.0,0.0,0.0,0.0,0.0,0.0,0.0,0.0,0.0,0.0,0.0,-3.7615,-3.7542,-3.8107,-3.6705,-3.4938,-3.286,-3.3482,-3.3736,-3.3466,-3.3466,-3.3334,-3.3074,-3.3074,-3.2612,-3.1705,-3.1705,-3.1705,-3.1705,-3.1705,-3.1705,-3.1705,-3.1705,-3.1705,-3.1705,-3.1705,-3.1705,-3.1705,-3.1705,-3.1705,-3.1705,-3.1705,-3.1925,-3.2274,-3.2274,-3.2527,-3.2839,-3.2839,-3.2947,-3.3068,-3.3068,-3.3537,-3.4078,-3.4462,-3.4715,-3.486,-3.486,-3.5304,-3.5697,-3.5697,-3.569,-3.5803,-3.6,-3.6085,-3.6041,-3.593,-3.4839,-3.3882,-3.3584,-3.2494,-3.1705,-3.1705,-3.1705,-3.1705,-3.1705,-3.2125,-3.24,-3.24,-3.2822,-3.3124,-3.3124,-3.3124,-3.3124,-3.3124,-3.2896,-3.2723,-3.2475,-3.2257,-3.1981,-3.1793,-3.1705,-3.1705,-3.1705,-3.1705,-3.1428,-1.4808,0.0,0.0,0.0,0.0,0.0,0.0,-1.9597,0.0,0.0,0.0,0.0,0.0,0.0,0.0,0.0,0.0,0.0,0.0,0.0,0.0,0.0,0.0,0.0,0.0,0.0,0.0,-3.8331,-3.7903,-3.7614,-3.7471,-3.6632,-3.5361,-3.3599,-3.4137,-3.4145,-3.3469,-3.3469,-3.3154,-3.2641,-3.2641,-3.2305,-3.1705,-3.1705,-3.1705,-3.1705,-3.1572,-3.1617,-3.1705,-3.1572,-3.1617,-3.1705,-3.1705,-3.1705,-3.1705,-3.1705,-3.1705,-3.1705,-3.1705,-3.2034,-3.2503,-3.2503,-3.2851,-3.3284,-3.3284,-3.344,-3.3609,-3.3609,-3.397,-3.439,-3.4703,-3.4932,-3.503,-3.503,-3.5368,-3.5668,-3.5668,-3.5955,-3.6275,-3.6358,-3.6405,-3.6323,-3.6063,-3.4885,-3.3915,-3.363,-3.2527,-3.1705,-3.1705,-3.1705,-3.1705,-3.1705,-3.2038,-3.2257,-3.24,-3.2736,-3.2982,-3.3081,-3.3124,-3.3038,-3.2939,-3.2766,-3.255,-3.2257,-3.2081,-3.1893,-3.1705,-3.1705,-3.1705,-3.1705,-3.1705,-3.1536,0.0,0.0,0.0,0.0,0.0,0.0,-1.6408,-2.0512,-2.4523,0.0,0.0,0.0,0.0,0.0,0.0,0.0,0.0,0.0,0.0,0.0,0.0,0.0,0.0,0.0,0.0,-3.8721,-3.8599,-3.8173,-3.8034,-3.7402,-3.6057,-3.6013,-3.553,-3.4547,-3.4593,-3.413,-3.3052,-3.2963,-3.254,-3.1777,-3.1612,-3.1632,-3.1793,-3.1749,-3.1705,-3.1705,-3.1439,-3.1439,-3.1617,-3.135,-3.1439,-3.1705,-3.1705,-3.1705,-3.1705,-3.1705,-3.1705,-3.1717,-3.1777,-3.2118,-3.2599,-3.2659,-3.3032,-3.3464,-3.3464,-3.3777,-3.4078,-3.4078,-3.4414,-3.4775,-3.4775,-3.4775,-3.4775,-3.4775,-3.4981,-3.5223,-3.5223,-3.562,-3.6003,-3.6323,-3.6358,-3.625,-3.5928,-3.4802,-3.3857,-3.3545,-3.2445,-3.1705,-3.1705,-3.1705,-3.1705,-3.1705,-3.1893,-3.2125,-3.24,-3.2593,-3.2853,-3.3068,-3.3124,-3.2982,-3.2711,-3.268,-3.2463,-3.1994,-3.1981,-3.1893,-3.1705,-3.1705,-3.1705,-3.1705,-3.1705,-3.1705,0.0,0.0,0.0,0.0,0.0,0.0,-1.5853,-1.7188,-1.9047,0.0,0.0,0.0,0.0,0.0,0.0,0.0,0.0,0.0,0.0,0.0,0.0,0.0,0.0,0.0,0.0,-3.7674,-3.7806,-3.7725,-3.7118,-3.6518,-3.6013,-3.6013,-3.553,-3.4547,-3.5308,-3.5598,-3.535,-3.4609,-3.442,-3.4753,-3.3464,-3.2737,-3.2494,-3.1969,-3.1705,-3.1705,-3.1439,-3.135,-3.135,-3.1151,-3.1318,-3.1705,-3.1705,-3.1705,-3.1705,-3.1705,-3.1705,-3.1765,-3.2178,-3.2683,-3.32,-3.3562,-3.4042,-3.4535,-3.4535,-3.4546,-3.4619,-3.4619,-3.4703,-3.4775,-3.4775,-3.4775,-3.4775,-3.4775,-3.4981,-3.5223,-3.5223,-3.5464,-3.5764,-3.6003,-3.6098,-3.5866,-3.5137,-3.4289,-3.3484,-3.2798,-3.2138,-3.1705,-3.1705,-3.1705,-3.1705,-3.1705,-3.2081,-3.2344,-3.24,-3.2779,-3.3025,-3.3124,-3.3124,-3.2982,-3.2711,-3.2562,-3.23,-3.1994,-3.1849,-3.1749,-3.1705,-3.1705,-3.1705,-3.1705,-3.1705,-3.1705,0.0,0.0,0.0,-1.5158,0.0,0.0,0.0,-1.7227,-1.8625,0.0,0.0,0.0,0.0,0.0,0.0,0.0,0.0,0.0,0.0,0.0,0.0,0.0,0.0,0.0,0.0,-3.7181,-3.7205,-3.7019,-3.6429,-3.5995,-3.5869,-3.5856,-3.5603,-3.5122,-3.5603,-3.5659,-3.5191,-3.4749,-3.4465,-3.4425,-3.3624,-3.3065,-3.2667,-3.2363,-3.2013,-3.1705,-3.1439,-3.1306,-3.1261,-3.1062,-3.1151,-3.1362,-3.1362,-3.1407,-3.1484,-3.1484,-3.1572,-3.1789,-3.2298,-3.2851,-3.3368,-3.3826,-3.4342,-3.4775,-3.4775,-3.4775,-3.4775,-3.4775,-3.4775,-3.4775,-3.4775,-3.4775,-3.4775,-3.4775,-3.4872,-3.4981,-3.4981,-3.5223,-3.5416,-3.5572,-3.562,-3.5582,-3.5406,-3.4399,-3.3453,-3.3095,-3.228,-3.1705,-3.1705,-3.1705,-3.1705,-3.1705,-3.1981,-3.2257,-3.24,-3.2723,-3.2939,-3.3081,-3.3124,-3.2952,-3.2562,-3.2431,-3.2213,-3.1849,-3.1761,-3.1705,-3.1705,-3.1705,-3.1705,-3.1705,-3.1705,-3.1705,0.0,0.0,0.0,0.0,0.0,-1.5478,0.0,0.0,0.0,0.0,0.0,0.0,0.0,0.0,0.0,0.0,0.0,0.0,0.0,0.0,0.0,0.0,0.0,0.0,0.0,-3.5859,-3.6074,-3.6144,-3.5801,-3.5641,-3.571,-3.571,-3.571,-3.571,-3.571,-3.5345,-3.4647,-3.4481,-3.4204,-3.3775,-3.3195,-3.297,-3.2965,-3.2437,-3.2013,-3.161,-3.1185,-3.0997,-3.0965,-3.0755,-3.0737,-3.0787,-3.0937,-3.1107,-3.1261,-3.1306,-3.1439,-3.1713,-3.2418,-3.2935,-3.3392,-3.3946,-3.4438,-3.4775,-3.4775,-3.4775,-3.4775,-3.4775,-3.4775,-3.4775,-3.4775,-3.4775,-3.4775,-3.4775,-3.4775,-3.4775,-3.4775,-3.4981,-3.5126,-3.5175,-3.5175,-3.5235,-3.5628,-3.4509,-3.3502,-3.3405,-3.2421,-3.1705,-3.1705,-3.1705,-3.1705,-3.1749,-3.1937,-3.2169,-3.2431,-3.2636,-3.2853,-3.3081,-3.3038,-3.2822,-3.2431,-3.23,-3.2069,-3.1705,-3.1705,-3.1705,-3.1705,-3.1705,-3.1705,-3.1705,-3.1705,-3.1705,0.0,0.0,0.0,0.0,-1.6404,0.0,0.0,0.0,0.0,0.0,0.0,0.0,0.0,0.0,0.0,0.0,0.0,0.0,0.0,0.0,0.0,0.0,0.0,0.0,0.0,0.0,-3.3401,-3.5125,-3.5212,-3.5312,-3.5683,-3.571,-3.571,-3.571,-3.571,-3.5629,-3.5548,-3.4812,-3.4771,-3.5413,-3.2911,-3.2516,-3.3844,-3.1456,-3.0746,-3.129,-3.0326,-2.9884,-2.9884,-2.964,-2.9737,-2.9994,-3.0695,-3.1029,-3.1062,-3.1229,-3.1306,-3.1538,-3.2793,-3.3236,-3.3452,-3.4378,-3.4727,-3.4775,-3.4775,-3.4775,-3.4775,-3.4775,-3.4775,-3.4775,-3.4775,-3.4775,-3.4775,-3.4775,-3.4775,-3.4775,-3.4775,-3.4823,-3.4932,-3.5175,-3.503,-3.4776,-3.4603,-3.3903,-3.3174,-3.2704,-3.2102,-3.1705,-3.1705,-3.1705,-3.1749,-3.195,-3.2213,-3.2431,-3.2636,-3.2896,-3.3068,-3.3124,-3.2896,-3.2636,-3.2388,-3.1981,-3.1749,-3.1705,-3.1705,-3.1705,-3.1705,-3.1705,-3.1705,-3.1705,-3.1705,-3.1705,0.0,0.0,0.0,0.0,0.0,0.0,-1.8184,0.0,-1.6241,0.0,0.0,0.0,0.0,0.0,0.0,0.0,0.0,0.0,0.0,0.0,0.0,0.0,0.0,0.0,0.0,0.0,0.0,0.0,0.0,-3.3111,-3.3634,-3.4651,-3.5317,-3.571,-3.571,-3.571,-3.571,-3.5345,-3.5345,-3.5669,-3.415,-3.359,-3.3872,-3.2021,-3.1157,-3.1075,-3.0283,-2.9833,-2.9706,-2.9633,-2.9672,-2.9834,-3.0155,-3.0512,-3.0781,-3.0847,-3.0994,-3.1258,-3.2265,-3.262,-3.2787,-3.3982,-3.4318,-3.4378,-3.4691,-3.4775,-3.4775,-3.4775,-3.4775,-3.4775,-3.4775,-3.4775,-3.4775,-3.4775,-3.4775,-3.4775,-3.4775,-3.4775,-3.4835,-3.4932,-3.4884,-3.4751,-3.4631,-3.4113,-3.3645,-3.3382,-3.2947,-3.2611,-3.2611,-3.2611,-3.2581,-3.2491,-3.2678,-3.282,-3.2705,-3.2939,-3.3124,-3.3124,-3.2736,-3.2431,-3.2169,-3.1893,-3.1705,-3.1705,-3.1705,-3.1705,-3.1705,-3.1705,-3.1705,-3.1705,-3.1705,-3.1705,-2.284,0.0,0.0,0.0,0.0,0.0,0.0,0.0,0.0,0.0,0.0,0.0,0.0,0.0,0.0,0.0,0.0,0.0,0.0,0.0,0.0,0.0,0.0,0.0,0.0,0.0,0.0,-2.9752,-3.0658,-3.1384,-3.1897,-3.377,-3.4992,-3.5425,-3.5628,-3.571,-3.571,-3.571,-3.571,-3.571,-3.4914,-3.4338,-3.3874,-3.2514,-3.1516,-3.0869,-3.0245,-2.9876,-2.967,-2.9475,-2.9616,-2.9981,-2.9788,-3.0008,-3.0487,-3.0578,-3.0724,-3.0998,-3.1822,-3.2232,-3.2574,-3.3491,-3.379,-3.3886,-3.4402,-3.457,-3.4595,-3.4739,-3.4775,-3.4775,-3.4775,-3.4775,-3.4775,-3.4775,-3.4775,-3.4775,-3.4775,-3.4775,-3.4775,-3.4775,-3.4775,-3.4775,-3.4775,-3.4342,-3.3994,-3.3994,-3.3609,-3.3284,-3.3284,-3.3198,-3.3095,-3.2922,-3.3019,-3.2982,-3.2847,-3.2982,-3.3038,-3.2909,-3.2605,-3.2257,-3.1937,-3.1761,-3.1705,-3.1705,-3.1705,-3.1705,-3.1705,-3.1705,-3.1705,-3.1705,-3.1705,-3.1705,0.0,0.0,0.0,-2.2514,0.0,0.0,0.0,0.0,-1.6522,0.0,0.0,0.0,0.0,0.0,0.0,-1.6624,0.0,0.0,0.0,0.0,0.0,0.0,0.0,0.0,0.0,0.0,0.0,-2.7234,-2.9397,-3.0911,-3.13,-3.3552,-3.4802,-3.4816,-3.5385,-3.571,-3.571,-3.571,-3.571,-3.5669,-3.45,-3.4032,-3.4137,-3.2329,-3.1177,-3.0583,-2.9985,-2.9715,-2.9638,-2.8864,-2.9363,-3.0479,-2.9742,-2.9762,-3.0261,-3.0487,-3.0623,-3.0738,-3.1764,-3.262,-3.3272,-3.3308,-3.3308,-3.3404,-3.3862,-3.4018,-3.4126,-3.4631,-3.4775,-3.4775,-3.4775,-3.4775,-3.4775,-3.4775,-3.4775,-3.4775,-3.4775,-3.4775,-3.4775,-3.4775,-3.4775,-3.4775,-3.4775,-3.4342,-3.3994,-3.3994,-3.3609,-3.3284,-3.3284,-3.301,-3.2897,-3.3154,-3.2896,-3.2822,-3.3081,-3.3124,-3.2909,-3.2444,-3.2388,-3.2213,-3.1705,-3.1705,-3.1705,-3.1705,-3.1705,-3.1705,-3.1705,-3.1705,-3.1705,-3.1705,-3.1705,-3.1705,0.0,0.0,-2.9049,-2.8193,0.0,0.0,0.0,0.0,0.0,0.0,0.0,0.0,0.0,0.0,0.0,-1.6687,-1.7547,0.0,0.0,0.0,0.0,0.0,0.0,0.0,0.0,0.0,0.0,-2.401,-2.5118,-2.6149,-2.7081,-3.0174,-3.2264,-3.305,-3.4407,-3.5276,-3.571,-3.571,-3.571,-3.571,-3.4861,-3.4523,-3.4541,-3.2873,-3.1997,-3.1761,-3.0876,-3.0481,-3.0443,-3.0037,-3.0159,-3.0538,-3.0145,-3.0075,-3.0216,-3.0306,-3.0352,-3.042,-3.1115,-3.1743,-3.2319,-3.2647,-3.2767,-3.2863,-3.338,-3.3549,-3.3585,-3.3765,-3.4054,-3.4258,-3.4258,-3.4522,-3.4775,-3.4775,-3.4775,-3.4775,-3.4775,-3.4775,-3.4775,-3.4775,-3.4775,-3.4775,-3.4775,-3.4631,-3.451,-3.451,-3.4366,-3.4306,-3.4306,-3.4026,-3.3844,-3.3731,-3.3415,-3.3196,-3.3106,-3.2939,-3.2723,-3.2431,-3.2213,-3.1981,-3.1705,-3.1705,-3.1705,-3.1705,-3.1705,-3.1705,-3.1705,-3.1705,-3.1705,-3.1705,-3.1705,-3.1705,-3.2302,-3.2212,0.0,-3.111,-2.9047,0.0,-2.5883,0.0,0.0,0.0,0.0,0.0,0.0,0.0,0.0,-1.7459,-1.7936,-1.8315,0.0,-1.841,0.0,0.0,0.0,0.0,0.0,0.0,-2.0539,-2.1313,-2.2489,-2.3567,0.0,0.0,-3.0758,-3.1531,-3.3688,-3.4978,-3.5358,-3.5601,-3.571,-3.571,-3.529,-3.4992,-3.4761,-3.3808,-3.3011,-3.2355,-3.1794,-3.1466,-3.1304,-3.0782,-3.0842,-3.1193,-3.0877,-3.0834,-3.0832,-3.0373,-3.0306,-3.0544,-3.0883,-3.133,-3.1765,-3.2082,-3.2202,-3.231,-3.2839,-3.3008,-3.308,-3.3452,-3.3669,-3.3766,-3.3946,-3.4114,-3.4282,-3.4282,-3.4282,-3.4282,-3.4282,-3.4282,-3.4282,-3.4282,-3.4378,-3.4498,-3.4498,-3.4655,-3.4775,-3.4775,-3.4775,-3.4775,-3.4775,-3.4496,-3.4206,-3.4001,-3.3603,-3.324,-3.2977,-3.2723,-3.2506,-3.2257,-3.2081,-3.1893,-3.1705,-3.1705,-3.1705,-3.1805,-3.1761,-3.1761,-3.1805,-3.1705,-3.1705,-3.1705,-3.1705,-3.1705]},{"header":{"parameterUnit":"m.s-1","parameterCategory":1,"la1":30.6,"la2":29.2853,"lo1":-89.7004,"lo2":-87.6739,"dy":0.0162,"dx":0.0183,"nx":112,"ny":82,"refTime":"2023-06-20T12:00:00:Z","depth":0,"parameterNumber":3,"parameterNumberName":"V-component_of_WINDS"},"data":[0.0,0.0,0.0,0.0,0.0,0.0,0.0,0.0,0.0,0.0,0.0,0.0,0.0,0.0,0.0,0.0,0.0,0.0,0.0,0.0,0.0,0.0,0.0,0.0,0.0,0.0,0.0,0.0,0.0,0.0,0.0,0.0,0.0,0.0,0.0,0.0,0.0,0.0,0.0,0.0,0.0,0.0,0.0,0.0,0.0,0.0,0.0,0.0,0.0,0.0,0.0,0.0,0.0,0.0,0.0,0.0,0.0,0.0,0.0,0.0,0.0,0.0,0.0,0.0,0.0,0.0,0.0,0.0,0.0,0.0,0.0,0.0,0.0,0.0,0.0,0.0,0.0,0.0,0.0,0.0,0.0,0.0,0.0,0.0,0.0,0.0,0.0,0.0,0.0,0.0,0.0,-2.936,-3.0466,-3.0975,-3.0975,-3.0995,-2.9707,-2.6696,0.0,0.0,0.0,0.0,0.0,0.0,0.0,0.0,0.0,0.0,0.0,0.0,0.0,0.0,0.0,0.0,0.0,0.0,0.0,0.0,0.0,0.0,0.0,0.0,0.0,0.0,0.0,0.0,0.0,0.0,0.0,0.0,0.0,0.0,0.0,0.0,0.0,0.0,0.0,0.0,0.0,0.0,0.0,0.0,0.0,0.0,0.0,0.0,0.0,0.0,0.0,0.0,0.0,0.0,0.0,0.0,0.0,0.0,0.0,0.0,0.0,0.0,0.0,0.0,0.0,0.0,0.0,0.0,0.0,0.0,0.0,0.0,0.0,0.0,0.0,0.0,0.0,0.0,0.0,0.0,0.0,0.0,0.0,0.0,0.0,0.0,0.0,0.0,0.0,0.0,0.0,0.0,0.0,0.0,0.0,0.0,0.0,0.0,0.0,0.0,0.0,0.0,0.0,0.0,-2.7544,-3.0235,-3.0764,-3.0912,-3.0912,-3.0972,-2.9732,-2.6759,0.0,0.0,0.0,0.0,0.0,0.0,0.0,0.0,0.0,0.0,0.0,0.0,0.0,0.0,0.0,0.0,0.0,0.0,0.0,0.0,0.0,0.0,0.0,0.0,0.0,0.0,0.0,0.0,0.0,0.0,0.0,0.0,0.0,0.0,0.0,0.0,0.0,0.0,0.0,0.0,0.0,0.0,0.0,0.0,0.0,0.0,0.0,0.0,0.0,0.0,0.0,0.0,0.0,0.0,0.0,0.0,0.0,0.0,0.0,0.0,0.0,0.0,0.0,0.0,0.0,0.0,0.0,0.0,0.0,0.0,0.0,0.0,0.0,0.0,0.0,0.0,0.0,0.0,0.0,0.0,0.0,0.0,0.0,0.0,0.0,0.0,0.0,0.0,0.0,0.0,0.0,0.0,0.0,0.0,0.0,0.0,0.0,0.0,0.0,0.0,0.0,0.0,0.0,-2.8771,-3.0783,-3.2133,-3.2334,-3.2141,-3.1549,-3.1621,-3.0191,-2.6646,-2.6934,0.0,0.0,0.0,0.0,0.0,0.0,0.0,0.0,0.0,0.0,0.0,0.0,0.0,0.0,0.0,0.0,0.0,0.0,0.0,0.0,0.0,0.0,0.0,0.0,0.0,0.0,0.0,0.0,0.0,0.0,0.0,0.0,0.0,0.0,0.0,0.0,0.0,0.0,0.0,0.0,0.0,0.0,0.0,0.0,0.0,0.0,0.0,0.0,0.0,0.0,0.0,0.0,0.0,0.0,0.0,0.0,0.0,0.0,0.0,0.0,0.0,0.0,0.0,0.0,0.0,0.0,0.0,0.0,0.0,0.0,0.0,0.0,0.0,0.0,0.0,0.0,0.0,0.0,0.0,0.0,0.0,0.0,0.0,0.0,0.0,0.0,0.0,0.0,0.0,0.0,0.0,0.0,0.0,0.0,0.0,0.0,0.0,0.0,0.0,0.0,0.0,0.0,-3.1283,-3.3062,-3.3584,-3.3639,-3.3294,-3.2404,-3.2502,-3.0923,-2.6989,-2.7268,0.0,0.0,0.0,0.0,0.0,0.0,0.0,0.0,0.0,0.0,0.0,0.0,0.0,0.0,0.0,0.0,0.0,0.0,0.0,0.0,0.0,0.0,0.0,0.0,0.0,0.0,0.0,0.0,0.0,0.0,0.0,0.0,0.0,0.0,0.0,0.0,0.0,0.0,0.0,0.0,0.0,0.0,0.0,0.0,0.0,0.0,0.0,0.0,0.0,0.0,0.0,0.0,0.0,0.0,0.0,0.0,0.0,0.0,0.0,0.0,0.0,0.0,0.0,0.0,0.0,0.0,0.0,0.0,0.0,0.0,0.0,0.0,0.0,0.0,0.0,0.0,0.0,0.0,0.0,0.0,0.0,0.0,0.0,0.0,0.0,0.0,0.0,0.0,0.0,0.0,0.0,0.0,0.0,0.0,0.0,0.0,0.0,0.0,0.0,0.0,0.0,0.0,-3.0649,-3.232,-3.3645,-3.3778,-3.3642,-3.3347,-3.343,-3.1962,-2.8315,-2.7543,0.0,0.0,0.0,0.0,0.0,0.0,0.0,0.0,0.0,0.0,0.0,0.0,0.0,0.0,0.0,0.0,0.0,0.0,0.0,0.0,0.0,0.0,0.0,0.0,0.0,0.0,0.0,0.0,0.0,0.0,0.0,0.0,0.0,0.0,0.0,0.0,0.0,0.0,0.0,0.0,0.0,0.0,0.0,0.0,0.0,0.0,0.0,0.0,0.0,0.0,0.0,0.0,0.0,0.0,0.0,0.0,0.0,0.0,0.0,0.0,0.0,0.0,0.0,0.0,0.0,0.0,0.0,0.0,0.0,0.0,0.0,0.0,0.0,0.0,0.0,0.0,0.0,0.0,0.0,0.0,0.0,0.0,0.0,0.0,0.0,0.0,0.0,0.0,0.0,0.0,0.0,0.0,0.0,0.0,0.0,0.0,0.0,0.0,0.0,0.0,0.0,0.0,-3.2943,-3.474,0.0,-3.5613,-3.5222,-3.4287,-3.4525,-3.275,-2.8117,0.0,0.0,0.0,0.0,0.0,0.0,0.0,0.0,0.0,0.0,0.0,0.0,0.0,0.0,0.0,0.0,0.0,0.0,0.0,0.0,0.0,0.0,0.0,0.0,0.0,0.0,0.0,0.0,0.0,0.0,0.0,0.0,0.0,0.0,0.0,0.0,0.0,0.0,0.0,0.0,0.0,0.0,0.0,0.0,0.0,0.0,0.0,0.0,0.0,0.0,0.0,0.0,0.0,0.0,0.0,0.0,0.0,0.0,0.0,0.0,0.0,0.0,0.0,0.0,0.0,0.0,0.0,0.0,0.0,0.0,0.0,0.0,0.0,0.0,0.0,0.0,0.0,0.0,0.0,0.0,0.0,0.0,0.0,0.0,0.0,0.0,0.0,0.0,0.0,0.0,0.0,0.0,0.0,0.0,0.0,0.0,0.0,0.0,0.0,0.0,0.0,0.0,-3.1599,-3.4365,-3.6447,0.0,-3.6766,-3.6336,-3.5406,-3.56,-3.3574,-2.8449,0.0,0.0,0.0,0.0,0.0,0.0,0.0,0.0,0.0,0.0,0.0,0.0,0.0,0.0,0.0,0.0,0.0,0.0,0.0,0.0,0.0,0.0,0.0,0.0,0.0,0.0,0.0,0.0,0.0,0.0,0.0,0.0,0.0,0.0,0.0,0.0,0.0,0.0,0.0,0.0,0.0,0.0,0.0,0.0,0.0,0.0,0.0,0.0,0.0,0.0,0.0,0.0,0.0,0.0,0.0,0.0,0.0,0.0,0.0,0.0,0.0,0.0,0.0,0.0,0.0,0.0,0.0,0.0,0.0,0.0,0.0,0.0,0.0,0.0,0.0,0.0,0.0,0.0,0.0,0.0,0.0,0.0,0.0,0.0,0.0,0.0,0.0,0.0,0.0,0.0,0.0,0.0,0.0,0.0,0.0,0.0,0.0,0.0,0.0,0.0,0.0,0.0,-3.1063,-3.4395,-3.6849,-3.6987,-3.6888,-3.6768,-3.6702,-3.6582,-3.4429,0.0,0.0,0.0,0.0,0.0,0.0,0.0,0.0,0.0,0.0,0.0,0.0,0.0,0.0,0.0,0.0,0.0,0.0,0.0,0.0,0.0,0.0,0.0,0.0,0.0,0.0,0.0,0.0,0.0,0.0,0.0,0.0,0.0,0.0,0.0,0.0,0.0,0.0,0.0,0.0,0.0,0.0,0.0,0.0,0.0,0.0,0.0,0.0,0.0,0.0,0.0,0.0,0.0,0.0,0.0,0.0,0.0,0.0,0.0,0.0,0.0,0.0,0.0,0.0,0.0,0.0,0.0,0.0,0.0,0.0,0.0,0.0,0.0,0.0,0.0,0.0,0.0,0.0,0.0,0.0,0.0,0.0,0.0,0.0,0.0,0.0,0.0,0.0,0.0,0.0,0.0,0.0,0.0,0.0,0.0,0.0,0.0,0.0,0.0,0.0,0.0,0.0,0.0,-3.082,-3.4262,-3.6745,-3.6786,-3.6788,-3.6728,-3.6564,-3.6748,-3.4722,-2.9765,0.0,0.0,0.0,0.0,0.0,0.0,0.0,0.0,0.0,0.0,0.0,0.0,0.0,0.0,0.0,0.0,0.0,0.0,0.0,0.0,0.0,0.0,0.0,0.0,0.0,0.0,0.0,0.0,0.0,0.0,0.0,0.0,0.0,0.0,0.0,0.0,0.0,0.0,0.0,0.0,0.0,0.0,0.0,0.0,0.0,0.0,0.0,0.0,0.0,0.0,0.0,0.0,0.0,0.0,0.0,0.0,0.0,0.0,0.0,0.0,0.0,0.0,0.0,0.0,0.0,0.0,0.0,0.0,0.0,0.0,0.0,0.0,0.0,0.0,0.0,0.0,0.0,0.0,0.0,0.0,0.0,0.0,0.0,0.0,0.0,0.0,0.0,0.0,0.0,0.0,0.0,0.0,0.0,0.0,0.0,0.0,0.0,0.0,0.0,0.0,0.0,0.0,-3.037,-3.4013,-3.6643,-3.6702,-3.6705,-3.6647,-3.6602,-3.6728,-3.5103,-3.1146,0.0,0.0,0.0,0.0,0.0,0.0,0.0,0.0,0.0,0.0,0.0,0.0,0.0,0.0,0.0,0.0,0.0,0.0,0.0,0.0,0.0,0.0,0.0,0.0,0.0,0.0,0.0,0.0,0.0,0.0,0.0,0.0,0.0,0.0,0.0,0.0,0.0,0.0,0.0,0.0,0.0,0.0,0.0,0.0,0.0,0.0,0.0,0.0,0.0,0.0,0.0,0.0,0.0,0.0,0.0,0.0,0.0,0.0,0.0,0.0,0.0,0.0,0.0,0.0,0.0,0.0,0.0,0.0,0.0,0.0,0.0,0.0,0.0,0.0,0.0,0.0,0.0,0.0,0.0,0.0,0.0,0.0,0.0,0.0,0.0,0.0,0.0,0.0,0.0,0.0,0.0,0.0,0.0,0.0,0.0,0.0,0.0,0.0,0.0,0.0,0.0,0.0,-2.9935,-3.3873,-3.6731,-3.6869,-3.6721,-3.6648,-3.6768,-3.6617,-3.5532,-3.317,0.0,0.0,0.0,0.0,0.0,0.0,0.0,0.0,0.0,0.0,0.0,0.0,0.0,0.0,0.0,0.0,0.0,0.0,0.0,0.0,0.0,0.0,0.0,0.0,0.0,0.0,0.0,0.0,0.0,0.0,0.0,0.0,0.0,0.0,0.0,0.0,0.0,0.0,0.0,0.0,0.0,0.0,0.0,0.0,0.0,0.0,0.0,0.0,0.0,0.0,0.0,0.0,0.0,0.0,0.0,0.0,0.0,0.0,0.0,0.0,-3.1459,0.0,0.0,0.0,0.0,0.0,0.0,0.0,0.0,0.0,0.0,0.0,0.0,0.0,0.0,0.0,0.0,0.0,0.0,0.0,0.0,0.0,0.0,0.0,0.0,0.0,0.0,0.0,0.0,0.0,0.0,0.0,0.0,0.0,0.0,0.0,0.0,0.0,0.0,0.0,0.0,0.0,-3.0508,-3.4982,-3.8156,-3.8178,-3.7707,-3.7369,-3.7407,-3.695,-3.567,-3.3303,-3.2587,0.0,0.0,0.0,0.0,0.0,0.0,0.0,0.0,0.0,0.0,0.0,0.0,0.0,0.0,0.0,0.0,0.0,0.0,0.0,0.0,0.0,0.0,0.0,0.0,0.0,0.0,0.0,0.0,0.0,0.0,0.0,0.0,0.0,0.0,0.0,0.0,0.0,0.0,0.0,0.0,0.0,0.0,0.0,0.0,0.0,0.0,0.0,0.0,0.0,0.0,0.0,0.0,0.0,0.0,0.0,0.0,0.0,0.0,0.0,0.0,-3.1459,0.0,0.0,0.0,0.0,0.0,0.0,0.0,0.0,0.0,0.0,0.0,0.0,0.0,0.0,0.0,0.0,0.0,0.0,0.0,0.0,0.0,0.0,0.0,0.0,0.0,0.0,0.0,0.0,0.0,0.0,0.0,0.0,0.0,0.0,0.0,0.0,0.0,0.0,0.0,0.0,-3.0662,-3.468,-3.7629,-3.8047,-3.7763,-3.7543,-3.7543,-3.7261,-3.6336,-3.4565,-3.3429,0.0,0.0,0.0,0.0,0.0,0.0,0.0,0.0,0.0,0.0,0.0,0.0,0.0,0.0,0.0,0.0,0.0,0.0,0.0,0.0,0.0,0.0,0.0,0.0,0.0,0.0,0.0,0.0,0.0,0.0,0.0,0.0,0.0,0.0,0.0,0.0,0.0,0.0,0.0,0.0,0.0,0.0,0.0,0.0,0.0,0.0,0.0,0.0,0.0,0.0,0.0,0.0,0.0,-3.2961,-3.2947,-3.3577,-3.2249,-3.1795,-3.2213,-3.4279,-3.4525,-3.3389,0.0,0.0,0.0,0.0,0.0,0.0,0.0,0.0,0.0,0.0,0.0,0.0,0.0,0.0,0.0,0.0,0.0,0.0,0.0,0.0,0.0,0.0,0.0,0.0,0.0,-3.4325,-3.3759,0.0,0.0,0.0,0.0,0.0,0.0,0.0,0.0,0.0,0.0,0.0,0.0,-3.0628,-3.4318,-3.7146,-3.7823,-3.7804,-3.7743,-3.7743,-3.7556,-3.704,-3.6079,-3.4262,-3.2848,0.0,0.0,0.0,0.0,0.0,0.0,0.0,0.0,0.0,0.0,0.0,0.0,0.0,0.0,0.0,0.0,0.0,0.0,0.0,0.0,0.0,0.0,0.0,0.0,0.0,0.0,0.0,0.0,0.0,0.0,0.0,0.0,-2.7266,-2.9076,0.0,0.0,0.0,0.0,0.0,0.0,0.0,0.0,0.0,0.0,0.0,0.0,0.0,-3.2017,-3.2684,-3.5005,-3.6099,-3.5994,-3.7957,-3.9007,-3.9241,-3.8992,-3.9336,-3.9968,-3.8168,0.0,-3.3494,-3.3213,0.0,0.0,0.0,0.0,0.0,0.0,0.0,0.0,0.0,0.0,0.0,0.0,0.0,0.0,0.0,0.0,0.0,0.0,0.0,0.0,0.0,0.0,-3.9437,-3.932,-3.7623,-3.6606,0.0,-3.4027,-2.9729,-3.0263,-2.88,0.0,0.0,0.0,0.0,0.0,0.0,0.0,-3.0697,-3.5697,-3.9284,-3.9388,-3.8993,-3.8706,-3.8706,-3.7765,-3.7102,-3.6952,-3.6333,-3.5043,-3.2942,-3.3637,0.0,0.0,0.0,0.0,0.0,0.0,0.0,0.0,0.0,0.0,0.0,0.0,0.0,0.0,0.0,0.0,0.0,0.0,0.0,0.0,0.0,0.0,0.0,0.0,0.0,0.0,0.0,0.0,0.0,-2.6724,-2.8313,-2.9203,-2.9628,-2.9178,0.0,0.0,0.0,0.0,0.0,0.0,0.0,0.0,0.0,-3.4443,-3.5267,-3.6226,-3.7431,-3.8891,-3.9784,-4.0059,-4.0418,-4.1094,-4.198,-4.1701,-4.1815,-4.2106,-4.0979,-3.9289,-3.7186,-3.5341,-3.4361,-3.3822,0.0,0.0,0.0,0.0,-2.8467,-2.8927,-2.9526,-3.1167,0.0,-3.347,0.0,0.0,0.0,0.0,0.0,0.0,0.0,0.0,0.0,0.0,-3.8824,-4.0313,-3.9811,-3.9133,-3.9663,-3.6457,-3.3535,0.0,-3.1771,-2.9484,-2.7884,0.0,0.0,0.0,0.0,-3.3446,-3.3803,-3.6649,-3.8798,-3.9208,-3.8756,-3.8387,-3.8387,-3.8028,-3.7484,-3.6874,-3.6721,-3.6117,-3.4898,-3.4847,-3.3324,0.0,0.0,0.0,0.0,0.0,0.0,0.0,0.0,0.0,0.0,0.0,0.0,0.0,0.0,0.0,0.0,0.0,0.0,0.0,0.0,0.0,0.0,0.0,0.0,0.0,0.0,0.0,0.0,-2.8619,-3.0068,-3.0292,-3.15,-3.1726,0.0,0.0,0.0,0.0,0.0,0.0,-3.4081,-3.3712,-3.4835,-3.7802,-3.8893,-4.0134,-4.1709,-4.2295,-4.29,-4.3477,-4.2371,-4.2587,-4.3908,-4.3349,-4.3266,-4.3512,-4.3255,-4.2521,-4.1233,-3.8039,-3.633,-3.5694,-3.5349,-3.379,-3.1829,-3.2564,-3.2772,-3.2752,-3.3508,-3.5238,-3.7155,-3.7408,0.0,-3.6384,-3.5692,0.0,0.0,0.0,0.0,-3.4414,-3.6825,-3.7806,-3.874,-4.1134,-4.16,-4.1322,-4.055,-3.8691,-3.7133,0.0,-3.475,-3.2312,-3.0664,0.0,0.0,0.0,0.0,-3.5469,-3.5977,-3.7234,-3.8335,-3.9023,-3.8503,-3.816,-3.8344,-3.822,-3.782,-3.7063,-3.6914,-3.6763,-3.6562,-3.5849,-3.4568,-3.2635,0.0,0.0,0.0,0.0,0.0,0.0,0.0,0.0,0.0,0.0,0.0,0.0,0.0,0.0,0.0,0.0,0.0,0.0,0.0,0.0,0.0,0.0,0.0,0.0,0.0,0.0,0.0,0.0,0.0,-3.4535,-3.6028,0.0,0.0,0.0,0.0,-3.2567,-3.4091,-3.5649,-3.7024,-3.7821,-3.9301,-4.1654,-4.1809,-4.2494,-4.3932,-4.4096,-4.4492,-4.5083,-4.4423,-4.4681,-4.5656,-4.479,-4.4993,-4.5961,-4.5005,-4.4614,-4.4421,-4.1321,-3.9651,-3.8894,-3.7242,-3.6541,-3.6265,-3.469,-3.5503,-3.737,-3.7422,-3.8973,-4.1064,-4.183,-4.0555,-3.8326,-3.6079,-3.5332,0.0,0.0,-3.7366,-3.9703,-3.9807,-4.1476,-4.3186,-4.3343,-4.328,-4.2999,-4.2397,-4.081,-3.9319,0.0,-3.6632,-3.5031,-3.499,0.0,-3.4384,-3.2117,-3.3796,-3.5278,-3.5269,-3.7354,-3.904,-3.9588,-3.8816,-3.8564,-3.9265,-3.8362,-3.7825,-3.8096,-3.748,-3.712,-3.7247,-3.661,-3.5866,-3.504,-3.3,0.0,0.0,0.0,0.0,0.0,0.0,0.0,0.0,0.0,0.0,0.0,0.0,0.0,0.0,0.0,0.0,0.0,0.0,0.0,0.0,0.0,0.0,0.0,0.0,0.0,0.0,0.0,0.0,-3.614,-3.7042,0.0,0.0,-3.7435,-3.721,-3.6509,-3.8422,-4.0049,-4.1047,-4.1756,-4.302,-4.4906,-4.4363,-4.4819,-4.6394,-4.5868,-4.5935,-4.667,-4.645,-4.6845,-4.7726,-4.7538,-4.7698,-4.8013,-4.7213,-4.6334,-4.5356,-4.386,-4.2766,-4.1951,-4.1415,-4.1161,-4.1115,-4.108,-4.0936,-4.0734,-4.0819,-4.1073,-4.1457,-4.2277,-4.2248,-4.1685,-4.0868,-4.0607,-4.052,-4.0033,-4.0716,-4.147,-4.0908,-4.1366,-4.1962,-4.1962,-4.1849,-4.1708,-4.1479,-4.0924,-4.0394,-4.0135,-3.9076,-3.8116,-3.7792,-3.8937,-3.8836,-3.578,-3.7195,-3.8443,-3.8084,-3.8496,-3.8904,-3.9096,-3.8471,-3.8144,-3.8411,-3.8177,-3.8049,-3.8209,-3.8036,-3.7963,-3.8019,-3.7339,-3.6837,-3.6562,-3.538,-3.3097,0.0,0.0,0.0,0.0,0.0,0.0,0.0,0.0,0.0,0.0,0.0,0.0,0.0,0.0,0.0,0.0,0.0,0.0,0.0,0.0,0.0,0.0,0.0,0.0,0.0,0.0,-3.5621,-3.7717,-3.8877,-3.9744,-4.0322,-4.0509,-4.0636,-4.0752,-4.2477,-4.3768,-4.426,-4.4939,-4.5973,-4.7402,-4.6837,-4.7165,-4.8543,-4.7941,-4.7858,-4.8352,-4.8077,-4.8253,-4.8871,-4.8702,-4.8432,-4.8064,-4.8074,-4.7283,-4.5947,-4.6032,-4.5693,-4.506,-4.4366,-4.4069,-4.406,-4.4844,-4.4428,-4.352,-4.384,-4.3597,-4.3266,-4.4066,-4.4466,-4.4615,-4.4615,-4.4416,-4.4111,-4.3624,-4.3437,-4.3291,-4.277,-4.2576,-4.2562,-4.2562,-4.2306,-4.1981,-4.1771,-4.1073,-4.0694,-4.1283,-4.0787,-3.983,-3.8564,-3.9574,-3.9453,-3.6241,-3.6978,-3.7753,-3.7385,-3.776,-3.7996,-3.7962,-3.8149,-3.8277,-3.8278,-3.7279,-3.7138,-3.8201,-3.7402,-3.7332,-3.8359,-3.6999,-3.6211,-3.6211,-3.4845,-3.2724,-2.9874,0.0,0.0,0.0,0.0,0.0,0.0,0.0,0.0,0.0,0.0,0.0,0.0,0.0,0.0,0.0,0.0,0.0,0.0,0.0,0.0,0.0,0.0,0.0,-3.3069,-3.6489,-3.9057,-3.9622,-4.1815,-4.3485,-4.3938,-4.4259,-4.4578,-4.5015,-4.6055,-4.6611,-4.6484,-4.7272,-4.8135,-4.9045,-4.9073,-4.9392,-5.0137,-5.0154,-5.0086,-4.9993,-4.9223,-4.8929,-4.899,-4.8187,-4.7182,-4.6199,-4.7544,-4.7431,-4.64,-4.7727,-4.8312,-4.8085,-4.5865,-4.4991,-4.5012,-4.5467,-4.5607,-4.5632,-4.6236,-4.6475,-4.6648,-4.7372,-4.7212,-4.6749,-4.6776,-4.6213,-4.5589,-4.5572,-4.5494,-4.5389,-4.5354,-4.5354,-4.5354,-4.5354,-4.4785,-4.4095,-4.3444,-4.146,-4.032,-4.2072,-4.1583,-4.0098,-3.7518,-3.7069,-3.6186,-3.3534,-3.3156,0.0,-3.3122,-3.5177,-3.6573,-3.6436,-3.7921,-3.893,-3.8997,-3.5774,-3.508,-3.8185,-3.5652,-3.5362,-3.8278,-3.572,-3.423,-3.423,-3.1452,-3.0674,-3.2044,0.0,0.0,0.0,0.0,0.0,0.0,0.0,0.0,0.0,0.0,0.0,0.0,0.0,0.0,0.0,0.0,0.0,0.0,0.0,0.0,0.0,0.0,-3.8053,-3.721,-3.8955,-4.1177,-4.351,-4.4897,-4.5725,-4.5851,-4.6404,-4.6603,-4.6195,-4.742,-4.8189,-4.8144,-4.8379,-4.8614,-4.8877,-4.8359,-4.8446,-4.9188,-4.9188,-4.9453,-5.0011,-5.0338,-5.02,-4.974,-5.0028,-4.9706,-4.8903,-4.8803,-4.8556,-4.8228,-4.8187,-4.8224,-4.8242,-4.7613,-4.6985,-4.6455,-4.6689,-4.5985,-4.4736,-4.3218,-4.3727,-4.5131,-4.5441,-4.571,-4.5962,-4.6048,-4.5918,-4.5622,-4.5092,-4.491,-4.4763,-4.4225,-4.4086,-4.4086,-4.4086,-4.3937,-4.3744,-4.3632,-4.2689,-4.2006,-4.2449,-4.1516,-4.0714,-4.0983,-4.1033,-4.0491,-3.8853,-3.865,0.0,-3.8113,-3.8644,-3.9092,-3.9186,-3.7778,-3.7512,-3.9227,-3.6546,-3.5818,-3.8262,-3.7619,-3.7538,-3.8375,-3.7647,-3.7209,-3.7209,-3.3922,-3.2424,0.0,0.0,0.0,0.0,0.0,0.0,0.0,0.0,0.0,0.0,0.0,0.0,0.0,0.0,0.0,0.0,0.0,0.0,0.0,0.0,0.0,0.0,-3.7815,-4.1295,-4.1878,-4.2716,-4.3898,-4.5585,-4.7093,-4.8,-4.7898,-4.8626,-4.8959,-4.8528,-4.901,-4.9292,-4.9292,-4.9292,-4.9194,-4.8923,-4.8802,-4.8784,-4.8905,-4.9234,-4.9585,-5.0011,-5.0442,-5.058,-5.0493,-5.0907,-5.0557,0.0,-4.9855,-4.9444,-4.865,-4.8951,-4.9102,0.0,0.0,0.0,0.0,0.0,-4.6489,-4.5473,-4.4041,-4.4408,-4.5606,-4.5996,-4.6195,-4.6274,-4.6351,-4.5428,-4.4289,-4.3861,-4.2971,-4.2274,-4.2867,-4.3079,-4.3329,-4.4371,-4.4397,-4.4209,-4.4236,-4.2953,-4.2085,-4.3024,-4.1813,0.0,-4.2901,-4.1141,-3.8992,-3.7478,-3.7247,-3.7245,-3.7205,-3.8341,-3.9083,-3.8913,-3.8563,-3.8775,-3.9816,-3.729,0.0,0.0,0.0,-3.6918,-3.661,-3.6886,0.0,0.0,0.0,-3.2919,-3.3501,0.0,0.0,0.0,-2.9599,-2.8461,0.0,0.0,0.0,0.0,0.0,0.0,0.0,0.0,0.0,0.0,0.0,0.0,0.0,0.0,0.0,0.0,-4.0066,-4.2861,-4.6251,-4.6889,-4.6869,-4.6622,-4.8598,-4.9901,-4.9617,-5.044,-5.0942,-5.0856,-5.0338,-5.0011,-5.0011,0.0,0.0,0.0,0.0,-4.9738,-4.908,-4.9825,-5.012,-5.0011,-5.0097,-5.0424,-5.0994,-5.1166,-5.05,-4.9318,-5.068,-5.02,-4.8541,-4.9837,-5.0387,-5.0258,-4.8958,-4.8461,-4.8338,-4.7291,-4.7004,-4.71,-4.6716,0.0,0.0,-4.7674,-4.75,-4.7081,-4.7194,-4.5172,-4.2856,-4.296,-4.1289,-4.0008,-4.2127,-4.2792,-4.3403,-4.5557,-4.5616,-4.518,-4.5187,-4.3003,-4.1693,-4.3852,-4.2486,-4.1604,-4.3567,-3.9495,-3.5374,-3.3604,-3.3209,-3.3367,-3.4036,-3.6581,-3.8094,-3.7562,0.0,0.0,-4.0642,-3.8035,-3.7323,-3.9489,-3.7156,-3.5331,-3.4619,-3.5202,-3.4077,-3.0917,-3.1996,-3.3226,-3.4457,-3.3777,-3.43,-3.5889,-3.083,-2.9831,0.0,0.0,0.0,0.0,0.0,0.0,0.0,0.0,0.0,0.0,0.0,0.0,0.0,0.0,0.0,-4.0943,-4.4205,-4.6756,-4.7407,-4.8562,-4.9085,-4.8402,-4.9309,-4.9723,-4.904,-4.9723,-4.9959,-4.9275,-4.9717,-5.0011,-5.0011,-4.939,0.0,-4.8866,-4.9004,-4.9004,-4.8849,-4.9625,-5.004,-5.0011,0.0,0.0,-5.0252,-5.1429,-5.1511,-5.0713,-5.1006,-5.0914,-5.0483,-5.0201,-5.0206,-5.031,-4.9542,-4.8872,-4.8164,-4.6774,-4.7028,-4.7771,-4.5794,-4.5942,-4.6926,-4.6532,-4.6322,-4.6372,-4.7129,-4.6543,0.0,-4.6408,-4.5846,-4.5162,-4.5614,-4.5777,-4.5911,-4.6363,-4.6376,-4.6307,-4.6339,-4.5359,-4.4614,-4.5212,-4.3929,-4.2848,-4.3298,-4.1821,-4.0403,-3.9882,-3.8823,-3.8365,-3.9092,-3.9817,-4.0466,-4.1022,-3.97,-3.9492,-4.1225,-3.8764,-3.8035,-4.0156,-3.9295,-3.8355,-3.7598,-3.7711,-3.7452,-3.6772,-3.6448,-3.6405,-3.6691,-3.5856,-3.5642,-3.5954,-3.3756,-3.3007,0.0,0.0,0.0,0.0,0.0,0.0,0.0,0.0,0.0,0.0,0.0,-3.6814,0.0,0.0,-4.1939,-4.4025,-4.6021,-4.7785,-4.92,-4.9752,-4.9717,-4.8896,-4.9855,-5.0407,-4.9982,-5.0321,-5.039,-4.9964,-4.9993,-5.0011,-5.0011,-4.9631,-4.9206,-4.881,-4.9172,-4.9189,-4.8792,-4.9614,-5.0011,-5.0011,-5.0373,-5.0562,-5.0597,-5.1718,-5.1981,-5.1653,-5.208,-5.1821,-5.1045,-5.0304,-5.008,-5.0171,-5.0025,-4.9734,-4.9309,-4.8216,-4.8286,-4.8653,-4.7047,-4.6793,-4.7149,-4.6815,-4.643,-4.6185,-4.667,-4.5711,-4.459,-4.4989,-4.4027,-4.3172,-4.4385,-4.4781,-4.5147,-4.6369,-4.6684,-4.6747,-4.6799,-4.647,-4.6173,-4.6225,-4.5504,-4.4886,-4.4749,-4.3836,-4.2921,-4.234,-4.1388,-4.0816,-4.1084,-4.131,-4.1486,-4.1581,-4.087,-4.0813,-4.2002,-4.0464,-3.9897,-4.0966,-4.0089,-3.9343,-3.8958,-3.8586,-3.8391,-3.8391,-3.8051,-3.7857,-3.7857,-3.703,-3.662,-3.6506,-3.5444,-3.4984,0.0,0.0,0.0,0.0,0.0,0.0,0.0,0.0,-3.5891,-3.6322,-3.832,-4.0323,-4.1369,-4.267,-4.4462,-4.7054,-4.7402,-4.8225,-5.0752,-5.0597,-4.9924,-4.912,-5.0119,-5.0907,-5.0907,-5.0907,-5.0907,-5.0907,-5.0338,-5.0011,-5.0011,-5.0011,-4.9717,-4.9034,-4.9666,-4.97,-4.9034,-4.9683,-5.0011,-5.0011,-5.0011,-5.0321,-5.0925,-5.1791,-5.2188,-5.2222,-5.3063,-5.2528,-5.1063,-5.0476,-5.0131,-5.0051,-5.0274,-5.038,-5.0404,-4.9948,-4.9765,-4.965,-4.8846,-4.8216,-4.7707,-4.7485,-4.6938,-4.6384,-4.646,-4.502,-4.34,-4.3333,-4.2057,-4.1047,-4.2567,-4.3269,-4.4004,-4.5865,-4.6449,-4.6611,-4.6756,-4.6807,-4.6842,-4.6876,-4.6738,-4.6563,-4.6439,-4.5527,-4.4433,-4.3267,-4.2457,-4.1947,-4.1877,-4.2028,-4.1981,-4.1549,-4.2139,-4.2602,-4.2602,-4.2099,-4.1758,-4.1612,-4.0542,-3.9846,-3.9716,-3.8991,-3.8602,-3.8602,-3.8472,-3.8391,-3.8391,-3.7809,-3.745,-3.7323,-3.6609,-3.6169,-2.4544,-2.4129,-2.5984,-2.9301,-3.3052,-3.6205,0.0,0.0,-4.4096,-4.3638,-4.5822,-4.785,-4.7796,-4.8097,-4.8827,-5.0367,-5.0045,-4.9959,-5.0976,-5.1045,-5.0718,-4.9959,-5.0028,-5.0131,-5.0131,-5.0131,-5.0131,-5.0131,-5.0062,-5.0011,-5.0011,-5.0011,-4.9959,-4.9873,-4.9959,-4.9959,-4.9873,-4.9959,-5.0011,-5.0011,-5.0011,-5.0045,-5.0183,-5.158,-5.2188,-5.2222,-5.3063,-5.2528,-5.1097,-5.1028,-5.0667,-5.0189,-5.0217,-5.0114,-5.004,-5.055,-5.075,-5.0618,-4.9837,-4.9283,-4.8825,-4.7759,-4.7202,-4.7038,-4.7345,-4.6876,-4.6203,-4.5934,-4.5946,-4.5649,-4.4015,-4.4317,-4.5042,-4.4957,-4.5205,-4.5635,-4.6244,-4.6512,-4.6703,-4.6892,-4.6738,-4.6668,-4.6823,-4.6712,-4.5991,-4.4131,-4.2908,-4.2317,-4.2693,-4.2542,-4.2511,-4.2925,-4.2751,-4.2602,-4.2602,-4.2522,-4.2245,-4.1644,-4.145,-4.1077,-4.0415,-3.9748,-3.9392,-3.9392,-3.8732,-3.8391,-3.8391,-3.8327,-3.8278,-3.8234,-3.7506,-3.6734,-2.8425,-3.0252,0.0,0.0,-3.9161,-4.2053,-4.381,-4.5743,-4.7204,-4.7352,-4.8635,-4.9693,-4.9539,-4.8899,-4.899,0.0,-5.0155,-4.9976,-5.1528,-5.136,-5.0994,-5.0683,-4.9873,-4.912,-4.8717,-4.9476,-4.9631,-4.8734,-4.9493,-5.0011,-5.0011,-5.0011,-5.0011,-5.0011,-5.0011,-5.0011,-5.0011,-5.0011,-5.0011,-5.0011,-5.0011,-5.0011,-5.0062,-5.1545,-5.267,-5.3546,-5.3442,-5.2787,-5.1718,-5.1287,-5.0695,-5.0092,-5.016,-5.0217,-5.0228,-5.0415,-5.0359,-5.0091,-4.9418,-4.8786,-4.8179,-4.7253,-4.6309,-4.5559,-4.5707,-4.5297,-4.4759,-4.4634,-4.5257,-4.57,-4.4802,-4.5412,-4.6198,-4.6009,-4.6113,-4.6244,-4.6308,-4.6372,-4.6442,-4.6547,-4.6423,-4.6388,-4.6668,-4.6738,-4.6459,-4.5637,-4.4741,-4.4067,-4.3738,-4.3666,-4.3379,-4.28,-4.259,-4.2315,-4.1912,-4.1896,-4.199,-4.218,-4.1839,-4.1466,-4.1158,-4.0448,-3.991,-3.9522,-3.9185,-3.8812,-3.8391,-3.8391,-3.8391,-3.8391,-3.8084,-3.7748,-3.2426,0.0,0.0,-4.1295,-4.3757,-4.5902,-4.8117,-4.8732,-4.9036,-4.9557,-4.9948,-5.016,-5.008,-4.9193,0.0,-5.0804,-5.0224,-5.0115,-5.1683,-5.1459,-5.0959,-5.0557,-4.9493,-4.8372,-4.7227,-4.8665,-4.9304,-4.8379,-4.9373,-5.0011,-5.0011,-5.0011,-5.0011,-5.0011,-5.0011,-5.0011,-5.0011,-5.0011,-5.0011,-5.0011,-5.0011,-5.0011,-5.0062,-5.1545,-5.3032,-5.4477,-5.3942,-5.3132,-5.2153,-5.1572,-5.0796,-4.9889,-4.975,-4.9732,-4.9744,-4.9415,-4.9415,-4.9492,-4.8894,-4.8183,-4.7496,-4.6822,-4.5859,-4.4897,-4.4779,-4.4274,-4.3707,-4.3402,-4.4041,-4.4642,-4.4074,-4.4746,-4.5541,-4.5453,-4.5523,-4.5619,-4.5722,-4.5801,-4.592,-4.6127,-4.6068,-4.6084,-4.6353,-4.6458,-4.6512,-4.6512,-4.6215,-4.5715,-4.5014,-4.4857,-4.4378,-4.3202,-4.2896,-4.2461,-4.1753,-4.1511,-4.1558,-4.1879,-4.1442,-4.1279,-4.1551,-4.0825,-4.0337,-4.0089,-3.9894,-3.9412,-3.8699,-3.8699,-3.8602,-3.8391,-3.8391,-3.8391,0.0,0.0,-3.6085,-4.2277,-4.4876,-4.6341,-4.8188,-4.9518,-5.0384,-5.0522,-5.038,-5.0189,-5.0189,-5.0057,-5.0183,-5.0976,-5.1063,-5.1063,-5.1132,-5.1132,-5.0574,-4.9232,-4.8912,-4.7969,0.0,-4.7582,-4.9137,-4.989,-4.9976,-5.0011,-5.0011,-5.0011,-5.0011,-5.0011,-5.0011,-5.0011,-5.0011,-5.0011,-5.0011,-5.0011,-5.0011,-5.0011,-5.0062,-5.1545,-5.3032,-5.4512,-5.4494,-5.3615,-5.2188,-5.2049,-5.1064,-4.9649,-4.8793,-4.8319,-4.8062,-4.7374,-4.806,-4.9223,-4.8534,-4.7866,-4.7226,-4.6763,-4.6435,-4.615,-4.5703,-4.5133,-4.4429,-4.34,-4.3434,-4.3255,-4.1202,-4.1441,-4.2159,-4.1855,-4.2,-4.2622,-4.3966,-4.4535,-4.4938,-4.567,-4.5796,-4.5796,-4.5832,-4.6088,-4.6285,-4.6285,-4.6601,-4.6775,-4.6569,-4.5955,-4.533,-4.4771,-4.4107,-4.3331,-4.2445,-4.1785,-4.1063,-4.0235,-4.0171,-4.0521,-4.1382,-4.0691,-4.0686,-4.1531,-4.082,-4.0124,-3.9473,-3.9473,-3.9116,-3.8391,-3.8391,-3.8391,0.0,0.0,-4.1758,-4.3997,-4.6508,-4.8723,-4.9872,-4.994,-4.9943,-5.0377,-4.9152,-4.7966,-4.7902,-4.7088,-4.6974,-4.8702,-4.8104,-4.8301,-5.0752,-4.8913,-4.7907,-4.9481,-4.8297,0.0,0.0,0.0,0.0,-4.7803,-4.9148,-5.0011,-5.0011,-5.0011,-5.0011,-5.0011,-5.0011,-5.0011,-5.0011,-5.0011,-5.0011,-5.0011,-5.0011,-5.0528,-5.1464,-5.1964,-5.2647,-5.3421,-5.3421,-5.2501,-5.1008,-5.0946,-5.041,-4.953,-4.9243,-4.8838,-4.8349,-4.7655,-4.7324,-4.7191,-4.673,-4.6416,-4.6119,-4.5488,-4.4939,-4.4497,-4.4319,-4.3816,-4.3226,-4.2865,-4.3023,-4.3146,-4.2396,-4.2704,-4.312,-4.3031,-4.3085,-4.3211,-4.3434,-4.3564,-4.3698,-4.3968,-4.4015,-4.4086,-4.435,-4.451,-4.4808,-4.553,-4.6378,-4.6876,-4.6807,-4.6613,-4.5981,-4.4736,-4.4364,-4.3735,-4.251,-4.1675,-4.1114,-4.0968,-4.041,-4.0235,-4.0537,-4.0312,-4.0071,-3.9875,-3.9634,-3.9138,-3.8431,-3.8431,-3.8319,-3.8078,-3.8078,-3.8078,0.0,-4.0722,-4.466,-4.6559,-4.8355,-4.9854,-5.0715,-5.0169,-4.9614,-5.0003,-4.8641,-4.7195,-4.6508,-4.5597,-4.5536,-4.7262,-4.6698,-4.7165,-5.0409,-4.8691,-4.7765,-4.9532,-4.8342,0.0,0.0,0.0,0.0,-4.7448,-4.878,-4.9608,-4.9579,-4.9608,-4.9729,-4.9993,-5.0011,-5.0011,-5.0011,-5.0011,-5.0011,-5.0011,-5.0011,-5.0787,-5.2188,-5.2188,-5.2354,-5.2649,-5.2829,-5.1845,-5.0148,-5.0266,-4.9926,-4.932,-4.8748,-4.8288,-4.7851,-4.69,-4.615,-4.5613,-4.5567,-4.5421,-4.5253,-4.4761,-4.4317,-4.3978,-4.3978,-4.3479,-4.2956,-4.2956,-4.2937,-4.2916,-4.2916,-4.2958,-4.2946,-4.2946,-4.2742,-4.2563,-4.2567,-4.2559,-4.2621,-4.2869,-4.2916,-4.2987,-4.3271,-4.3411,-4.3763,-4.4588,-4.564,-4.6463,-4.6844,-4.6876,-4.6486,-4.5462,-4.5123,-4.4477,-4.3283,-4.2189,-4.1355,-4.0843,-4.0078,-3.9633,-3.9633,-3.9633,-3.9551,-3.942,-3.9374,-3.9022,-3.8272,-3.8272,-3.8144,-3.7905,-3.7905,-3.7905,-4.2415,-4.4048,-4.4899,-4.9577,-5.0159,-4.9773,-5.0581,-5.0142,-4.9518,-4.9353,-4.861,-4.7431,0.0,0.0,-4.5442,-4.6439,-4.6578,-4.7419,-4.9935,-5.0083,-4.9777,0.0,0.0,0.0,0.0,0.0,0.0,-4.8792,0.0,-4.8985,-4.8861,-4.8985,-4.9331,-4.9976,-5.0011,-5.0011,-5.0011,-5.0011,-5.0011,-5.0011,-5.0045,-5.0821,-5.2188,-5.2222,-5.2222,-5.2161,-5.2635,-5.1583,-4.9611,-4.9853,-4.961,-4.8937,-4.7389,-4.6777,-4.6569,-4.5179,-4.4648,-4.4648,-4.5024,-4.4911,-4.461,-4.461,-4.461,-4.461,-4.461,-4.4163,-4.3655,-4.3655,-4.3156,-4.2663,-4.2663,-4.2155,-4.1632,-4.1617,-4.1078,-4.072,-4.1401,-4.154,-4.174,-4.2371,-4.2494,-4.2494,-4.2494,-4.2751,-4.3126,-4.3542,-4.4541,-4.5589,-4.6662,-4.686,-4.6876,-4.6876,-4.6261,-4.5514,-4.4735,-4.3331,-4.1772,-4.0051,-3.9242,-3.8828,-3.8796,-3.8764,-3.9111,-3.9934,-3.995,-3.9614,-3.8912,-3.8912,-3.856,-3.7876,-3.7876,-3.7876,-4.0425,-4.4007,-4.7683,-4.8357,-4.9537,-5.028,-4.9336,-4.9868,-4.9818,-4.7282,-4.5099,-4.2895,0.0,0.0,0.0,-4.2081,-4.2982,0.0,-4.805,-4.7422,0.0,0.0,0.0,-4.8372,-4.9349,-4.9597,0.0,0.0,-4.9401,-4.9729,-4.97,-4.9729,-4.9815,-4.9993,-5.0011,-5.0011,-5.0011,-5.0011,-5.0011,-5.0011,-5.0562,-5.1321,-5.2205,-5.2839,-5.2475,-5.1439,-5.1579,-5.0234,-4.8,-4.8068,-4.782,-4.7389,-4.6949,-4.6464,-4.5933,-4.5567,-4.5067,-4.461,-4.4723,-4.4701,-4.461,-4.461,-4.461,-4.461,-4.461,-4.4486,-4.4363,-4.4363,-4.387,-4.3362,-4.3362,-4.2848,-4.2232,-4.1724,-4.1463,-4.1232,-4.0843,-4.0766,-4.0812,-4.0981,-4.1028,-4.1028,-4.1028,-4.1117,-4.1461,-4.2375,-4.3431,-4.4509,-4.5573,-4.6431,-4.6876,-4.6876,-4.6714,-4.6309,-4.558,-4.4623,-4.3363,-4.1836,-4.0368,-3.9305,-3.8812,-3.8167,-3.7947,-3.8152,-3.8152,-3.8072,-3.7898,-3.7898,-3.7803,-3.7599,-3.7599,-3.7599,-4.2634,-4.5621,-4.8406,-4.8244,-4.9342,-4.9827,-4.7352,-4.7255,-4.6636,-4.3078,-4.103,0.0,0.0,0.0,0.0,0.0,0.0,0.0,-4.763,-4.7523,-4.7469,0.0,-4.8367,0.0,-4.989,-5.0011,-4.9821,0.0,-4.9453,-4.9551,-4.9493,-4.9551,-4.9706,-4.9993,-5.0011,-5.0011,-5.0011,-5.0011,-5.0011,-5.0011,-5.0752,-5.1232,-5.1524,-5.2296,-5.1739,-5.0157,0.0,-4.9143,-4.7067,-4.7255,-4.7103,-4.6777,-4.6429,-4.604,-4.566,-4.5348,-4.4971,-4.461,-4.461,-4.461,-4.461,-4.461,-4.461,-4.461,-4.461,-4.461,-4.461,-4.461,-4.4348,-4.4055,-4.4055,-4.3525,-4.2925,-4.2556,-4.2017,-4.1494,-4.1078,-4.072,-4.0489,-4.0489,-4.0489,-4.0489,-4.0489,-4.0489,-4.0682,-4.131,-4.2717,-4.392,-4.4525,-4.5936,-4.6876,-4.6876,-4.6876,-4.6714,-4.6309,-4.5562,-4.4623,-4.3428,-4.1853,-4.0432,-3.9273,-3.8483,-3.7886,-3.751,-3.751,-3.751,-3.751,-3.751,-3.751,-3.751,-3.751,-3.751,-4.6045,-4.746,-4.795,-4.8498,-4.9205,-4.8918,-4.5609,-4.4078,-4.2317,-3.8628,0.0,-3.5567,-3.3584,0.0,-3.7418,-3.9313,0.0,-4.5101,-4.7204,-4.8432,-4.9057,-4.8839,-4.8955,-4.9301,-4.9924,-4.9907,-4.989,-4.9993,-4.9441,-4.9089,-4.8976,-4.9061,-4.94,-4.9976,-5.0009,-5.0009,-5.0011,-5.0009,-4.9985,-4.9956,-5.0665,-5.0861,-5.0544,-5.1274,-5.0607,-4.8872,0.0,0.0,-4.6577,-4.6897,-4.6841,-4.6429,-4.5805,-4.5551,-4.5494,-4.4821,-4.461,-4.461,-4.461,-4.461,-4.461,-4.461,-4.461,-4.461,-4.461,-4.461,-4.461,-4.461,-4.461,-4.461,-4.461,-4.4178,-4.3716,-4.3624,-4.273,-4.1817,-4.1632,-4.1032,-4.0489,-4.0489,-4.0489,-4.0489,-4.0489,-4.0489,-4.0489,-4.0489,-4.2344,-4.3709,-4.3709,-4.5576,-4.6876,-4.6876,-4.6876,-4.6876,-4.6876,-4.6309,-4.5628,-4.4799,-4.3428,-4.1964,-4.0353,-3.9415,-3.8577,-3.7824,-3.7605,-3.751,-3.751,-3.751,-3.751,-3.751,-3.751,-3.751,-4.4544,-4.6076,-4.7784,-4.7355,-4.8176,-4.8565,-4.662,-4.4351,0.0,0.0,0.0,-3.1958,-3.2285,-3.3296,0.0,-3.8646,0.0,0.0,0.0,0.0,-4.7777,0.0,0.0,0.0,0.0,0.0,0.0,0.0,0.0,0.0,-4.9804,-4.9804,-4.9884,-5.0011,-5.0008,-5.0011,-5.0011,-4.9994,-4.991,-4.9685,-5.0266,-5.0409,-5.023,-5.0775,-5.0347,-4.9233,-4.9288,0.0,-4.62,-4.625,-4.5772,-4.4971,-4.4821,-4.4783,-4.4799,-4.4648,-4.461,-4.461,-4.461,-4.461,-4.461,-4.461,-4.461,-4.461,-4.461,-4.461,-4.461,-4.461,-4.461,-4.461,-4.461,-4.4533,-4.4302,-4.3747,-4.3424,-4.2961,-4.1832,-4.1032,-4.0489,-4.0489,-4.0489,-4.0489,-4.0489,-4.0489,-4.0489,-4.0489,-4.2344,-4.3709,-4.3709,-4.5576,-4.6876,-4.6876,-4.6876,-4.6876,-4.6876,-4.6763,-4.639,-4.5644,-4.467,-4.3733,-4.2896,-4.0767,-3.956,-3.9402,-3.8139,-3.751,-3.751,-3.751,-3.751,-3.751,-3.751,-3.751,-4.3695,-4.5407,-4.7473,-4.7014,-4.7638,-4.7208,-4.2703,0.0,0.0,0.0,0.0,-2.7552,-2.7609,0.0,0.0,0.0,0.0,0.0,0.0,0.0,0.0,0.0,0.0,0.0,0.0,0.0,0.0,0.0,0.0,0.0,-5.0129,-5.0146,-5.0165,-5.0149,-5.0052,-4.9924,-4.9796,-4.9775,-4.9659,-4.9458,-4.9982,-4.9892,-4.9293,-4.9823,-4.9439,-4.8349,-4.8349,0.0,-4.5003,-4.5709,-4.5041,-4.3618,-4.431,-4.461,-4.461,-4.461,-4.461,-4.461,-4.461,-4.461,-4.461,-4.461,-4.461,-4.461,-4.461,-4.461,-4.461,-4.461,-4.461,-4.461,-4.461,-4.461,-4.4533,-4.4209,-4.3855,-4.3239,-4.1878,-4.1324,-4.097,-4.0566,-4.0489,-4.0489,-4.0489,-4.0489,-4.0489,-4.0489,-4.2344,-4.3709,-4.3709,-4.5576,-4.6876,-4.6876,-4.6876,-4.6876,-4.6876,-4.6876,-4.673,-4.639,-4.5611,-4.4833,-4.404,-4.2559,-4.1102,-3.9845,-3.9085,-3.8296,-3.751,-3.751,-3.751,-3.751,-3.751,-3.751,-4.3536,-4.5301,-4.7171,-4.6963,-4.7173,-4.5813,-3.9525,-3.6756,0.0,0.0,-2.486,-2.3883,-2.4092,0.0,0.0,0.0,0.0,0.0,0.0,0.0,0.0,0.0,0.0,0.0,0.0,0.0,0.0,0.0,0.0,0.0,-5.0335,-5.0369,-5.0318,-5.0291,-5.0076,-4.9859,-4.9592,-4.9581,-4.9433,-4.9238,-4.9556,-4.9251,-4.8384,-4.8731,-4.837,-4.7517,-4.738,0.0,0.0,-4.5263,-4.451,-4.274,-4.4064,-4.461,-4.461,-4.461,-4.461,-4.461,-4.461,-4.461,-4.461,-4.461,-4.461,-4.461,-4.461,-4.461,-4.461,-4.461,-4.461,-4.461,-4.461,-4.461,-4.461,-4.461,-4.4101,-4.3285,-4.2063,-4.1694,-4.1386,-4.0628,-4.0489,-4.0489,-4.0489,-4.0489,-4.0489,-4.0489,-4.2134,-4.3431,-4.3658,-4.5378,-4.6562,-4.6562,-4.6562,-4.6645,-4.6876,-4.6678,-4.6662,-4.6876,-4.6358,-4.5708,-4.5041,-4.4186,-4.2816,-4.0863,-4.0163,-3.9196,-3.7997,-3.7652,-3.751,-3.751,-3.751,-3.751,-4.4503,-4.6005,-4.6945,-4.6927,-4.6459,-4.5129,-4.1781,0.0,0.0,0.0,-2.4678,-2.2555,-2.5663,-2.6909,0.0,0.0,0.0,0.0,0.0,0.0,0.0,0.0,0.0,0.0,0.0,0.0,0.0,0.0,0.0,0.0,-5.0576,-5.0576,-5.0476,-5.0308,-5.0058,-4.9808,-4.9608,-4.9422,-4.9239,-4.8996,-4.866,-4.8313,-4.8019,-4.7658,-4.7533,-4.7546,-4.6942,0.0,0.0,-4.5037,-4.4289,-4.274,-4.4064,-4.461,-4.461,-4.461,-4.461,-4.461,-4.461,-4.461,-4.461,-4.461,-4.461,-4.461,-4.461,-4.461,-4.461,-4.461,-4.461,-4.461,-4.461,-4.461,-4.461,-4.461,-4.4101,-4.3408,-4.2679,-4.2032,-4.1386,-4.0628,-4.0489,-4.0489,-4.0489,-4.0489,-4.0489,-4.0489,-4.1503,-4.262,-4.3561,-4.4721,-4.5458,-4.5458,-4.5458,-4.5853,-4.6828,-4.6001,-4.5853,-4.6844,-4.6828,-4.6747,-4.6682,-4.5236,-4.433,-4.4169,-4.1294,-3.9735,-3.9608,-3.8171,-3.751,-3.751,-3.751,-3.751,-4.1294,-4.3361,-4.5327,-4.5596,-4.5419,-4.3735,-3.8214,0.0,0.0,-2.5821,-2.2857,-2.1698,-2.3067,-2.3873,-2.5954,0.0,0.0,0.0,0.0,0.0,0.0,0.0,0.0,0.0,0.0,0.0,0.0,0.0,0.0,0.0,-5.0505,-5.0438,-5.0317,-5.0228,-4.9769,-4.9415,-4.9263,-4.9174,-4.8958,-4.8565,-4.8281,-4.7996,-4.7752,-4.7553,-4.7284,-4.6978,-4.6906,0.0,0.0,-4.4487,-4.3753,-4.1535,-4.3741,-4.461,-4.461,-4.461,-4.461,-4.461,-4.461,-4.461,-4.461,-4.461,-4.461,-4.461,-4.461,-4.461,-4.461,-4.461,-4.461,-4.461,-4.461,-4.461,-4.461,-4.461,-4.4409,-4.3932,-4.2833,-4.2402,-4.1878,-4.0705,-4.0489,-4.0489,-4.0489,-4.0489,-4.0489,-4.0489,-4.1407,-4.2247,-4.2667,-4.3658,-4.4344,-4.4344,-4.4934,-4.5474,-4.5886,-4.5557,-4.5755,-4.6844,-4.6876,-4.6876,-4.6876,-4.6291,-4.5478,-4.4573,-4.333,-4.1757,-3.9783,-3.918,-3.8407,-3.751,-3.751,-3.751,-3.8938,-4.1662,-4.4338,-4.4688,-4.3994,-4.1552,0.0,0.0,0.0,-2.3359,-2.1649,-2.1246,-2.1119,-2.1568,-2.3319,0.0,0.0,0.0,0.0,0.0,0.0,0.0,0.0,0.0,0.0,0.0,0.0,0.0,0.0,0.0,0.0,-5.0089,-4.9965,-5.0026,-4.9534,-4.9221,-4.8996,-4.8914,-4.8692,-4.8286,-4.8091,-4.7576,-4.6807,-4.7156,-4.6807,-4.5949,0.0,0.0,0.0,-4.422,-4.353,-4.1335,-4.3679,-4.461,-4.461,-4.461,-4.461,-4.461,-4.461,-4.461,-4.461,-4.461,-4.461,-4.461,-4.461,-4.461,-4.461,-4.461,-4.461,-4.461,-4.461,-4.461,-4.461,-4.461,-4.461,-4.4218,-4.2894,-4.2602,-4.2186,-4.0766,-4.0489,-4.0489,-4.0489,-4.0489,-4.0489,-4.0489,-4.1133,-4.1762,-4.2069,-4.2749,-4.3236,-4.3236,-4.3904,-4.4623,-4.5261,-4.4998,-4.5426,-4.6828,-4.6876,-4.6876,-4.6876,-4.6876,-4.6372,-4.5219,-4.4782,-4.3346,-4.0879,-4.0163,-3.9133,-3.787,-3.7605,-3.751,-3.8601,-4.1884,-4.4388,-4.4721,-4.2054,-3.8411,0.0,0.0,0.0,-2.2791,-2.1632,-2.1214,-2.0942,-2.1022,-2.2528,-2.6812,0.0,0.0,0.0,0.0,0.0,0.0,0.0,0.0,0.0,0.0,0.0,0.0,0.0,0.0,0.0,-4.9517,-4.9396,-4.9597,-4.9396,-4.9194,-4.8996,-4.8759,-4.8495,-4.8286,-4.8091,-4.6917,-4.497,-4.6098,-4.5793,0.0,0.0,0.0,0.0,-4.4295,-4.3802,-4.2709,-4.4048,-4.461,-4.461,-4.461,-4.461,-4.461,-4.461,-4.461,-4.461,-4.461,-4.461,-4.461,-4.461,-4.461,-4.461,-4.461,-4.461,-4.461,-4.461,-4.461,-4.461,-4.461,-4.461,-4.4218,-4.2894,-4.2602,-4.2186,-4.0766,-4.0489,-4.0489,-4.0489,-4.0489,-4.0489,-4.0489,-4.0505,-4.0909,-4.1972,-4.21,-4.2134,-4.2134,-4.2134,-4.301,-4.5131,-4.4328,-4.4623,-4.6761,-4.6876,-4.6876,-4.6876,-4.6876,-4.6876,-4.686,-4.5317,-4.4153,-4.3444,-4.1006,-3.9448,-3.8764,-3.7886,-3.751,-3.2602,-3.476,-3.6573,-3.7138,-3.641,-3.4484,-3.0525,0.0,0.0,0.0,-2.1247,-2.1167,-2.0942,-2.0926,-2.2343,-2.6538,0.0,0.0,0.0,0.0,0.0,0.0,0.0,0.0,0.0,0.0,0.0,0.0,0.0,0.0,0.0,-4.8373,-4.8509,-4.9381,-4.9031,-4.8785,-4.8718,-4.862,-4.8265,-4.7598,-4.7572,-4.6356,-4.4258,-4.5713,0.0,0.0,0.0,0.0,0.0,-4.411,-4.3802,-4.274,-4.4064,-4.461,-4.461,-4.461,-4.461,-4.461,-4.461,-4.461,-4.461,-4.461,-4.461,-4.461,-4.461,-4.461,-4.461,-4.461,-4.461,-4.461,-4.461,-4.461,-4.461,-4.461,-4.461,-4.4218,-4.2894,-4.2602,-4.2186,-4.0766,-4.0489,-4.0489,-4.0489,-4.0489,-4.0489,-4.0489,-4.0489,-4.0636,-4.0955,-4.1021,-4.1021,-4.1021,-4.1021,-4.1875,-4.4018,-4.3904,-4.4623,-4.6761,-4.6876,-4.6876,-4.6876,-4.6876,-4.6876,-4.6876,-4.6405,-4.5496,-4.4169,-4.235,-4.0211,-3.7886,-3.7634,-3.751,0.0,-3.0736,-3.2162,-3.2602,-3.1807,0.0,0.0,0.0,0.0,0.0,0.0,0.0,0.0,0.0,0.0,0.0,0.0,0.0,0.0,0.0,0.0,0.0,0.0,0.0,0.0,0.0,0.0,0.0,0.0,0.0,0.0,-4.7379,-4.754,-4.8255,-4.8013,-4.785,-4.785,-4.785,-4.7512,-4.6911,-4.6911,-4.5776,-4.3677,-4.5212,0.0,0.0,0.0,0.0,0.0,-4.4271,-4.4095,-4.3433,-4.4264,-4.461,-4.461,-4.461,-4.461,-4.461,-4.461,-4.461,-4.461,-4.461,-4.461,-4.461,-4.461,-4.461,-4.461,-4.461,-4.461,-4.461,-4.461,-4.461,-4.461,-4.461,-4.4349,-4.3835,-4.2811,-4.2329,-4.1807,-4.0705,-4.0489,-4.0489,-4.0489,-4.0489,-4.0489,-4.0489,-4.0489,-4.0489,-4.0489,-4.0489,-4.0489,-4.0489,-4.0489,-4.1376,-4.3529,-4.3709,-4.4623,-4.6761,-4.653,-4.6479,-4.6876,-4.653,-4.6479,-4.6876,-4.6876,-4.6275,-4.4994,-4.2832,-4.0464,-3.7979,-3.7666,-3.751,0.0,0.0,0.0,0.0,0.0,0.0,0.0,0.0,0.0,0.0,0.0,0.0,0.0,0.0,0.0,0.0,0.0,0.0,0.0,0.0,0.0,0.0,0.0,0.0,0.0,0.0,0.0,0.0,0.0,0.0,0.0,-4.6526,-4.6511,-4.6449,-4.6449,-4.6496,-4.6603,-4.6603,-4.6478,-4.6186,-4.6232,-4.5137,-4.3143,-4.4572,0.0,0.0,0.0,0.0,0.0,-4.461,-4.461,-4.461,-4.461,-4.461,-4.461,-4.461,-4.461,-4.461,-4.461,-4.461,-4.461,-4.461,-4.461,-4.461,-4.461,-4.461,-4.461,-4.461,-4.461,-4.461,-4.461,-4.461,-4.461,-4.4548,-4.3883,-4.3164,-4.2606,-4.1873,-4.1143,-4.0593,-4.0489,-4.0489,-4.0489,-4.0489,-4.0489,-4.0489,-4.0489,-4.0489,-4.0489,-4.0489,-4.0489,-4.0489,-4.0489,-4.1376,-4.3529,-4.3709,-4.4591,-4.6662,-4.5936,-4.5837,-4.6745,-4.5886,-4.5869,-4.6876,-4.6876,-4.6504,-4.5693,-4.2655,-4.0399,-3.8844,-3.7918,-3.751,-2.0359,0.0,-2.2389,-2.302,-2.2588,-2.1995,0.0,0.0,0.0,0.0,0.0,0.0,0.0,0.0,0.0,0.0,0.0,0.0,0.0,0.0,0.0,0.0,0.0,0.0,0.0,0.0,0.0,0.0,0.0,0.0,0.0,-4.5834,-4.5588,-4.5064,-4.5049,-4.5541,-4.6588,-4.6603,-4.608,-4.5026,-4.551,-4.4419,-4.2053,-4.3896,0.0,0.0,0.0,0.0,-4.461,-4.461,-4.461,-4.461,-4.461,-4.461,-4.461,-4.461,-4.461,-4.461,-4.461,-4.461,-4.461,-4.461,-4.461,-4.461,-4.461,-4.461,-4.461,-4.461,-4.461,-4.461,-4.461,-4.461,-4.4486,-4.3978,-4.3583,-4.2989,-4.1847,-4.1428,-4.1107,-4.0469,-4.0436,-4.0489,-4.0489,-4.0489,-4.0489,-4.0489,-4.0489,-4.0489,-4.0489,-4.0489,-4.0489,-4.0489,-4.0489,-4.1376,-4.3529,-4.3709,-4.4262,-4.5573,-4.6217,-4.6265,-4.5688,-4.6233,-4.6645,-4.6876,-4.6876,-4.6227,-4.4799,-4.288,-4.1118,-3.9528,-3.8123,-3.751,-1.7567,-1.8439,-1.9666,-2.0931,-2.0458,-2.0,0.0,0.0,0.0,0.0,0.0,0.0,0.0,0.0,0.0,0.0,0.0,0.0,0.0,0.0,0.0,0.0,0.0,0.0,0.0,0.0,0.0,0.0,0.0,0.0,0.0,-4.5126,-4.4957,-4.4625,-4.461,-4.4926,-4.5664,-4.5664,-4.5141,-4.4163,-4.4803,-4.4202,-4.254,-4.3941,-4.4187,0.0,0.0,0.0,-4.4564,-4.3925,-4.4033,-4.461,-4.461,-4.461,-4.461,-4.461,-4.461,-4.461,-4.461,-4.461,-4.461,-4.461,-4.461,-4.461,-4.461,-4.461,-4.461,-4.461,-4.461,-4.4548,-4.424,-4.4148,-4.3994,-4.3279,-4.2732,-4.2193,-4.1474,-4.1005,-4.0634,-4.0338,-4.0366,-4.0436,-4.0489,-4.0489,-4.0489,-4.0489,-4.0489,-4.0489,-4.0489,-4.0489,-4.0489,-4.0489,-4.0489,-4.1148,-4.283,-4.2959,-4.3627,-4.5195,-4.536,-4.5325,-4.5053,-4.5291,-4.5904,-4.6876,-4.6738,-4.612,-4.5075,-4.2957,-4.139,-4.0353,-3.8405,-3.751,-1.6637,-1.7714,-1.9373,-2.1192,-1.9906,-1.8951,-2.1838,0.0,0.0,0.0,0.0,0.0,0.0,0.0,0.0,0.0,0.0,0.0,0.0,0.0,0.0,0.0,0.0,0.0,0.0,0.0,0.0,0.0,0.0,0.0,0.0,-4.461,-4.461,-4.461,-4.461,-4.461,-4.461,-4.461,-4.4271,-4.3624,-4.4286,-4.4255,-4.3624,-4.4302,-4.461,-4.4548,0.0,0.0,-4.4533,-4.3371,-4.3571,-4.461,-4.461,-4.461,-4.461,-4.461,-4.461,-4.461,-4.461,-4.461,-4.461,-4.461,-4.461,-4.4594,-4.4486,-4.4471,-4.444,-4.4295,-4.4379,-4.4302,-4.3639,-4.3454,-4.33,-4.2617,-4.1858,-4.1275,-4.1184,-4.0533,-4.0066,-4.0277,-4.0312,-4.0331,-4.0489,-4.0489,-4.0489,-4.0489,-4.0489,-4.0489,-4.0489,-4.0489,-4.0489,-4.0489,-4.0489,-4.1005,-4.2247,-4.2181,-4.2944,-4.4934,-4.4214,-4.4009,-4.476,-4.4332,-4.4963,-4.6775,-4.6547,-4.6207,-4.5852,-4.3049,-4.1548,-4.1213,-3.8674,-3.751,-1.7076,-1.77,-1.8602,-2.0422,-1.9076,-1.8269,0.0,0.0,0.0,0.0,0.0,0.0,0.0,0.0,0.0,0.0,0.0,0.0,0.0,0.0,0.0,0.0,0.0,0.0,0.0,0.0,0.0,0.0,0.0,0.0,0.0,-4.461,-4.461,-4.461,-4.461,-4.461,-4.461,-4.461,-4.4271,-4.3624,-4.4286,-4.4255,-4.3624,-4.4302,-4.461,-4.461,0.0,-4.4387,-4.4594,-4.4394,-4.4387,-4.461,-4.461,-4.461,-4.461,-4.461,-4.461,-4.461,-4.461,-4.461,-4.461,-4.461,-4.461,-4.4502,-4.3932,-4.3762,-4.3655,-4.3063,-4.331,-4.3608,-4.2925,-4.2756,-4.2586,-4.1909,-4.1505,-4.1153,-4.0587,-4.0213,-4.0066,-4.0277,-4.0312,-4.0331,-4.0489,-4.0489,-4.0489,-4.0489,-4.0489,-4.0489,-4.0489,-4.0489,-4.0489,-4.0489,-4.0489,-4.131,-4.3302,-4.2636,-4.2636,-4.3854,-4.3807,-4.4164,-4.5176,-4.5655,-4.6042,-4.6407,-4.6668,-4.6604,-4.6231,-4.3437,-4.2061,-4.1965,-3.8926,-3.751,-1.6593,-1.7334,-1.8785,-2.2092,-2.1058,-2.078,0.0,0.0,0.0,0.0,0.0,0.0,0.0,0.0,0.0,0.0,0.0,0.0,0.0,0.0,0.0,0.0,0.0,0.0,0.0,0.0,0.0,0.0,0.0,0.0,0.0,0.0,-4.461,-4.461,-4.461,-4.461,-4.461,-4.461,-4.4271,-4.3624,-4.4286,-4.4255,-4.3624,-4.4302,-4.461,-4.4579,0.0,-4.3925,-4.4526,-4.3802,-4.3941,-4.461,-4.461,-4.461,-4.461,-4.461,-4.461,-4.461,-4.461,-4.4379,-4.4071,-4.4071,-4.3802,-4.3448,-4.314,-4.3048,-4.291,-4.2248,-4.254,-4.291,-4.2232,-4.2063,-4.1878,-4.1186,-4.0876,-4.0659,-4.0248,-4.0066,-4.0031,-4.0101,-4.0242,-4.0331,-4.0489,-4.0489,-4.0489,-4.0489,-4.0489,-4.0489,-4.0489,-4.0489,-4.0489,-4.0489,-4.0489,-4.0909,-4.189,-4.1519,-4.1697,-4.2764,-4.2997,-4.3517,-4.4392,-4.546,-4.614,-4.6301,-4.6317,-4.6317,-4.6285,-4.3101,-4.1801,-4.2126,-3.899,-3.7391,-1.6351,-1.7075,-1.8799,-2.3179,0.0,-2.2636,-3.0405,0.0,0.0,0.0,0.0,0.0,0.0,0.0,0.0,0.0,0.0,0.0,0.0,0.0,0.0,0.0,0.0,0.0,0.0,0.0,0.0,0.0,0.0,0.0,0.0,0.0,-4.461,-4.461,-4.461,-4.461,-4.461,-4.461,-4.4348,-4.3855,-4.4363,-4.4348,-4.3855,-4.4379,-4.461,-4.4526,-4.351,-4.3648,-4.4533,-4.3479,-4.3664,-4.461,-4.461,-4.461,-4.461,-4.461,-4.4517,-4.4379,-4.4379,-4.3947,-4.3393,-4.3393,-4.3017,-4.2586,-4.2417,-4.2371,-4.2232,-4.154,-4.1724,-4.2001,-4.1478,-4.134,-4.1166,-4.0593,-4.0366,-4.0277,-4.0101,-4.0031,-4.0031,-4.0101,-4.0207,-4.0331,-4.0489,-4.0489,-4.0489,-4.0489,-4.0489,-4.0489,-4.0489,-4.0489,-4.0489,-4.0489,-4.0489,-4.0489,-4.0489,-4.0747,-4.1117,-4.1697,-4.2359,-4.2967,-4.3535,-4.5017,-4.5868,-4.6052,-4.5889,-4.5941,-4.6195,-4.2795,-4.1522,-4.2126,-3.899,-3.7361,-1.7134,-1.7178,-1.7911,-2.1797,0.0,0.0,-3.0112,0.0,0.0,0.0,0.0,0.0,0.0,0.0,0.0,0.0,0.0,0.0,0.0,0.0,0.0,0.0,0.0,0.0,0.0,0.0,0.0,0.0,0.0,0.0,0.0,0.0,0.0,-4.461,-4.461,-4.461,-4.461,-4.461,-4.4594,-4.4548,-4.4594,-4.4594,-4.4548,-4.4594,-4.461,-4.4572,-4.4517,-4.4533,-4.461,-4.4517,-4.4533,-4.461,-4.461,-4.461,-4.461,-4.461,-4.4225,-4.3685,-4.3685,-4.3217,-4.2679,-4.2679,-4.2648,-4.2494,-4.1863,-4.1678,-4.1524,-4.0782,-4.0612,-4.0628,-4.0582,-4.0566,-4.0516,-4.0347,-4.0312,-4.0312,-4.0277,-4.0137,-4.0101,-4.0385,-4.0366,-4.0331,-4.0489,-4.0489,-4.0489,-4.0489,-4.0489,-4.0489,-4.0489,-4.0489,-4.0489,-4.0489,-4.0489,-4.0489,-4.0489,-4.1407,-4.1584,-4.0666,-4.2171,-4.3078,-4.3149,-4.4838,-4.5651,-4.5284,-4.5614,-4.5796,-4.5832,-4.2947,-4.1785,-4.2126,-3.899,-3.748,-1.6388,-1.7,-1.873,-2.3776,0.0,0.0,0.0,0.0,0.0,0.0,0.0,0.0,0.0,0.0,0.0,0.0,0.0,0.0,0.0,0.0,0.0,0.0,0.0,0.0,0.0,0.0,0.0,0.0,0.0,0.0,0.0,0.0,0.0,-4.461,-4.461,-4.461,-4.461,-4.461,-4.461,-4.461,-4.461,-4.461,-4.461,-4.461,-4.461,-4.461,-4.461,-4.461,-4.461,-4.461,-4.461,-4.4579,-4.4148,-4.3994,-4.3947,-4.3494,-4.3202,-4.2971,-4.2971,-4.254,-4.1986,-4.1986,-4.1678,-4.132,-4.154,-4.1601,-4.1632,-4.1786,-4.1817,-4.1724,-4.1294,-4.0828,-4.0597,-4.1023,-4.0688,-4.0312,-4.0312,-4.0242,-4.0242,-4.0331,-4.0401,-4.0436,-4.0489,-4.0489,-4.0489,-4.0489,-4.0489,-4.0489,-4.0489,-4.0489,-4.0489,-4.0489,-4.0489,-4.0489,-4.0489,-4.0859,-4.1125,-4.1186,-4.2206,-4.2895,-4.3078,-4.4585,-4.5358,-4.521,-4.5358,-4.5541,-4.5796,-4.2708,-4.1555,-4.2126,-3.8729,-3.7181,-1.6562,-1.7544,-1.9745,0.0,0.0,0.0,0.0,0.0,0.0,0.0,0.0,0.0,0.0,0.0,0.0,0.0,0.0,0.0,0.0,0.0,0.0,0.0,0.0,0.0,0.0,0.0,0.0,0.0,0.0,0.0,0.0,0.0,0.0,0.0,-4.461,-4.461,-4.461,-4.461,-4.461,-4.461,-4.461,-4.461,-4.461,-4.461,-4.461,-4.461,-4.461,-4.461,-4.461,-4.461,-4.4486,-4.424,-4.3562,-4.3264,-4.3217,-4.2771,-4.2479,-4.2294,-4.2294,-4.1832,-4.1294,-4.1524,-4.1263,-4.1001,-4.1709,-4.1925,-4.2017,-4.2479,-4.2602,-4.254,-4.2294,-4.154,-4.0951,-4.1392,-4.0887,-4.0312,-4.0312,-4.0312,-4.0296,-4.0331,-4.0436,-4.0489,-4.0489,-4.0489,-4.0489,-4.0489,-4.0489,-4.0489,-4.0489,-4.0489,-4.0489,-4.0489,-4.0489,-4.0489,-4.0489,-4.0489,-4.0797,-4.1555,-4.2232,-4.2788,-4.3247,-4.4512,-4.5136,-4.5024,-4.5024,-4.5284,-4.5796,-4.2859,-4.1661,-4.2126,-3.8919,-3.7324,-1.8048,-1.8972,0.0,0.0,0.0,0.0,0.0,0.0,0.0,0.0,0.0,0.0,0.0,0.0,0.0,0.0,0.0,0.0,0.0,0.0,0.0,0.0,0.0,0.0,0.0,0.0,0.0,0.0,0.0,0.0,0.0,0.0,0.0,0.0,-4.461,-4.461,-4.461,-4.461,-4.461,-4.461,-4.461,-4.461,-4.461,-4.461,-4.461,-4.461,-4.461,-4.461,-4.461,-4.4594,-4.4194,-4.3531,-4.2848,-4.2602,-4.2602,-4.2586,-4.2171,-4.1601,-4.1601,-4.114,-4.0628,-4.137,-4.1617,-4.174,-4.2417,-4.2617,-4.2617,-4.2633,-4.2633,-4.2771,-4.3454,-4.2602,-4.1566,-4.1357,-4.0816,-4.0312,-4.0312,-4.0312,-4.0331,-4.0455,-4.0489,-4.0489,-4.0489,-4.0489,-4.0489,-4.0489,-4.0489,-4.0489,-4.0489,-4.0489,-4.0489,-4.0489,-4.0489,-4.0489,-4.0489,-4.0489,-4.0797,-4.1555,-4.2232,-4.2894,-4.3578,-4.4629,-4.5024,-4.461,-4.461,-4.4986,-4.5796,-4.3434,-4.2268,-4.2142,-3.9518,-3.7991,-1.8697,0.0,0.0,0.0,0.0,0.0,0.0,0.0,0.0,0.0,0.0,0.0,0.0,0.0,0.0,0.0,0.0,0.0,0.0,0.0,0.0,0.0,0.0,0.0,0.0,0.0,0.0,0.0,0.0,0.0,0.0,0.0,0.0,0.0,-4.4723,-4.4799,-4.4799,-4.4927,-4.5017,-4.5017,-4.5017,-4.4852,-4.461,-4.461,-4.461,-4.461,-4.461,-4.4348,-4.387,-4.3387,-4.3079,-4.2833,-4.2155,-4.1909,-4.1832,-4.1324,-4.134,-4.1601,-4.1601,-4.1771,-4.2017,-4.2232,-4.2309,-4.2432,-4.3079,-4.3316,-4.3387,-4.3864,-4.4002,-4.4033,-4.4271,-4.3294,-4.2273,-4.2222,-4.1699,-4.1085,-4.0543,-4.0436,-4.0455,-4.0489,-4.0489,-4.0489,-4.0489,-4.0489,-4.0489,-4.0489,-4.0489,-4.0489,-4.0489,-4.0489,-4.0489,-4.0489,-4.0489,-4.0489,-4.0489,-4.0489,-4.1012,-4.2232,-4.2494,-4.2894,-4.3578,-4.4368,-4.4723,-4.461,-4.461,-4.4986,-4.5796,-4.3204,-4.1896,-4.1786,-3.8869,-3.7265,-2.0572,0.0,0.0,0.0,0.0,0.0,0.0,0.0,0.0,0.0,0.0,0.0,0.0,0.0,0.0,0.0,0.0,0.0,0.0,0.0,0.0,0.0,0.0,0.0,0.0,0.0,0.0,0.0,0.0,0.0,0.0,0.0,0.0,0.0,-4.4927,-4.5002,-4.5002,-4.5129,-4.5182,-4.5182,-4.5182,-4.4878,-4.4315,-4.4615,-4.4584,-4.4284,-4.3947,-4.3571,-4.314,-4.2479,-4.2202,-4.2171,-4.1755,-4.1601,-4.1586,-4.1417,-4.1632,-4.2001,-4.2001,-4.2263,-4.2648,-4.291,-4.2987,-4.311,-4.3809,-4.4009,-4.4086,-4.4502,-4.4425,-4.4271,-4.4548,-4.3602,-4.2602,-4.2602,-4.1878,-4.1047,-4.0597,-4.0489,-4.0489,-4.0489,-4.0489,-4.0489,-4.0489,-4.0489,-4.0489,-4.0489,-4.0489,-4.0489,-4.0489,-4.0489,-4.0489,-4.0489,-4.0489,-4.0489,-4.0489,-4.0751,-4.1417,-4.254,-4.2848,-4.3279,-4.3978,-4.4409,-4.461,-4.461,-4.461,-4.4787,-4.5169,-4.3239,-4.1919,-4.1081,-3.8783,-3.7305,0.0,0.0,0.0,0.0,0.0,0.0,0.0,0.0,0.0,0.0,0.0,0.0,0.0,0.0,0.0,0.0,0.0,0.0,0.0,0.0,0.0,0.0,0.0,0.0,0.0,0.0,0.0,0.0,0.0,0.0,0.0,0.0,0.0,-4.4911,-4.5129,-4.522,-4.522,-4.5257,-4.5257,-4.5257,-4.5157,-4.4725,-4.3965,-4.4555,-4.4425,-4.3737,-4.2875,-4.2525,-4.2463,-4.1786,-4.1509,-4.1509,-4.1509,-4.1509,-4.1586,-4.2263,-4.2556,-4.2617,-4.2679,-4.274,-4.2879,-4.3501,-4.3701,-4.3809,-4.4425,-4.461,-4.461,-4.461,-4.4178,-4.384,-4.4456,-4.3648,-4.2679,-4.2617,-4.1601,-4.0566,-4.0505,-4.0489,-4.0489,-4.0489,-4.0489,-4.0489,-4.0489,-4.0489,-4.0489,-4.0489,-4.0489,-4.0489,-4.0489,-4.0489,-4.0489,-4.0489,-4.0489,-4.0489,-4.0489,-4.1089,-4.1781,-4.2519,-4.3156,-4.3818,-4.4594,-4.461,-4.461,-4.461,-4.461,-4.4474,-4.4179,-4.3421,-4.2088,-4.0239,-3.9048,-3.7818,0.0,0.0,0.0,0.0,0.0,0.0,0.0,0.0,0.0,0.0,0.0,0.0,0.0,0.0,0.0,0.0,0.0,0.0,0.0,0.0,0.0,0.0,0.0,0.0,0.0,0.0,0.0,0.0,0.0,0.0,0.0,0.0,0.0,-4.5129,-4.5331,-4.5442,-4.5442,-4.5589,-4.5662,0.0,-4.4966,-4.4564,-4.4387,-4.42,-4.3669,-4.2823,-4.2109,-4.1817,-4.1755,-4.1047,-4.072,-4.072,-4.072,-4.072,-4.0812,-4.1555,-4.2155,-4.2679,-4.3187,-4.371,-4.4172,-4.4363,-4.4394,-4.4425,-4.4579,-4.461,-4.461,-4.461,-4.4517,-4.4425,-4.4579,-4.4009,-4.3233,-4.274,-4.1971,-4.1217,-4.0612,-4.0489,-4.0489,-4.0489,-4.0489,-4.0489,-4.0489,-4.0489,-4.0489,-4.0489,-4.0489,-4.0489,-4.0489,-4.0489,-4.0489,-4.0489,-4.0401,-4.0331,-4.0331,-4.0344,-4.0903,-4.2291,-4.249,-4.3177,-4.4526,-4.461,-4.461,-4.461,-4.461,-4.4474,-4.4179,-4.32,-4.1771,-3.9975,-3.8864,-3.7558,0.0,0.0,0.0,0.0,0.0,0.0,0.0,0.0,0.0,0.0,0.0,0.0,0.0,0.0,0.0,0.0,0.0,0.0,0.0,0.0,0.0,0.0,0.0,0.0,0.0,0.0,0.0,0.0,0.0,0.0,0.0,-4.5114,-4.5241,-4.5331,-4.5112,-4.5028,-4.5028,-4.4699,-4.4578,-4.4562,-4.4094,-4.3626,-4.3192,-4.2978,-4.2613,-4.2094,-4.1386,-4.1078,-4.1063,-4.0659,-4.0489,-4.0536,-4.0909,-4.1047,-4.1124,-4.1832,-4.2309,-4.2648,-4.2987,-4.334,-4.3633,-4.3633,-4.3633,-4.3633,-4.3633,-4.3848,-4.4132,-4.4132,-4.4132,-4.4209,-4.4533,-4.3639,-4.2617,-4.2617,-4.2094,-4.1401,-4.0659,-4.0489,-4.0489,-4.0489,-4.0489,-4.0489,-4.0489,-4.0489,-4.0489,-4.0489,-4.0489,-4.0489,-4.0489,-4.0489,-4.0489,-4.0489,-4.0366,-4.0312,-4.0312,-4.0391,-4.0806,-4.1614,-4.2001,-4.2701,-4.3951,-4.3982,-4.4173,-4.4572,-4.461,-4.4207,-4.3423,-4.288,-4.1456,-3.9197,-3.8593,-3.7493,0.0,0.0,0.0,0.0,0.0,0.0,0.0,0.0,0.0,0.0,0.0,0.0,0.0,0.0,0.0,0.0,0.0,0.0,0.0,0.0,0.0,0.0,0.0,0.0,0.0,0.0,0.0,0.0,0.0,0.0,-4.4787,-4.4971,-4.5081,-4.5081,-4.4569,-4.427,-4.427,-4.3564,-4.3212,-4.3212,-4.3051,-4.2474,-4.1566,-4.1566,-4.1527,-4.1386,-4.0751,-4.0489,-4.0489,-4.0489,-4.0489,-4.0551,-4.1186,-4.1417,-4.1494,-4.2186,-4.2432,-4.2448,-4.2571,-4.2602,-4.2602,-4.2602,-4.2602,-4.2602,-4.2602,-4.2987,-4.347,-4.3578,-4.3531,-4.3593,-4.4271,-4.3094,-4.1878,-4.2325,-4.2001,-4.1401,-4.0659,-4.0489,-4.0489,-4.0489,-4.0489,-4.0489,-4.0489,-4.0489,-4.0489,-4.0489,-4.0489,-4.0489,-4.0489,-4.0489,-4.0489,-4.0489,-4.0331,-4.0242,-4.0242,-4.0532,-4.0804,-4.0946,-4.1477,-4.2158,-4.3037,-4.3227,-4.3646,-4.4365,-4.4526,-4.3925,-4.2602,-4.2602,-4.1263,-3.8677,-3.8437,-3.7652,0.0,0.0,0.0,0.0,0.0,0.0,0.0,0.0,0.0,0.0,0.0,0.0,0.0,0.0,0.0,0.0,0.0,0.0,0.0,0.0,0.0,0.0,0.0,0.0,0.0,0.0,0.0,0.0,0.0,0.0,-4.3206,-4.3226,-4.335,-4.3477,-4.3434,-4.3372,-4.3372,-4.3258,-4.3212,-4.3196,-4.2396,-4.1535,-4.0662,-4.0662,-4.0662,-4.0628,-4.0536,-4.0489,-4.0489,-4.0489,-4.0489,-4.0505,-4.0597,-4.0643,-4.072,-4.1463,-4.174,-4.1817,-4.2402,-4.2602,-4.2602,-4.2602,-4.2602,-4.2602,-4.2602,-4.2663,-4.2848,-4.3454,-4.3171,-4.2879,-4.3578,-4.3094,-4.234,-4.1848,-4.1663,-4.1401,-4.0659,-4.0489,-4.0489,-4.0489,-4.0489,-4.0489,-4.0489,-4.0489,-4.0489,-4.0489,-4.0489,-4.0489,-4.0489,-4.0489,-4.0489,-4.0489,-4.0226,-4.0046,-4.0046,-3.9787,-3.9929,-4.0682,-4.084,-4.1261,-4.2143,-4.2908,-4.3356,-4.3485,-4.4204,-4.3925,-4.2602,-4.2602,-4.1509,-3.9336,-3.8752,-3.806,0.0,0.0,0.0,0.0,0.0,0.0,0.0,0.0,0.0,0.0,0.0,0.0,0.0,0.0,0.0,0.0,0.0,0.0,0.0,0.0,0.0,0.0,0.0,0.0,0.0,0.0,0.0,0.0,0.0,-4.2855,-4.3069,-4.3069,-4.3105,-4.3212,-4.27,-4.2427,-4.2427,-4.1949,-4.1678,-4.1678,-4.1264,-4.0886,-4.0489,-4.0489,-4.0489,-4.0489,-4.0489,-4.0489,-4.0489,-4.0489,-4.0489,-4.0489,-4.0489,-4.0489,-4.0536,-4.0843,-4.1001,-4.1047,-4.1304,-4.1397,-4.1397,-4.1397,-4.1397,-4.1397,-4.1397,-4.1724,-4.2186,-4.2848,-4.3094,-4.3217,-4.3531,-4.3094,-4.2432,-4.1755,-4.1294,-4.0874,-4.0566,-4.0489,-4.0489,-4.0489,-4.0489,-4.0489,-4.0489,-4.0489,-4.0489,-4.0489,-4.0489,-4.0489,-4.0489,-4.0489,-4.0489,-4.0489,-4.0207,-4.0011,-4.0011,-3.964,-3.958,-3.9937,-3.9952,-4.0362,-4.1245,-4.1659,-4.2308,-4.3257,-4.4158,-4.3925,-4.2602,-4.2602,-4.154,-3.9474,-3.8831,-3.8138,0.0,0.0,0.0,0.0,0.0,0.0,0.0,0.0,0.0,0.0,0.0,0.0,0.0,0.0,0.0,0.0,0.0,0.0,0.0,0.0,0.0,0.0,0.0,0.0,0.0,0.0,0.0,0.0,0.0,-4.2891,-4.3034,-4.2898,-4.2805,-4.2805,-4.193,-4.1488,-4.1488,-4.0805,-4.0489,-4.0489,-4.0489,-4.0489,-4.0489,-4.0489,-4.0489,-4.0489,-4.0489,-4.0489,-4.0489,-4.0489,-4.0489,-4.0489,-4.0489,-4.0489,-4.0489,-4.0489,-4.0489,-4.0489,-4.0489,-4.0489,-4.0489,-4.0489,-4.0489,-4.0489,-4.0489,-4.0858,-4.1463,-4.2155,-4.2694,-4.3146,-4.3316,-4.2971,-4.2432,-4.1755,-4.1186,-4.072,-4.0536,-4.0489,-4.0551,-4.0635,-4.0666,-4.0727,-4.0911,-4.0789,-4.0716,-4.0766,-4.0612,-4.0489,-4.0489,-4.0489,-4.0489,-4.0489,-4.0207,-4.0011,-4.0011,-3.964,-3.9388,-3.9388,-3.9388,-3.9706,-4.0332,-4.0586,-4.1328,-4.2589,-4.3538,-4.355,-4.2602,-4.2432,-4.1463,-3.9721,-3.9077,-3.84,0.0,0.0,0.0,0.0,0.0,0.0,0.0,0.0,0.0,0.0,0.0,0.0,0.0,0.0,0.0,0.0,0.0,0.0,0.0,0.0,0.0,0.0,0.0,0.0,0.0,0.0,0.0,0.0,0.0,-4.2602,-4.2638,-4.2037,-4.1683,-4.1683,-4.0955,-4.0586,-4.0586,-4.0505,-4.0489,-4.0489,-4.0489,-4.0489,-4.0489,-4.0489,-4.0489,-4.0489,-4.0489,-4.0489,-4.0489,-4.0489,-4.0489,-4.0489,-4.0489,-4.0489,-4.0489,-4.0489,-4.0489,-4.0489,-4.0489,-4.0489,-4.0489,-4.0489,-4.0489,-4.0489,-4.0489,-4.052,-4.0689,-4.1447,-4.1678,-4.1848,-4.2494,-4.2633,-4.2432,-4.1755,-4.1571,-4.1355,-4.0643,-4.0489,-4.0639,-4.1077,-4.1163,-4.1377,-4.2086,-4.1607,-4.125,-4.1504,-4.0935,-4.0489,-4.0489,-4.0489,-4.0489,-4.0489,-4.0207,-4.0011,-4.0011,-3.964,-3.9388,-3.9388,-3.9388,-3.9439,-3.9469,-4.0272,-4.0743,-4.0818,-4.1888,-4.2466,-4.2602,-4.1971,-4.1247,-4.0428,-3.9751,-3.9108,0.0,0.0,0.0,0.0,0.0,0.0,0.0,0.0,0.0,0.0,0.0,0.0,0.0,0.0,0.0,0.0,0.0,0.0,0.0,0.0,0.0,0.0,0.0,0.0,0.0,0.0,0.0,0.0,0.0,0.0,-4.109,-4.1086,-4.1294,-4.1772,-4.1489,-4.1075,-4.0505,-4.0489,-4.0489,-4.0489,-4.0489,-4.0489,-4.0489,-4.0489,-4.0489,-4.0489,-4.0489,-4.0489,-4.0489,-4.0489,-4.0489,-4.0489,-4.0489,-4.0489,-4.0489,-4.0489,-4.0489,-4.0489,-4.0489,-4.0489,-4.0489,-4.0489,-4.0489,-4.0489,-4.0489,-4.0489,-4.0643,-4.1401,-4.1909,-4.2309,-4.254,-4.291,-4.3063,-4.2241,-4.1912,-4.1727,-4.1468,-4.1407,-4.1446,-4.1602,-4.1648,-4.1724,-4.2019,-4.1559,-4.1224,-4.1311,-4.085,-4.0489,-4.0489,-4.0489,-4.0489,-4.0489,-4.0207,-4.0011,-4.0011,-3.964,-3.9388,-3.9388,-3.9388,-3.9388,-3.9388,-3.9706,-4.0182,-4.0873,-4.0836,-4.1138,-4.1761,-4.1638,-4.1232,-4.0474,-3.9797,-3.9351,-1.707,0.0,0.0,0.0,0.0,0.0,0.0,0.0,0.0,0.0,0.0,0.0,0.0,0.0,0.0,0.0,0.0,0.0,0.0,0.0,0.0,0.0,0.0,0.0,0.0,0.0,0.0,0.0,0.0,0.0,-4.1052,-4.1345,-4.1761,-4.2343,-4.2288,-4.1837,-4.0948,-4.0932,-4.079,-4.0489,-4.0489,-4.0489,-4.0489,-4.0489,-4.0489,-4.0489,-4.0489,-4.0489,-4.0489,-4.0489,-4.0489,-4.0489,-4.0489,-4.0489,-4.0489,-4.0489,-4.0489,-4.0489,-4.0489,-4.0489,-4.0489,-4.0489,-4.0489,-4.0489,-4.0489,-4.0659,-4.0986,-4.1463,-4.2232,-4.2925,-4.2925,-4.3248,-4.3464,-4.2855,-4.2489,-4.225,-4.225,-4.2068,-4.1962,-4.2115,-4.2123,-4.2236,-4.2538,-4.1936,-4.1488,-4.1648,-4.0988,-4.0489,-4.0489,-4.0489,-4.0489,-4.0489,-4.0207,-4.0011,-4.0011,-3.964,-3.9388,-3.9388,-3.9388,-3.9388,-3.9388,-3.9388,-3.9778,-4.054,-4.0188,-4.033,-4.0969,-4.1126,-4.1001,-4.0489,-4.0028,-3.9705,0.0,0.0,0.0,0.0,0.0,0.0,0.0,0.0,0.0,0.0,0.0,0.0,0.0,0.0,0.0,0.0,0.0,0.0,0.0,0.0,0.0,0.0,0.0,0.0,0.0,0.0,0.0,0.0,0.0,-4.2301,-4.2548,-4.2788,-4.3004,-4.3223,-4.3207,-4.2743,-4.1817,-4.1802,-4.1357,-4.0486,-4.0486,-4.052,-4.0489,-4.0489,-4.0489,-4.0489,-4.0489,-4.0489,-4.0489,-4.0489,-4.0489,-4.0489,-4.0489,-4.0489,-4.0489,-4.0489,-4.0489,-4.0489,-4.0489,-4.0505,-4.052,-4.052,-4.0536,-4.0551,-4.0551,-4.1078,-4.1632,-4.1632,-4.2571,-4.3608,-4.3624,-4.3639,-4.3639,-4.3639,-4.3303,-4.3016,-4.3016,-4.2432,-4.2084,-4.2545,-4.2627,-4.293,-4.3827,-4.2849,-4.2065,-4.2529,-4.1381,-4.0489,-4.0489,-4.0489,-4.0489,-4.0489,-4.0207,-4.0011,-4.0011,-3.964,-3.9388,-3.9388,-3.9388,-3.9388,-3.9388,-3.9424,-3.9517,-3.9681,-3.9925,-4.0101,-4.0312,-4.0436,-4.0489,-4.0489,-4.0489,-4.0136,-1.4413,0.0,0.0,0.0,0.0,0.0,0.0,0.0,0.0,0.0,0.0,0.0,0.0,0.0,0.0,0.0,0.0,0.0,0.0,0.0,0.0,0.0,0.0,0.0,0.0,0.0,0.0,0.0,-4.0073,-4.0435,-4.1587,-4.2598,-4.3434,-4.4105,-4.3536,-4.2794,-4.1885,-4.1885,-4.1441,-4.0571,-4.0571,-4.0543,-4.0489,-4.0489,-4.0489,-4.0489,-4.0489,-4.0489,-4.0489,-4.0489,-4.0489,-4.0489,-4.0489,-4.0489,-4.0489,-4.0489,-4.0489,-4.0489,-4.0489,-4.0863,-4.1309,-4.1309,-4.1632,-4.2032,-4.2032,-4.2171,-4.2325,-4.2325,-4.2925,-4.3716,-4.4209,-4.4234,-4.4121,-4.4121,-4.3791,-4.3497,-4.3497,-4.3199,-4.2953,-4.3094,-4.3099,-4.3238,-4.3684,-4.2735,-4.2028,-4.2316,-4.1311,-4.0489,-4.0489,-4.0489,-4.0489,-4.0489,-4.0207,-4.0011,-4.0011,-3.964,-3.9388,-3.9388,-3.9388,-3.9388,-3.9388,-3.9553,-3.9696,-3.9925,-4.0101,-4.0296,-4.042,-4.0489,-4.0489,-4.0489,-4.0489,-4.0136,-1.43,0.0,0.0,0.0,0.0,0.0,0.0,-2.0741,0.0,0.0,0.0,0.0,0.0,0.0,0.0,0.0,0.0,0.0,0.0,0.0,0.0,0.0,0.0,0.0,0.0,0.0,0.0,-3.9006,-3.8824,-3.9293,-4.0713,-4.1496,-4.2329,-4.3198,-4.2724,-4.2166,-4.1608,-4.1608,-4.1309,-4.067,-4.067,-4.0613,-4.0489,-4.0489,-4.0489,-4.0489,-4.0593,-4.0558,-4.0489,-4.0593,-4.0558,-4.0489,-4.0489,-4.0489,-4.0489,-4.0489,-4.0489,-4.0489,-4.0489,-4.1001,-4.1601,-4.1601,-4.2048,-4.2602,-4.2602,-4.2802,-4.3017,-4.3017,-4.3479,-4.4117,-4.4517,-4.4511,-4.4435,-4.4435,-4.4166,-4.3949,-4.3949,-4.3714,-4.3423,-4.3329,-4.329,-4.3384,-4.3651,-4.2697,-4.1975,-4.2279,-4.126,-4.0489,-4.0489,-4.0489,-4.0489,-4.0489,-4.0277,-4.0101,-4.0011,-3.9711,-3.9481,-3.9424,-3.9388,-3.946,-3.9517,-3.9661,-3.9839,-4.0101,-4.0242,-4.0366,-4.0489,-4.0489,-4.0489,-4.0489,-4.0489,-4.0274,0.0,0.0,0.0,0.0,0.0,0.0,-1.6954,-2.0423,-2.3837,0.0,0.0,0.0,0.0,0.0,0.0,0.0,0.0,0.0,0.0,0.0,0.0,0.0,0.0,0.0,0.0,-3.7392,-3.7602,-3.8007,-3.8283,-3.8901,-4.0046,-4.0085,-4.0514,-4.1355,-4.1317,-4.122,-4.1091,-4.1163,-4.1,-4.0582,-4.0735,-4.067,-4.042,-4.0455,-4.0489,-4.0489,-4.0696,-4.0696,-4.0558,-4.0765,-4.0696,-4.0489,-4.0489,-4.0489,-4.0489,-4.0489,-4.0489,-4.0505,-4.0582,-4.1109,-4.1724,-4.1801,-4.2279,-4.2833,-4.2833,-4.3233,-4.3716,-4.3716,-4.4148,-4.461,-4.461,-4.461,-4.461,-4.461,-4.4473,-4.4281,-4.4281,-4.3988,-4.3675,-4.3384,-4.3329,-4.3394,-4.3585,-4.269,-4.1997,-4.2172,-4.1249,-4.0489,-4.0489,-4.0489,-4.0489,-4.0489,-4.0366,-4.0207,-4.0011,-3.9803,-3.9589,-3.9409,-3.9388,-3.9481,-3.9681,-3.9732,-3.991,-4.0312,-4.0296,-4.0366,-4.0489,-4.0489,-4.0489,-4.0489,-4.0489,-4.0489,0.0,0.0,0.0,0.0,0.0,0.0,-1.5579,-1.6671,-1.8233,0.0,0.0,0.0,0.0,0.0,0.0,0.0,0.0,0.0,0.0,0.0,0.0,0.0,0.0,0.0,0.0,-3.662,-3.7071,-3.7154,-3.8605,-3.9679,-4.0085,-4.0085,-4.0514,-4.1355,-4.0707,-4.0324,-4.0309,-4.0972,-4.0569,-3.9194,-4.0326,-4.0517,-3.9859,-4.0281,-4.0489,-4.0489,-4.0696,-4.0765,-4.0765,-4.0966,-4.0814,-4.0489,-4.0489,-4.0489,-4.0489,-4.0489,-4.0489,-4.0566,-4.1186,-4.1832,-4.2494,-4.3054,-4.367,-4.4202,-4.4202,-4.4317,-4.4409,-4.4409,-4.4517,-4.461,-4.461,-4.461,-4.461,-4.461,-4.4473,-4.4281,-4.4281,-4.4089,-4.3871,-4.3675,-4.3596,-4.3509,-4.3198,-4.2628,-4.2096,-4.1792,-4.1043,-4.0489,-4.0489,-4.0489,-4.0489,-4.0489,-4.0242,-4.0031,-4.0011,-3.9676,-3.9445,-3.9388,-3.9388,-3.9481,-3.9681,-3.9854,-4.0066,-4.0312,-4.0401,-4.0455,-4.0489,-4.0489,-4.0489,-4.0489,-4.0489,-4.0489,0.0,0.0,0.0,-1.4669,0.0,0.0,0.0,-1.6491,-1.7713,0.0,0.0,0.0,0.0,0.0,0.0,0.0,0.0,0.0,0.0,0.0,0.0,0.0,0.0,0.0,0.0,-3.6062,-3.6402,-3.6618,-3.7723,-3.8432,-3.8549,-3.8535,-3.8769,-3.9179,-3.8769,-3.8744,-3.917,-3.9536,-3.9473,-3.8911,-3.963,-3.9845,-3.9717,-3.9965,-4.0246,-4.0489,-4.0696,-4.0799,-4.0833,-4.1034,-4.0966,-4.078,-4.078,-4.0746,-4.0662,-4.0662,-4.0593,-4.0597,-4.134,-4.2048,-4.2709,-4.3393,-4.4055,-4.461,-4.461,-4.461,-4.461,-4.461,-4.461,-4.461,-4.461,-4.461,-4.461,-4.461,-4.4534,-4.4473,-4.4473,-4.4281,-4.4127,-4.4026,-4.3988,-4.3843,-4.3432,-4.2765,-4.2245,-4.1981,-4.1131,-4.0489,-4.0489,-4.0489,-4.0489,-4.0489,-4.0296,-4.0101,-4.0011,-3.9696,-3.9517,-3.9424,-3.9388,-3.9532,-3.9854,-3.996,-4.0137,-4.0401,-4.047,-4.0489,-4.0489,-4.0489,-4.0489,-4.0489,-4.0489,-4.0489,0.0,0.0,0.0,0.0,0.0,-1.5012,0.0,0.0,0.0,0.0,0.0,0.0,0.0,0.0,0.0,0.0,0.0,0.0,0.0,0.0,0.0,0.0,0.0,0.0,0.0,-3.4704,-3.5295,-3.6223,-3.659,-3.6827,-3.6978,-3.6978,-3.6978,-3.6978,-3.6978,-3.7327,-3.7976,-3.8127,-3.8323,-3.8598,-3.8867,-3.9032,-3.9113,-3.935,-3.9621,-3.9918,-4.0276,-4.0396,-4.0445,-4.0629,-4.079,-4.0948,-4.1055,-4.1,-4.0833,-4.0799,-4.0696,-4.0682,-4.1494,-4.2155,-4.274,-4.3547,-4.4178,-4.461,-4.461,-4.461,-4.461,-4.461,-4.461,-4.461,-4.461,-4.461,-4.461,-4.461,-4.461,-4.461,-4.461,-4.4473,-4.4358,-4.432,-4.432,-4.4197,-4.3704,-4.2902,-4.2306,-4.2184,-4.1218,-4.0489,-4.0489,-4.0489,-4.0489,-4.0455,-4.0331,-4.0172,-3.996,-3.9768,-3.9589,-3.9424,-3.946,-3.964,-3.996,-4.0066,-4.0226,-4.0489,-4.0489,-4.0489,-4.0489,-4.0489,-4.0489,-4.0489,-4.0489,-4.0489,0.0,0.0,0.0,0.0,-1.605,0.0,0.0,0.0,0.0,0.0,0.0,0.0,0.0,0.0,0.0,0.0,0.0,0.0,0.0,0.0,0.0,0.0,0.0,0.0,0.0,0.0,-3.3111,-3.5666,-3.591,-3.6249,-3.695,-3.6978,-3.6978,-3.6978,-3.6978,-3.7056,-3.7134,-3.7825,-3.7863,-3.7236,-3.8364,-3.824,-3.7096,-3.8159,-3.8309,-3.779,-3.8642,-3.9034,-3.9034,-3.9244,-3.9733,-4.0443,-4.0919,-4.1083,-4.1034,-4.0882,-4.0799,-4.0916,-4.2068,-4.254,-4.2817,-4.4101,-4.4548,-4.461,-4.461,-4.461,-4.461,-4.461,-4.461,-4.461,-4.461,-4.461,-4.461,-4.461,-4.461,-4.461,-4.461,-4.4572,-4.4511,-4.432,-4.4435,-4.4311,-4.3502,-4.291,-4.2365,-4.1766,-4.0997,-4.0489,-4.0489,-4.0489,-4.0455,-4.0347,-4.0137,-3.996,-3.9768,-3.9553,-3.9409,-3.9388,-3.9553,-3.9768,-3.9996,-4.0296,-4.0455,-4.0489,-4.0489,-4.0489,-4.0489,-4.0489,-4.0489,-4.0489,-4.0489,-4.0489,0.0,0.0,0.0,0.0,0.0,0.0,-1.7637,0.0,-1.5145,0.0,0.0,0.0,0.0,0.0,0.0,0.0,0.0,0.0,0.0,0.0,0.0,0.0,0.0,0.0,0.0,0.0,0.0,0.0,0.0,-3.4139,-3.4829,-3.5883,-3.6652,-3.6978,-3.6978,-3.6978,-3.6978,-3.7327,-3.7327,-3.7017,-3.7187,-3.7142,-3.6884,-3.7327,-3.7545,-3.7613,-3.8328,-3.8704,-3.8801,-3.8882,-3.9465,-4.0318,-4.0567,-4.0861,-4.1221,-4.1122,-4.1037,-4.1106,-4.186,-4.2129,-4.2345,-4.3593,-4.4024,-4.4101,-4.4502,-4.461,-4.461,-4.461,-4.461,-4.461,-4.461,-4.461,-4.461,-4.461,-4.461,-4.461,-4.461,-4.461,-4.4587,-4.4511,-4.4549,-4.4479,-4.4127,-4.3565,-4.3063,-4.2823,-4.2171,-4.174,-4.174,-4.174,-4.1515,-4.0939,-4.0715,-4.0349,-3.9762,-3.9517,-3.9388,-3.9388,-3.9711,-3.996,-4.0172,-4.0366,-4.0489,-4.0489,-4.0489,-4.0489,-4.0489,-4.0489,-4.0489,-4.0489,-4.0489,-4.0489,-2.279,0.0,0.0,0.0,0.0,0.0,0.0,0.0,0.0,0.0,0.0,0.0,0.0,0.0,0.0,0.0,0.0,0.0,0.0,0.0,0.0,0.0,0.0,0.0,0.0,0.0,0.0,-2.9882,-3.1266,-3.2358,-3.3031,-3.4969,-3.6314,-3.6764,-3.6894,-3.6978,-3.6978,-3.6978,-3.6978,-3.6978,-3.6551,-3.6344,-3.6405,-3.6428,-3.6576,-3.687,-3.7433,-3.7728,-3.7891,-3.8067,-3.8772,-3.9696,-3.989,-4.0554,-4.139,-4.1323,-4.1239,-4.1229,-4.1658,-4.191,-4.2164,-4.306,-4.3347,-4.347,-4.4132,-4.4348,-4.4379,-4.4564,-4.461,-4.461,-4.461,-4.461,-4.461,-4.461,-4.461,-4.461,-4.461,-4.461,-4.461,-4.461,-4.461,-4.461,-4.461,-4.4055,-4.3608,-4.3608,-4.3017,-4.2602,-4.2602,-4.2396,-4.1981,-4.1296,-4.0866,-4.0368,-3.967,-3.9481,-3.946,-3.9568,-3.9818,-4.0101,-4.0331,-4.047,-4.0489,-4.0489,-4.0489,-4.0489,-4.0489,-4.0489,-4.0489,-4.0489,-4.0489,-4.0489,0.0,0.0,0.0,-2.2564,0.0,0.0,0.0,0.0,-1.6236,0.0,0.0,0.0,0.0,0.0,0.0,-1.6019,0.0,0.0,0.0,0.0,0.0,0.0,0.0,0.0,0.0,0.0,0.0,-2.7593,-2.9849,-3.1593,-3.2412,-3.4745,-3.6117,-3.6131,-3.6722,-3.6978,-3.6978,-3.6978,-3.6978,-3.7017,-3.6916,-3.6177,-3.4966,-3.5358,-3.5239,-3.4721,-3.5264,-3.5492,-3.5557,-3.6287,-3.7163,-3.8147,-3.8848,-4.0129,-4.1555,-4.139,-4.129,-4.135,-4.1678,-4.2129,-4.2586,-4.2633,-4.2633,-4.2756,-4.3439,-4.3639,-4.3778,-4.4425,-4.461,-4.461,-4.461,-4.461,-4.461,-4.461,-4.461,-4.461,-4.461,-4.461,-4.461,-4.461,-4.461,-4.461,-4.461,-4.4055,-4.3608,-4.3608,-4.3017,-4.2602,-4.2602,-4.1873,-4.1265,-4.1034,-4.0262,-3.964,-3.9424,-3.9388,-3.9568,-3.9975,-3.9996,-4.0137,-4.0489,-4.0489,-4.0489,-4.0489,-4.0489,-4.0489,-4.0489,-4.0489,-4.0489,-4.0489,-4.0489,-4.0489,0.0,0.0,-2.8175,-2.7766,0.0,0.0,0.0,0.0,0.0,0.0,0.0,0.0,0.0,0.0,0.0,-1.615,-1.6834,0.0,0.0,0.0,0.0,0.0,0.0,0.0,0.0,0.0,0.0,-2.4326,-2.5729,-2.696,-2.8043,-3.1246,-3.341,-3.4225,-3.563,-3.661,-3.6978,-3.6978,-3.6978,-3.6978,-3.6575,-3.6142,-3.569,-3.5175,-3.4842,-3.4661,-3.467,-3.4681,-3.4714,-3.5091,-3.6343,-3.805,-3.8411,-3.9821,-4.1588,-4.1522,-4.1489,-4.1488,-4.1385,-4.1275,-4.1274,-4.1786,-4.194,-4.2063,-4.2725,-4.294,-4.2987,-4.3217,-4.3587,-4.3947,-4.3947,-4.4286,-4.461,-4.461,-4.461,-4.461,-4.461,-4.461,-4.461,-4.461,-4.461,-4.461,-4.461,-4.4425,-4.4271,-4.4271,-4.4086,-4.391,-4.391,-4.3162,-4.2358,-4.1748,-4.0898,-4.0091,-3.9454,-3.9517,-3.9696,-3.996,-4.0137,-4.0296,-4.0489,-4.0489,-4.0489,-4.0489,-4.0489,-4.0489,-4.0489,-4.0489,-4.0489,-4.0489,-4.0489,-4.0489,-3.0653,-3.0635,0.0,-3.0174,-2.8234,0.0,-2.538,0.0,0.0,0.0,0.0,0.0,0.0,0.0,0.0,-1.6897,-1.7359,-1.7726,0.0,-1.8131,0.0,0.0,0.0,0.0,0.0,0.0,-2.0809,-2.15,-2.3136,-2.4404,0.0,0.0,-3.185,-3.2651,-3.4885,-3.63,-3.6694,-3.6866,-3.6978,-3.6978,-3.6624,-3.6314,-3.6075,-3.5393,-3.4938,-3.4696,-3.447,-3.4189,-3.3939,-3.4413,-3.548,-3.6928,-3.7624,-3.8938,-4.0546,-4.1329,-4.1522,-4.1372,-4.1169,-4.083,-4.0566,-4.1063,-4.1217,-4.1355,-4.2032,-4.2248,-4.234,-4.2817,-4.3094,-4.3316,-4.3547,-4.3762,-4.3879,-4.3879,-4.3879,-4.3879,-4.3879,-4.3879,-4.3879,-4.3879,-4.4101,-4.4255,-4.4255,-4.4456,-4.461,-4.461,-4.461,-4.461,-4.461,-4.3562,-4.2619,-4.2082,-4.0945,-4.0055,-3.9562,-3.9696,-3.9874,-4.0101,-4.0242,-4.0366,-4.0489,-4.0489,-4.0489,-4.0436,-4.047,-4.047,-4.0436,-4.0489,-4.0489,-4.0489,-4.0489,-4.0489]}]]